<?xml version='1.0' encoding='UTF-8'?>
<gpx version="1.1" creator="https://www.komoot.de" xmlns="http://www.topografix.com/GPX/1/1" xmlns:xsi="http://www.w3.org/2001/XMLSchema-instance" xsi:schemaLocation="http://www.topografix.com/GPX/1/1 http://www.topografix.com/GPX/1/1/gpx.xsd">
  <metadata>
    <name>85_1220BaenkerjochBuerersteig</name>
    <author>
      <link href="https://www.komoot.de">
        <text>komoot</text>
        <type>text/html</type>
      </link>
    </author>
  </metadata>
  <trk>
    <name>85_1220BaenkerjochBuerersteig</name>
    <trkseg>
      <trkpt lat="47.541503" lon="7.870719">
        <ele>341.290779</ele>
        <time>2021-11-22T09:05:11.422Z</time>
      </trkpt>
      <trkpt lat="47.541576" lon="7.870664">
        <ele>341.290779</ele>
        <time>2021-11-22T09:05:13.275Z</time>
      </trkpt>
      <trkpt lat="47.541796" lon="7.871042">
        <ele>341.290779</ele>
        <time>2021-11-22T09:05:20.553Z</time>
      </trkpt>
      <trkpt lat="47.541953" lon="7.871286">
        <ele>341.290779</ele>
        <time>2021-11-22T09:05:25.463Z</time>
      </trkpt>
      <trkpt lat="47.542039" lon="7.871556">
        <ele>341.290779</ele>
        <time>2021-11-22T09:05:29.926Z</time>
      </trkpt>
      <trkpt lat="47.542067" lon="7.871664">
        <ele>341.400737</ele>
        <time>2021-11-22T09:05:31.617Z</time>
      </trkpt>
      <trkpt lat="47.542091" lon="7.871721">
        <ele>341.587677</ele>
        <time>2021-11-22T09:05:32.235Z</time>
      </trkpt>
      <trkpt lat="47.542218" lon="7.871866">
        <ele>342.248646</ele>
        <time>2021-11-22T09:05:37.470Z</time>
      </trkpt>
      <trkpt lat="47.542394" lon="7.872341">
        <ele>343.756447</ele>
        <time>2021-11-22T09:05:47.693Z</time>
      </trkpt>
      <trkpt lat="47.542436" lon="7.872494">
        <ele>344.216055</ele>
        <time>2021-11-22T09:05:51.080Z</time>
      </trkpt>
      <trkpt lat="47.542537" lon="7.872430">
        <ele>344.668890</ele>
        <time>2021-11-22T09:05:53.192Z</time>
      </trkpt>
      <trkpt lat="47.542714" lon="7.872334">
        <ele>345.445889</ele>
        <time>2021-11-22T09:06:00.149Z</time>
      </trkpt>
      <trkpt lat="47.542814" lon="7.872280">
        <ele>345.884645</ele>
        <time>2021-11-22T09:06:03.163Z</time>
      </trkpt>
      <trkpt lat="47.542919" lon="7.872226">
        <ele>346.342820</ele>
        <time>2021-11-22T09:06:07.001Z</time>
      </trkpt>
      <trkpt lat="47.543013" lon="7.872182">
        <ele>346.749192</ele>
        <time>2021-11-22T09:06:10.508Z</time>
      </trkpt>
      <trkpt lat="47.543233" lon="7.872082">
        <ele>347.697812</ele>
        <time>2021-11-22T09:06:17.747Z</time>
      </trkpt>
      <trkpt lat="47.543251" lon="7.872152">
        <ele>347.906251</ele>
        <time>2021-11-22T09:06:21.120Z</time>
      </trkpt>
      <trkpt lat="47.543332" lon="7.872237">
        <ele>348.315437</ele>
        <time>2021-11-22T09:06:24.425Z</time>
      </trkpt>
      <trkpt lat="47.544390" lon="7.872423">
        <ele>355.041137</ele>
        <time>2021-11-22T09:07:06.145Z</time>
      </trkpt>
      <trkpt lat="47.544883" lon="7.872555">
        <ele>358.310590</ele>
        <time>2021-11-22T09:07:28.554Z</time>
      </trkpt>
      <trkpt lat="47.545131" lon="7.872664">
        <ele>359.998768</ele>
        <time>2021-11-22T09:07:39.558Z</time>
      </trkpt>
      <trkpt lat="47.545375" lon="7.872836">
        <ele>361.743105</ele>
        <time>2021-11-22T09:07:50.498Z</time>
      </trkpt>
      <trkpt lat="47.545478" lon="7.872968">
        <ele>362.619030</ele>
        <time>2021-11-22T09:07:57.306Z</time>
      </trkpt>
      <trkpt lat="47.545515" lon="7.873015">
        <ele>362.932500</ele>
        <time>2021-11-22T09:07:59.262Z</time>
      </trkpt>
      <trkpt lat="47.545746" lon="7.873302">
        <ele>364.871504</ele>
        <time>2021-11-22T09:08:12.462Z</time>
      </trkpt>
      <trkpt lat="47.545934" lon="7.873549">
        <ele>366.487632</ele>
        <time>2021-11-22T09:08:22.562Z</time>
      </trkpt>
      <trkpt lat="47.546077" lon="7.873763">
        <ele>367.794920</ele>
        <time>2021-11-22T09:08:31.759Z</time>
      </trkpt>
      <trkpt lat="47.546135" lon="7.873859">
        <ele>368.354247</ele>
        <time>2021-11-22T09:08:34.998Z</time>
      </trkpt>
      <trkpt lat="47.546309" lon="7.874154">
        <ele>370.054991</ele>
        <time>2021-11-22T09:08:46.112Z</time>
      </trkpt>
      <trkpt lat="47.547126" lon="7.875801">
        <ele>375.765612</ele>
        <time>2021-11-22T09:09:31.874Z</time>
      </trkpt>
      <trkpt lat="47.547574" lon="7.876801">
        <ele>378.185328</ele>
        <time>2021-11-22T09:09:50.869Z</time>
      </trkpt>
      <trkpt lat="47.547992" lon="7.877974">
        <ele>377.105565</ele>
        <time>2021-11-22T09:10:03.670Z</time>
      </trkpt>
      <trkpt lat="47.548234" lon="7.878638">
        <ele>376.491288</ele>
        <time>2021-11-22T09:10:08.982Z</time>
      </trkpt>
      <trkpt lat="47.548422" lon="7.878959">
        <ele>376.145332</ele>
        <time>2021-11-22T09:10:11.825Z</time>
      </trkpt>
      <trkpt lat="47.548718" lon="7.879258">
        <ele>374.695301</ele>
        <time>2021-11-22T09:10:15.363Z</time>
      </trkpt>
      <trkpt lat="47.549140" lon="7.879391">
        <ele>372.875808</ele>
        <time>2021-11-22T09:10:19.550Z</time>
      </trkpt>
      <trkpt lat="47.549318" lon="7.879398">
        <ele>372.124876</ele>
        <time>2021-11-22T09:10:21.177Z</time>
      </trkpt>
      <trkpt lat="47.549327" lon="7.879547">
        <ele>371.699061</ele>
        <time>2021-11-22T09:10:22.163Z</time>
      </trkpt>
      <trkpt lat="47.549726" lon="7.880786">
        <ele>367.912519</ele>
        <time>2021-11-22T09:10:31.098Z</time>
      </trkpt>
      <trkpt lat="47.549927" lon="7.881490">
        <ele>366.090614</ele>
        <time>2021-11-22T09:10:36.135Z</time>
      </trkpt>
      <trkpt lat="47.550234" lon="7.883221">
        <ele>361.735777</ele>
        <time>2021-11-22T09:10:48.556Z</time>
      </trkpt>
      <trkpt lat="47.550296" lon="7.884167">
        <ele>358.909080</ele>
        <time>2021-11-22T09:10:54.756Z</time>
      </trkpt>
      <trkpt lat="47.550332" lon="7.884727">
        <ele>357.236068</ele>
        <time>2021-11-22T09:10:58.414Z</time>
      </trkpt>
      <trkpt lat="47.550391" lon="7.885109">
        <ele>356.070611</ele>
        <time>2021-11-22T09:11:00.970Z</time>
      </trkpt>
      <trkpt lat="47.550548" lon="7.885799">
        <ele>353.795105</ele>
        <time>2021-11-22T09:11:05.536Z</time>
      </trkpt>
      <trkpt lat="47.550677" lon="7.886476">
        <ele>351.052405</ele>
        <time>2021-11-22T09:11:09.967Z</time>
      </trkpt>
      <trkpt lat="47.550746" lon="7.887166">
        <ele>348.332829</ele>
        <time>2021-11-22T09:11:14.323Z</time>
      </trkpt>
      <trkpt lat="47.550758" lon="7.887295">
        <ele>347.825123</ele>
        <time>2021-11-22T09:11:15.119Z</time>
      </trkpt>
      <trkpt lat="47.550764" lon="7.887385">
        <ele>347.472520</ele>
        <time>2021-11-22T09:11:15.655Z</time>
      </trkpt>
      <trkpt lat="47.550789" lon="7.887816">
        <ele>345.785922</ele>
        <time>2021-11-22T09:11:18.358Z</time>
      </trkpt>
      <trkpt lat="47.550831" lon="7.888611">
        <ele>342.580819</ele>
        <time>2021-11-22T09:11:23.303Z</time>
      </trkpt>
      <trkpt lat="47.550833" lon="7.889069">
        <ele>340.651194</ele>
        <time>2021-11-22T09:11:26.107Z</time>
      </trkpt>
      <trkpt lat="47.550915" lon="7.890600">
        <ele>334.180714</ele>
        <time>2021-11-22T09:11:35.507Z</time>
      </trkpt>
      <trkpt lat="47.550904" lon="7.891725">
        <ele>330.652570</ele>
        <time>2021-11-22T09:11:42.511Z</time>
      </trkpt>
      <trkpt lat="47.550892" lon="7.893176">
        <ele>326.854184</ele>
        <time>2021-11-22T09:11:52.123Z</time>
      </trkpt>
      <trkpt lat="47.550908" lon="7.894308">
        <ele>325.100527</ele>
        <time>2021-11-22T09:12:01.328Z</time>
      </trkpt>
      <trkpt lat="47.550878" lon="7.895158">
        <ele>324.391433</ele>
        <time>2021-11-22T09:12:08.513Z</time>
      </trkpt>
      <trkpt lat="47.550838" lon="7.895509">
        <ele>324.094879</ele>
        <time>2021-11-22T09:12:11.677Z</time>
      </trkpt>
      <trkpt lat="47.550660" lon="7.896255">
        <ele>323.423008</ele>
        <time>2021-11-22T09:12:18.166Z</time>
      </trkpt>
      <trkpt lat="47.550639" lon="7.896345">
        <ele>323.239305</ele>
        <time>2021-11-22T09:12:19.353Z</time>
      </trkpt>
      <trkpt lat="47.550648" lon="7.896481">
        <ele>322.975687</ele>
        <time>2021-11-22T09:12:20.308Z</time>
      </trkpt>
      <trkpt lat="47.550819" lon="7.898109">
        <ele>319.797287</ele>
        <time>2021-11-22T09:12:32.056Z</time>
      </trkpt>
      <trkpt lat="47.550801" lon="7.900244">
        <ele>314.407736</ele>
        <time>2021-11-22T09:12:45.893Z</time>
      </trkpt>
      <trkpt lat="47.550769" lon="7.901362">
        <ele>311.204632</ele>
        <time>2021-11-22T09:12:53.177Z</time>
      </trkpt>
      <trkpt lat="47.550757" lon="7.901591">
        <ele>310.565323</ele>
        <time>2021-11-22T09:12:55.328Z</time>
      </trkpt>
      <trkpt lat="47.550688" lon="7.902451">
        <ele>308.435114</ele>
        <time>2021-11-22T09:13:03.743Z</time>
      </trkpt>
      <trkpt lat="47.550525" lon="7.903304">
        <ele>306.254542</ele>
        <time>2021-11-22T09:13:12.640Z</time>
      </trkpt>
      <trkpt lat="47.550498" lon="7.903445">
        <ele>305.894039</ele>
        <time>2021-11-22T09:13:14.012Z</time>
      </trkpt>
      <trkpt lat="47.550302" lon="7.904164">
        <ele>303.986672</ele>
        <time>2021-11-22T09:13:21.288Z</time>
      </trkpt>
      <trkpt lat="47.550025" lon="7.904774">
        <ele>302.177532</ele>
        <time>2021-11-22T09:13:28.212Z</time>
      </trkpt>
      <trkpt lat="47.549868" lon="7.905010">
        <ele>301.362129</ele>
        <time>2021-11-22T09:13:31.337Z</time>
      </trkpt>
      <trkpt lat="47.549867" lon="7.905155">
        <ele>301.005305</ele>
        <time>2021-11-22T09:13:32.739Z</time>
      </trkpt>
      <trkpt lat="47.550067" lon="7.905245">
        <ele>300.243253</ele>
        <time>2021-11-22T09:13:35.632Z</time>
      </trkpt>
      <trkpt lat="47.550283" lon="7.905413">
        <ele>299.353845</ele>
        <time>2021-11-22T09:13:39.082Z</time>
      </trkpt>
      <trkpt lat="47.550497" lon="7.905558">
        <ele>298.495926</ele>
        <time>2021-11-22T09:13:42.441Z</time>
      </trkpt>
      <trkpt lat="47.549539" lon="7.908625">
        <ele>293.085700</ele>
        <time>2021-11-22T09:14:06.881Z</time>
      </trkpt>
      <trkpt lat="47.549520" lon="7.908678">
        <ele>293.030769</ele>
        <time>2021-11-22T09:14:07.380Z</time>
      </trkpt>
      <trkpt lat="47.549368" lon="7.909181">
        <ele>292.526314</ele>
        <time>2021-11-22T09:14:11.886Z</time>
      </trkpt>
      <trkpt lat="47.549283" lon="7.909464">
        <ele>292.242781</ele>
        <time>2021-11-22T09:14:14.409Z</time>
      </trkpt>
      <trkpt lat="47.549195" lon="7.909756">
        <ele>291.950068</ele>
        <time>2021-11-22T09:14:17.020Z</time>
      </trkpt>
      <trkpt lat="47.549102" lon="7.910058">
        <ele>291.646221</ele>
        <time>2021-11-22T09:14:19.723Z</time>
      </trkpt>
      <trkpt lat="47.549012" lon="7.910340">
        <ele>291.360691</ele>
        <time>2021-11-22T09:14:22.240Z</time>
      </trkpt>
      <trkpt lat="47.548412" lon="7.912168">
        <ele>289.816298</ele>
        <time>2021-11-22T09:14:38.573Z</time>
      </trkpt>
      <trkpt lat="47.548027" lon="7.913334">
        <ele>289.004859</ele>
        <time>2021-11-22T09:14:49.334Z</time>
      </trkpt>
      <trkpt lat="47.547994" lon="7.913433">
        <ele>288.984727</ele>
        <time>2021-11-22T09:14:50.255Z</time>
      </trkpt>
      <trkpt lat="47.547423" lon="7.915080">
        <ele>288.647134</ele>
        <time>2021-11-22T09:15:07.731Z</time>
      </trkpt>
      <trkpt lat="47.547113" lon="7.915971">
        <ele>288.720920</ele>
        <time>2021-11-22T09:15:18.179Z</time>
      </trkpt>
      <trkpt lat="47.547091" lon="7.916039">
        <ele>288.744291</ele>
        <time>2021-11-22T09:15:19.203Z</time>
      </trkpt>
      <trkpt lat="47.547032" lon="7.916218">
        <ele>288.806030</ele>
        <time>2021-11-22T09:15:21.406Z</time>
      </trkpt>
      <trkpt lat="47.546821" lon="7.916867">
        <ele>289.029292</ele>
        <time>2021-11-22T09:15:29.515Z</time>
      </trkpt>
      <trkpt lat="47.546262" lon="7.919081">
        <ele>289.694392</ele>
        <time>2021-11-22T09:15:57.026Z</time>
      </trkpt>
      <trkpt lat="47.546128" lon="7.919617">
        <ele>289.839786</ele>
        <time>2021-11-22T09:16:02.495Z</time>
      </trkpt>
      <trkpt lat="47.545973" lon="7.920313">
        <ele>290.026215</ele>
        <time>2021-11-22T09:16:10.958Z</time>
      </trkpt>
      <trkpt lat="47.545913" lon="7.920765">
        <ele>290.358387</ele>
        <time>2021-11-22T09:16:15.131Z</time>
      </trkpt>
      <trkpt lat="47.545881" lon="7.921096">
        <ele>290.671141</ele>
        <time>2021-11-22T09:16:19.148Z</time>
      </trkpt>
      <trkpt lat="47.545810" lon="7.921755">
        <ele>291.295326</ele>
        <time>2021-11-22T09:16:28.056Z</time>
      </trkpt>
      <trkpt lat="47.545778" lon="7.921947">
        <ele>291.480303</ele>
        <time>2021-11-22T09:16:31.665Z</time>
      </trkpt>
      <trkpt lat="47.545714" lon="7.922249">
        <ele>291.776367</ele>
        <time>2021-11-22T09:16:34.864Z</time>
      </trkpt>
      <trkpt lat="47.545699" lon="7.922325">
        <ele>291.850429</ele>
        <time>2021-11-22T09:16:36.061Z</time>
      </trkpt>
      <trkpt lat="47.545690" lon="7.922369">
        <ele>291.893432</ele>
        <time>2021-11-22T09:16:38.160Z</time>
      </trkpt>
      <trkpt lat="47.545641" lon="7.922610">
        <ele>292.128851</ele>
        <time>2021-11-22T09:16:40.513Z</time>
      </trkpt>
      <trkpt lat="47.545587" lon="7.922895">
        <ele>292.405725</ele>
        <time>2021-11-22T09:16:46.310Z</time>
      </trkpt>
      <trkpt lat="47.545553" lon="7.923142">
        <ele>292.780875</ele>
        <time>2021-11-22T09:16:48.956Z</time>
      </trkpt>
      <trkpt lat="47.545536" lon="7.923407">
        <ele>293.432920</ele>
        <time>2021-11-22T09:16:54.846Z</time>
      </trkpt>
      <trkpt lat="47.545521" lon="7.923709">
        <ele>294.174672</ele>
        <time>2021-11-22T09:16:59.000Z</time>
      </trkpt>
      <trkpt lat="47.545481" lon="7.924396">
        <ele>295.863734</ele>
        <time>2021-11-22T09:17:13.603Z</time>
      </trkpt>
      <trkpt lat="47.545466" lon="7.924880">
        <ele>297.050546</ele>
        <time>2021-11-22T09:17:24.910Z</time>
      </trkpt>
      <trkpt lat="47.545446" lon="7.925350">
        <ele>298.204103</ele>
        <time>2021-11-22T09:17:35.284Z</time>
      </trkpt>
      <trkpt lat="47.545417" lon="7.925848">
        <ele>299.282724</ele>
        <time>2021-11-22T09:17:45.763Z</time>
      </trkpt>
      <trkpt lat="47.545409" lon="7.926773">
        <ele>300.594106</ele>
        <time>2021-11-22T09:18:02.964Z</time>
      </trkpt>
      <trkpt lat="47.545407" lon="7.927001">
        <ele>300.917345</ele>
        <time>2021-11-22T09:18:06.773Z</time>
      </trkpt>
      <trkpt lat="47.545406" lon="7.927306">
        <ele>301.349716</ele>
        <time>2021-11-22T09:18:11.378Z</time>
      </trkpt>
      <trkpt lat="47.545421" lon="7.927686">
        <ele>301.889322</ele>
        <time>2021-11-22T09:18:16.913Z</time>
      </trkpt>
      <trkpt lat="47.545475" lon="7.928419">
        <ele>302.805982</ele>
        <time>2021-11-22T09:18:26.231Z</time>
      </trkpt>
      <trkpt lat="47.545563" lon="7.929641">
        <ele>301.550463</ele>
        <time>2021-11-22T09:18:36.110Z</time>
      </trkpt>
      <trkpt lat="47.545661" lon="7.930955">
        <ele>300.199871</ele>
        <time>2021-11-22T09:18:45.506Z</time>
      </trkpt>
      <trkpt lat="47.545696" lon="7.931497">
        <ele>299.769006</ele>
        <time>2021-11-22T09:18:49.475Z</time>
      </trkpt>
      <trkpt lat="47.545721" lon="7.931992">
        <ele>299.390618</ele>
        <time>2021-11-22T09:18:53.268Z</time>
      </trkpt>
      <trkpt lat="47.545724" lon="7.932758">
        <ele>298.806693</ele>
        <time>2021-11-22T09:18:59.477Z</time>
      </trkpt>
      <trkpt lat="47.545702" lon="7.933290">
        <ele>298.400394</ele>
        <time>2021-11-22T09:19:04.120Z</time>
      </trkpt>
      <trkpt lat="47.545674" lon="7.933625">
        <ele>298.143077</ele>
        <time>2021-11-22T09:19:07.320Z</time>
      </trkpt>
      <trkpt lat="47.545457" lon="7.935110">
        <ele>299.104148</ele>
        <time>2021-11-22T09:19:25.455Z</time>
      </trkpt>
      <trkpt lat="47.545074" lon="7.936484">
        <ele>300.261971</ele>
        <time>2021-11-22T09:19:46.982Z</time>
      </trkpt>
      <trkpt lat="47.544903" lon="7.936917">
        <ele>300.858240</ele>
        <time>2021-11-22T09:19:54.299Z</time>
      </trkpt>
      <trkpt lat="47.544705" lon="7.937395">
        <ele>301.524833</ele>
        <time>2021-11-22T09:20:02.483Z</time>
      </trkpt>
      <trkpt lat="47.544472" lon="7.937932">
        <ele>302.283598</ele>
        <time>2021-11-22T09:20:11.890Z</time>
      </trkpt>
      <trkpt lat="47.543826" lon="7.939433">
        <ele>304.331512</ele>
        <time>2021-11-22T09:20:38.772Z</time>
      </trkpt>
      <trkpt lat="47.543435" lon="7.940670">
        <ele>305.871379</ele>
        <time>2021-11-22T09:20:58.732Z</time>
      </trkpt>
      <trkpt lat="47.543161" lon="7.942213">
        <ele>306.502993</ele>
        <time>2021-11-22T09:21:19.582Z</time>
      </trkpt>
      <trkpt lat="47.543007" lon="7.943867">
        <ele>306.472323</ele>
        <time>2021-11-22T09:21:35.126Z</time>
      </trkpt>
      <trkpt lat="47.542913" lon="7.945267">
        <ele>305.087677</ele>
        <time>2021-11-22T09:21:46.032Z</time>
      </trkpt>
      <trkpt lat="47.542872" lon="7.945781">
        <ele>304.578290</ele>
        <time>2021-11-22T09:21:49.848Z</time>
      </trkpt>
      <trkpt lat="47.542875" lon="7.946089">
        <ele>304.275132</ele>
        <time>2021-11-22T09:21:52.083Z</time>
      </trkpt>
      <trkpt lat="47.542902" lon="7.946514">
        <ele>303.835317</ele>
        <time>2021-11-22T09:21:55.177Z</time>
      </trkpt>
      <trkpt lat="47.542943" lon="7.946806">
        <ele>303.527333</ele>
        <time>2021-11-22T09:21:57.388Z</time>
      </trkpt>
      <trkpt lat="47.542974" lon="7.946965">
        <ele>303.356433</ele>
        <time>2021-11-22T09:21:58.695Z</time>
      </trkpt>
      <trkpt lat="47.542979" lon="7.946989">
        <ele>303.330497</ele>
        <time>2021-11-22T09:21:58.852Z</time>
      </trkpt>
      <trkpt lat="47.542989" lon="7.947104">
        <ele>303.210763</ele>
        <time>2021-11-22T09:21:59.723Z</time>
      </trkpt>
      <trkpt lat="47.542984" lon="7.947304">
        <ele>303.004094</ele>
        <time>2021-11-22T09:22:01.298Z</time>
      </trkpt>
      <trkpt lat="47.542979" lon="7.947370">
        <ele>302.935513</ele>
        <time>2021-11-22T09:22:01.800Z</time>
      </trkpt>
      <trkpt lat="47.542935" lon="7.947564">
        <ele>302.724176</ele>
        <time>2021-11-22T09:22:03.367Z</time>
      </trkpt>
      <trkpt lat="47.542892" lon="7.947789">
        <ele>302.482701</ele>
        <time>2021-11-22T09:22:05.285Z</time>
      </trkpt>
      <trkpt lat="47.542875" lon="7.948001">
        <ele>302.262243</ele>
        <time>2021-11-22T09:22:07.101Z</time>
      </trkpt>
      <trkpt lat="47.542838" lon="7.948225">
        <ele>302.024108</ele>
        <time>2021-11-22T09:22:08.885Z</time>
      </trkpt>
      <trkpt lat="47.542826" lon="7.948298">
        <ele>301.946523</ele>
        <time>2021-11-22T09:22:09.507Z</time>
      </trkpt>
      <trkpt lat="47.542719" lon="7.949175">
        <ele>301.363788</ele>
        <time>2021-11-22T09:22:16.732Z</time>
      </trkpt>
      <trkpt lat="47.542609" lon="7.949914">
        <ele>301.135068</ele>
        <time>2021-11-22T09:22:23.506Z</time>
      </trkpt>
      <trkpt lat="47.542560" lon="7.950202">
        <ele>301.045301</ele>
        <time>2021-11-22T09:22:26.374Z</time>
      </trkpt>
      <trkpt lat="47.542554" lon="7.950231">
        <ele>301.036134</ele>
        <time>2021-11-22T09:22:26.650Z</time>
      </trkpt>
      <trkpt lat="47.542546" lon="7.950274">
        <ele>301.022653</ele>
        <time>2021-11-22T09:22:27.055Z</time>
      </trkpt>
      <trkpt lat="47.542444" lon="7.950687">
        <ele>300.889736</ele>
        <time>2021-11-22T09:22:31.517Z</time>
      </trkpt>
      <trkpt lat="47.542357" lon="7.951037">
        <ele>300.777008</ele>
        <time>2021-11-22T09:22:35.161Z</time>
      </trkpt>
      <trkpt lat="47.542192" lon="7.951713">
        <ele>300.620839</ele>
        <time>2021-11-22T09:22:42.109Z</time>
      </trkpt>
      <trkpt lat="47.542169" lon="7.951815">
        <ele>300.602683</ele>
        <time>2021-11-22T09:22:43.036Z</time>
      </trkpt>
      <trkpt lat="47.541991" lon="7.952667">
        <ele>300.452102</ele>
        <time>2021-11-22T09:22:51.317Z</time>
      </trkpt>
      <trkpt lat="47.541791" lon="7.953601">
        <ele>300.286664</ele>
        <time>2021-11-22T09:23:00.369Z</time>
      </trkpt>
      <trkpt lat="47.541773" lon="7.953695">
        <ele>300.270167</ele>
        <time>2021-11-22T09:23:01.305Z</time>
      </trkpt>
      <trkpt lat="47.541735" lon="7.953892">
        <ele>300.291765</ele>
        <time>2021-11-22T09:23:03.188Z</time>
      </trkpt>
      <trkpt lat="47.541660" lon="7.954250">
        <ele>300.507998</ele>
        <time>2021-11-22T09:23:06.946Z</time>
      </trkpt>
      <trkpt lat="47.541530" lon="7.954936">
        <ele>300.919024</ele>
        <time>2021-11-22T09:23:14.167Z</time>
      </trkpt>
      <trkpt lat="47.541482" lon="7.955294">
        <ele>301.129575</ele>
        <time>2021-11-22T09:23:18.216Z</time>
      </trkpt>
      <trkpt lat="47.541465" lon="7.955512">
        <ele>301.256168</ele>
        <time>2021-11-22T09:23:20.551Z</time>
      </trkpt>
      <trkpt lat="47.541442" lon="7.955866">
        <ele>301.461321</ele>
        <time>2021-11-22T09:23:25.844Z</time>
      </trkpt>
      <trkpt lat="47.541410" lon="7.956569">
        <ele>302.095640</ele>
        <time>2021-11-22T09:23:37.144Z</time>
      </trkpt>
      <trkpt lat="47.541404" lon="7.956677">
        <ele>302.330883</ele>
        <time>2021-11-22T09:23:39.250Z</time>
      </trkpt>
      <trkpt lat="47.541280" lon="7.957569">
        <ele>304.307906</ele>
        <time>2021-11-22T09:23:54.898Z</time>
      </trkpt>
      <trkpt lat="47.541237" lon="7.957756">
        <ele>304.736760</ele>
        <time>2021-11-22T09:23:59.245Z</time>
      </trkpt>
      <trkpt lat="47.541141" lon="7.958127">
        <ele>305.599285</ele>
        <time>2021-11-22T09:24:06.797Z</time>
      </trkpt>
      <trkpt lat="47.540957" lon="7.959132">
        <ele>307.841472</ele>
        <time>2021-11-22T09:24:28.239Z</time>
      </trkpt>
      <trkpt lat="47.540954" lon="7.959705">
        <ele>309.006870</ele>
        <time>2021-11-22T09:24:39.666Z</time>
      </trkpt>
      <trkpt lat="47.540979" lon="7.959950">
        <ele>309.510810</ele>
        <time>2021-11-22T09:24:45.116Z</time>
      </trkpt>
      <trkpt lat="47.541002" lon="7.960092">
        <ele>309.807805</ele>
        <time>2021-11-22T09:24:47.710Z</time>
      </trkpt>
      <trkpt lat="47.541060" lon="7.960321">
        <ele>310.305245</ele>
        <time>2021-11-22T09:24:52.432Z</time>
      </trkpt>
      <trkpt lat="47.541153" lon="7.960814">
        <ele>311.346314</ele>
        <time>2021-11-22T09:25:01.001Z</time>
      </trkpt>
      <trkpt lat="47.541242" lon="7.961294">
        <ele>312.358685</ele>
        <time>2021-11-22T09:25:08.960Z</time>
      </trkpt>
      <trkpt lat="47.541316" lon="7.962197">
        <ele>313.703457</ele>
        <time>2021-11-22T09:25:23.586Z</time>
      </trkpt>
      <trkpt lat="47.541314" lon="7.962377">
        <ele>313.918024</ele>
        <time>2021-11-22T09:25:26.415Z</time>
      </trkpt>
      <trkpt lat="47.541308" lon="7.962513">
        <ele>314.080465</ele>
        <time>2021-11-22T09:25:28.278Z</time>
      </trkpt>
      <trkpt lat="47.541293" lon="7.962730">
        <ele>314.340455</ele>
        <time>2021-11-22T09:25:31.141Z</time>
      </trkpt>
      <trkpt lat="47.541258" lon="7.962975">
        <ele>314.638932</ele>
        <time>2021-11-22T09:25:35.041Z</time>
      </trkpt>
      <trkpt lat="47.541217" lon="7.963187">
        <ele>314.901775</ele>
        <time>2021-11-22T09:25:37.830Z</time>
      </trkpt>
      <trkpt lat="47.541123" lon="7.963520">
        <ele>315.331975</ele>
        <time>2021-11-22T09:25:43.066Z</time>
      </trkpt>
      <trkpt lat="47.541019" lon="7.963815">
        <ele>315.728640</ele>
        <time>2021-11-22T09:25:47.701Z</time>
      </trkpt>
      <trkpt lat="47.540959" lon="7.963916">
        <ele>315.888995</ele>
        <time>2021-11-22T09:25:49.989Z</time>
      </trkpt>
      <trkpt lat="47.540467" lon="7.964759">
        <ele>317.034108</ele>
        <time>2021-11-22T09:26:05.713Z</time>
      </trkpt>
      <trkpt lat="47.540257" lon="7.965417">
        <ele>317.750810</ele>
        <time>2021-11-22T09:26:15.649Z</time>
      </trkpt>
      <trkpt lat="47.540200" lon="7.965632">
        <ele>317.978264</ele>
        <time>2021-11-22T09:26:19.102Z</time>
      </trkpt>
      <trkpt lat="47.540100" lon="7.966046">
        <ele>318.411247</ele>
        <time>2021-11-22T09:26:24.992Z</time>
      </trkpt>
      <trkpt lat="47.539909" lon="7.966784">
        <ele>319.282778</ele>
        <time>2021-11-22T09:26:35.688Z</time>
      </trkpt>
      <trkpt lat="47.539680" lon="7.967625">
        <ele>320.382860</ele>
        <time>2021-11-22T09:26:49.110Z</time>
      </trkpt>
      <trkpt lat="47.539403" lon="7.968640">
        <ele>321.710968</ele>
        <time>2021-11-22T09:27:05.571Z</time>
      </trkpt>
      <trkpt lat="47.539248" lon="7.969246">
        <ele>322.645428</ele>
        <time>2021-11-22T09:27:15.862Z</time>
      </trkpt>
      <trkpt lat="47.539144" lon="7.969781">
        <ele>323.530622</ele>
        <time>2021-11-22T09:27:24.976Z</time>
      </trkpt>
      <trkpt lat="47.539052" lon="7.970439">
        <ele>324.599024</ele>
        <time>2021-11-22T09:27:36.292Z</time>
      </trkpt>
      <trkpt lat="47.538935" lon="7.971210">
        <ele>325.855481</ele>
        <time>2021-11-22T09:27:49.584Z</time>
      </trkpt>
      <trkpt lat="47.538858" lon="7.971696">
        <ele>326.623122</ele>
        <time>2021-11-22T09:27:57.597Z</time>
      </trkpt>
      <trkpt lat="47.538687" lon="7.972850">
        <ele>328.377089</ele>
        <time>2021-11-22T09:28:16.213Z</time>
      </trkpt>
      <trkpt lat="47.538490" lon="7.973699">
        <ele>329.709857</ele>
        <time>2021-11-22T09:28:30.475Z</time>
      </trkpt>
      <trkpt lat="47.538106" lon="7.974772">
        <ele>331.707921</ele>
        <time>2021-11-22T09:28:49.987Z</time>
      </trkpt>
      <trkpt lat="47.537896" lon="7.975317">
        <ele>332.779193</ele>
        <time>2021-11-22T09:29:00.227Z</time>
      </trkpt>
      <trkpt lat="47.537896" lon="7.975317">
        <ele>332.779193</ele>
        <time>2021-11-22T09:29:00.448Z</time>
      </trkpt>
      <trkpt lat="47.537896" lon="7.975317">
        <ele>332.779193</ele>
        <time>2021-11-22T09:29:00.471Z</time>
      </trkpt>
      <trkpt lat="47.536866" lon="7.977996">
        <ele>338.086106</ele>
        <time>2021-11-22T09:29:55.477Z</time>
      </trkpt>
      <trkpt lat="47.536460" lon="7.979083">
        <ele>339.374257</ele>
        <time>2021-11-22T09:30:14.564Z</time>
      </trkpt>
      <trkpt lat="47.536403" lon="7.979241">
        <ele>339.376381</ele>
        <time>2021-11-22T09:30:16.926Z</time>
      </trkpt>
      <trkpt lat="47.536340" lon="7.979418">
        <ele>339.378753</ele>
        <time>2021-11-22T09:30:19.538Z</time>
      </trkpt>
      <trkpt lat="47.536061" lon="7.980200">
        <ele>339.389239</ele>
        <time>2021-11-22T09:30:28.350Z</time>
      </trkpt>
      <trkpt lat="47.535599" lon="7.981498">
        <ele>338.606597</ele>
        <time>2021-11-22T09:30:39.618Z</time>
      </trkpt>
      <trkpt lat="47.535452" lon="7.981933">
        <ele>337.927153</ele>
        <time>2021-11-22T09:30:43.064Z</time>
      </trkpt>
      <trkpt lat="47.535345" lon="7.982248">
        <ele>337.434629</ele>
        <time>2021-11-22T09:30:45.561Z</time>
      </trkpt>
      <trkpt lat="47.535328" lon="7.982298">
        <ele>337.356436</ele>
        <time>2021-11-22T09:30:45.959Z</time>
      </trkpt>
      <trkpt lat="47.535300" lon="7.982379">
        <ele>337.229332</ele>
        <time>2021-11-22T09:30:46.623Z</time>
      </trkpt>
      <trkpt lat="47.535231" lon="7.982582">
        <ele>336.911886</ele>
        <time>2021-11-22T09:30:48.254Z</time>
      </trkpt>
      <trkpt lat="47.534817" lon="7.983835">
        <ele>335.334009</ele>
        <time>2021-11-22T09:30:58.550Z</time>
      </trkpt>
      <trkpt lat="47.534722" lon="7.984096">
        <ele>335.134399</ele>
        <time>2021-11-22T09:31:00.932Z</time>
      </trkpt>
      <trkpt lat="47.534320" lon="7.984882">
        <ele>334.470585</ele>
        <time>2021-11-22T09:31:09.412Z</time>
      </trkpt>
      <trkpt lat="47.534197" lon="7.985105">
        <ele>334.276733</ele>
        <time>2021-11-22T09:31:12.027Z</time>
      </trkpt>
      <trkpt lat="47.533975" lon="7.985526">
        <ele>333.917116</ele>
        <time>2021-11-22T09:31:16.748Z</time>
      </trkpt>
      <trkpt lat="47.533546" lon="7.986336">
        <ele>333.406069</ele>
        <time>2021-11-22T09:31:26.128Z</time>
      </trkpt>
      <trkpt lat="47.533208" lon="7.986980">
        <ele>333.008072</ele>
        <time>2021-11-22T09:31:33.105Z</time>
      </trkpt>
      <trkpt lat="47.533114" lon="7.987128">
        <ele>332.908929</ele>
        <time>2021-11-22T09:31:34.563Z</time>
      </trkpt>
      <trkpt lat="47.532879" lon="7.987447">
        <ele>332.678562</ele>
        <time>2021-11-22T09:31:38.760Z</time>
      </trkpt>
      <trkpt lat="47.532716" lon="7.987667">
        <ele>332.498692</ele>
        <time>2021-11-22T09:31:42.006Z</time>
      </trkpt>
      <trkpt lat="47.532621" lon="7.987826">
        <ele>332.363078</ele>
        <time>2021-11-22T09:31:43.551Z</time>
      </trkpt>
      <trkpt lat="47.532544" lon="7.987973">
        <ele>332.244240</ele>
        <time>2021-11-22T09:31:46.252Z</time>
      </trkpt>
      <trkpt lat="47.532464" lon="7.988171">
        <ele>332.096855</ele>
        <time>2021-11-22T09:31:47.966Z</time>
      </trkpt>
      <trkpt lat="47.532401" lon="7.988331">
        <ele>331.978548</ele>
        <time>2021-11-22T09:31:49.276Z</time>
      </trkpt>
      <trkpt lat="47.532373" lon="7.988399">
        <ele>331.927674</ele>
        <time>2021-11-22T09:31:51.454Z</time>
      </trkpt>
      <trkpt lat="47.532299" lon="7.988577">
        <ele>331.794155</ele>
        <time>2021-11-22T09:31:52.988Z</time>
      </trkpt>
      <trkpt lat="47.532014" lon="7.989225">
        <ele>331.300181</ele>
        <time>2021-11-22T09:31:59.037Z</time>
      </trkpt>
      <trkpt lat="47.531897" lon="7.989450">
        <ele>331.118782</ele>
        <time>2021-11-22T09:32:01.947Z</time>
      </trkpt>
      <trkpt lat="47.531823" lon="7.989607">
        <ele>330.996481</ele>
        <time>2021-11-22T09:32:03.309Z</time>
      </trkpt>
      <trkpt lat="47.531667" lon="7.989873">
        <ele>330.806843</ele>
        <time>2021-11-22T09:32:06.459Z</time>
      </trkpt>
      <trkpt lat="47.531363" lon="7.990436">
        <ele>330.491299</ele>
        <time>2021-11-22T09:32:12.381Z</time>
      </trkpt>
      <trkpt lat="47.530979" lon="7.991211">
        <ele>330.070529</ele>
        <time>2021-11-22T09:32:20.829Z</time>
      </trkpt>
      <trkpt lat="47.530933" lon="7.991310">
        <ele>330.017925</ele>
        <time>2021-11-22T09:32:21.814Z</time>
      </trkpt>
      <trkpt lat="47.530776" lon="7.991586">
        <ele>329.859956</ele>
        <time>2021-11-22T09:32:25.331Z</time>
      </trkpt>
      <trkpt lat="47.530495" lon="7.992103">
        <ele>329.786502</ele>
        <time>2021-11-22T09:32:31.259Z</time>
      </trkpt>
      <trkpt lat="47.530141" lon="7.992757">
        <ele>329.955986</ele>
        <time>2021-11-22T09:32:39.934Z</time>
      </trkpt>
      <trkpt lat="47.529350" lon="7.994228">
        <ele>330.413489</ele>
        <time>2021-11-22T09:33:02.073Z</time>
      </trkpt>
      <trkpt lat="47.529261" lon="7.994394">
        <ele>330.497914</ele>
        <time>2021-11-22T09:33:04.598Z</time>
      </trkpt>
      <trkpt lat="47.529180" lon="7.994531">
        <ele>330.570443</ele>
        <time>2021-11-22T09:33:06.919Z</time>
      </trkpt>
      <trkpt lat="47.528880" lon="7.995091">
        <ele>330.855164</ele>
        <time>2021-11-22T09:33:14.889Z</time>
      </trkpt>
      <trkpt lat="47.528128" lon="7.996500">
        <ele>331.339889</ele>
        <time>2021-11-22T09:33:35.902Z</time>
      </trkpt>
      <trkpt lat="47.527614" lon="7.997121">
        <ele>331.374474</ele>
        <time>2021-11-22T09:33:45.844Z</time>
      </trkpt>
      <trkpt lat="47.527213" lon="7.997459">
        <ele>331.398530</ele>
        <time>2021-11-22T09:33:52.200Z</time>
      </trkpt>
      <trkpt lat="47.526915" lon="7.997856">
        <ele>331.398112</ele>
        <time>2021-11-22T09:33:57.553Z</time>
      </trkpt>
      <trkpt lat="47.526730" lon="7.998233">
        <ele>331.371465</ele>
        <time>2021-11-22T09:34:02.021Z</time>
      </trkpt>
      <trkpt lat="47.526473" lon="7.999201">
        <ele>331.311991</ele>
        <time>2021-11-22T09:34:12.033Z</time>
      </trkpt>
      <trkpt lat="47.526401" lon="7.999417">
        <ele>331.298217</ele>
        <time>2021-11-22T09:34:13.988Z</time>
      </trkpt>
      <trkpt lat="47.526401" lon="7.999417">
        <ele>331.298217</ele>
        <time>2021-11-22T09:34:14.100Z</time>
      </trkpt>
      <trkpt lat="47.526084" lon="8.000015">
        <ele>331.291248</ele>
        <time>2021-11-22T09:34:21.741Z</time>
      </trkpt>
      <trkpt lat="47.525162" lon="8.001004">
        <ele>332.022300</ele>
        <time>2021-11-22T09:34:41.742Z</time>
      </trkpt>
      <trkpt lat="47.524855" lon="8.001439">
        <ele>332.295141</ele>
        <time>2021-11-22T09:34:49.845Z</time>
      </trkpt>
      <trkpt lat="47.524655" lon="8.001699">
        <ele>332.453620</ele>
        <time>2021-11-22T09:34:54.705Z</time>
      </trkpt>
      <trkpt lat="47.520570" lon="8.007346">
        <ele>335.249442</ele>
        <time>2021-11-22T09:36:27.585Z</time>
      </trkpt>
      <trkpt lat="47.518886" lon="8.009691">
        <ele>337.167076</ele>
        <time>2021-11-22T09:37:10.222Z</time>
      </trkpt>
      <trkpt lat="47.517842" lon="8.011140">
        <ele>338.311218</ele>
        <time>2021-11-22T09:37:36.445Z</time>
      </trkpt>
      <trkpt lat="47.517559" lon="8.011519">
        <ele>338.554241</ele>
        <time>2021-11-22T09:37:43.137Z</time>
      </trkpt>
      <trkpt lat="47.517220" lon="8.011958">
        <ele>338.841068</ele>
        <time>2021-11-22T09:37:50.776Z</time>
      </trkpt>
      <trkpt lat="47.516968" lon="8.012240">
        <ele>339.042243</ele>
        <time>2021-11-22T09:37:56.006Z</time>
      </trkpt>
      <trkpt lat="47.515686" lon="8.013458">
        <ele>340.227254</ele>
        <time>2021-11-22T09:38:22.447Z</time>
      </trkpt>
      <trkpt lat="47.515654" lon="8.013483">
        <ele>340.256319</ele>
        <time>2021-11-22T09:38:23.230Z</time>
      </trkpt>
      <trkpt lat="47.515613" lon="8.013424">
        <ele>340.302247</ele>
        <time>2021-11-22T09:38:24.375Z</time>
      </trkpt>
      <trkpt lat="47.515541" lon="8.013407">
        <ele>340.360817</ele>
        <time>2021-11-22T09:38:25.736Z</time>
      </trkpt>
      <trkpt lat="47.515502" lon="8.013432">
        <ele>340.394956</ele>
        <time>2021-11-22T09:38:26.650Z</time>
      </trkpt>
      <trkpt lat="47.515475" lon="8.013469">
        <ele>340.424510</ele>
        <time>2021-11-22T09:38:27.324Z</time>
      </trkpt>
      <trkpt lat="47.515457" lon="8.013608">
        <ele>340.501299</ele>
        <time>2021-11-22T09:38:29.053Z</time>
      </trkpt>
      <trkpt lat="47.515468" lon="8.013643">
        <ele>340.522243</ele>
        <time>2021-11-22T09:38:29.511Z</time>
      </trkpt>
      <trkpt lat="47.515263" lon="8.013836">
        <ele>340.773046</ele>
        <time>2021-11-22T09:38:34.421Z</time>
      </trkpt>
      <trkpt lat="47.515054" lon="8.014017">
        <ele>341.098780</ele>
        <time>2021-11-22T09:38:39.162Z</time>
      </trkpt>
      <trkpt lat="47.514746" lon="8.014292">
        <ele>341.582643</ele>
        <time>2021-11-22T09:38:46.365Z</time>
      </trkpt>
      <trkpt lat="47.514628" lon="8.014407">
        <ele>341.772692</ele>
        <time>2021-11-22T09:38:49.249Z</time>
      </trkpt>
      <trkpt lat="47.514464" lon="8.014550">
        <ele>342.028739</ele>
        <time>2021-11-22T09:38:53.143Z</time>
      </trkpt>
      <trkpt lat="47.514162" lon="8.014813">
        <ele>342.500089</ele>
        <time>2021-11-22T09:39:00.165Z</time>
      </trkpt>
      <trkpt lat="47.514036" lon="8.014936">
        <ele>342.703125</ele>
        <time>2021-11-22T09:39:03.451Z</time>
      </trkpt>
      <trkpt lat="47.513919" lon="8.015052">
        <ele>342.892557</ele>
        <time>2021-11-22T09:39:06.337Z</time>
      </trkpt>
      <trkpt lat="47.513872" lon="8.015092">
        <ele>342.965488</ele>
        <time>2021-11-22T09:39:07.401Z</time>
      </trkpt>
      <trkpt lat="47.513615" lon="8.015346">
        <ele>343.279438</ele>
        <time>2021-11-22T09:39:14.023Z</time>
      </trkpt>
      <trkpt lat="47.512943" lon="8.015998">
        <ele>344.023532</ele>
        <time>2021-11-22T09:39:29.826Z</time>
      </trkpt>
      <trkpt lat="47.512748" lon="8.016153">
        <ele>344.228511</ele>
        <time>2021-11-22T09:39:33.679Z</time>
      </trkpt>
      <trkpt lat="47.512572" lon="8.016270">
        <ele>344.407188</ele>
        <time>2021-11-22T09:39:36.853Z</time>
      </trkpt>
      <trkpt lat="47.512292" lon="8.016407">
        <ele>344.680300</ele>
        <time>2021-11-22T09:39:41.821Z</time>
      </trkpt>
      <trkpt lat="47.511937" lon="8.016578">
        <ele>344.721878</ele>
        <time>2021-11-22T09:39:47.771Z</time>
      </trkpt>
      <trkpt lat="47.511835" lon="8.016624">
        <ele>344.722348</ele>
        <time>2021-11-22T09:39:49.264Z</time>
      </trkpt>
      <trkpt lat="47.511079" lon="8.016999">
        <ele>344.725862</ele>
        <time>2021-11-22T09:40:00.855Z</time>
      </trkpt>
      <trkpt lat="47.510624" lon="8.017217">
        <ele>344.727970</ele>
        <time>2021-11-22T09:40:07.482Z</time>
      </trkpt>
      <trkpt lat="47.510117" lon="8.017458">
        <ele>345.120381</ele>
        <time>2021-11-22T09:40:15.164Z</time>
      </trkpt>
      <trkpt lat="47.509872" lon="8.017541">
        <ele>345.341296</ele>
        <time>2021-11-22T09:40:19.239Z</time>
      </trkpt>
      <trkpt lat="47.509728" lon="8.017576">
        <ele>345.469563</ele>
        <time>2021-11-22T09:40:21.986Z</time>
      </trkpt>
      <trkpt lat="47.509637" lon="8.017599">
        <ele>345.550707</ele>
        <time>2021-11-22T09:40:23.716Z</time>
      </trkpt>
      <trkpt lat="47.509596" lon="8.017609">
        <ele>345.587231</ele>
        <time>2021-11-22T09:40:24.452Z</time>
      </trkpt>
      <trkpt lat="47.509437" lon="8.017668">
        <ele>345.731312</ele>
        <time>2021-11-22T09:40:27.377Z</time>
      </trkpt>
      <trkpt lat="47.509338" lon="8.017622">
        <ele>345.822515</ele>
        <time>2021-11-22T09:40:29.691Z</time>
      </trkpt>
      <trkpt lat="47.509074" lon="8.017428">
        <ele>346.081579</ele>
        <time>2021-11-22T09:40:35.683Z</time>
      </trkpt>
      <trkpt lat="47.508854" lon="8.017281">
        <ele>346.293738</ele>
        <time>2021-11-22T09:40:40.898Z</time>
      </trkpt>
      <trkpt lat="47.508730" lon="8.017178">
        <ele>346.627117</ele>
        <time>2021-11-22T09:40:44.177Z</time>
      </trkpt>
      <trkpt lat="47.508497" lon="8.016922">
        <ele>347.368009</ele>
        <time>2021-11-22T09:40:50.817Z</time>
      </trkpt>
      <trkpt lat="47.508354" lon="8.016748">
        <ele>347.840654</ele>
        <time>2021-11-22T09:40:55.718Z</time>
      </trkpt>
      <trkpt lat="47.508279" lon="8.016640">
        <ele>348.107813</ele>
        <time>2021-11-22T09:40:58.190Z</time>
      </trkpt>
      <trkpt lat="47.508091" lon="8.016430">
        <ele>348.709173</ele>
        <time>2021-11-22T09:41:04.611Z</time>
      </trkpt>
      <trkpt lat="47.508068" lon="8.016380">
        <ele>348.813510</ele>
        <time>2021-11-22T09:41:05.811Z</time>
      </trkpt>
      <trkpt lat="47.508111" lon="8.016120">
        <ele>349.275203</ele>
        <time>2021-11-22T09:41:10.130Z</time>
      </trkpt>
      <trkpt lat="47.508171" lon="8.015782">
        <ele>349.877978</ele>
        <time>2021-11-22T09:41:16.664Z</time>
      </trkpt>
      <trkpt lat="47.508213" lon="8.015549">
        <ele>350.293918</ele>
        <time>2021-11-22T09:41:20.918Z</time>
      </trkpt>
      <trkpt lat="47.508270" lon="8.015229">
        <ele>350.864718</ele>
        <time>2021-11-22T09:41:26.839Z</time>
      </trkpt>
      <trkpt lat="47.508285" lon="8.015139">
        <ele>350.983745</ele>
        <time>2021-11-22T09:41:28.264Z</time>
      </trkpt>
      <trkpt lat="47.508294" lon="8.015081">
        <ele>351.052182</ele>
        <time>2021-11-22T09:41:29.318Z</time>
      </trkpt>
      <trkpt lat="47.508337" lon="8.014821">
        <ele>351.360011</ele>
        <time>2021-11-22T09:41:34.469Z</time>
      </trkpt>
      <trkpt lat="47.508352" lon="8.014580">
        <ele>351.638333</ele>
        <time>2021-11-22T09:41:38.338Z</time>
      </trkpt>
      <trkpt lat="47.508333" lon="8.014419">
        <ele>351.826286</ele>
        <time>2021-11-22T09:41:41.277Z</time>
      </trkpt>
      <trkpt lat="47.508281" lon="8.014277">
        <ele>352.012038</ele>
        <time>2021-11-22T09:41:43.971Z</time>
      </trkpt>
      <trkpt lat="47.508214" lon="8.014183">
        <ele>352.169189</ele>
        <time>2021-11-22T09:41:45.884Z</time>
      </trkpt>
      <trkpt lat="47.508075" lon="8.014054">
        <ele>352.448488</ele>
        <time>2021-11-22T09:41:49.759Z</time>
      </trkpt>
      <trkpt lat="47.508011" lon="8.013995">
        <ele>352.576845</ele>
        <time>2021-11-22T09:41:51.383Z</time>
      </trkpt>
      <trkpt lat="47.507595" lon="8.013616">
        <ele>353.408442</ele>
        <time>2021-11-22T09:42:00.766Z</time>
      </trkpt>
      <trkpt lat="47.507559" lon="8.013585">
        <ele>353.479346</ele>
        <time>2021-11-22T09:42:01.517Z</time>
      </trkpt>
      <trkpt lat="47.507231" lon="8.013292">
        <ele>353.947509</ele>
        <time>2021-11-22T09:42:08.209Z</time>
      </trkpt>
      <trkpt lat="47.507191" lon="8.013279">
        <ele>353.940583</ele>
        <time>2021-11-22T09:42:08.891Z</time>
      </trkpt>
      <trkpt lat="47.507106" lon="8.013288">
        <ele>353.926171</ele>
        <time>2021-11-22T09:42:10.366Z</time>
      </trkpt>
      <trkpt lat="47.507084" lon="8.013290">
        <ele>353.922443</ele>
        <time>2021-11-22T09:42:10.657Z</time>
      </trkpt>
      <trkpt lat="47.507038" lon="8.013279">
        <ele>353.914563</ele>
        <time>2021-11-22T09:42:11.358Z</time>
      </trkpt>
      <trkpt lat="47.507007" lon="8.013263">
        <ele>353.909011</ele>
        <time>2021-11-22T09:42:11.811Z</time>
      </trkpt>
      <trkpt lat="47.506989" lon="8.013246">
        <ele>353.905400</ele>
        <time>2021-11-22T09:42:12.124Z</time>
      </trkpt>
      <trkpt lat="47.506955" lon="8.013213">
        <ele>353.898524</ele>
        <time>2021-11-22T09:42:12.733Z</time>
      </trkpt>
      <trkpt lat="47.506929" lon="8.013191">
        <ele>353.893459</ele>
        <time>2021-11-22T09:42:13.209Z</time>
      </trkpt>
      <trkpt lat="47.506890" lon="8.013159">
        <ele>353.885918</ele>
        <time>2021-11-22T09:42:13.860Z</time>
      </trkpt>
      <trkpt lat="47.506825" lon="8.013107">
        <ele>353.873422</ele>
        <time>2021-11-22T09:42:14.884Z</time>
      </trkpt>
      <trkpt lat="47.506760" lon="8.013057">
        <ele>353.861034</ele>
        <time>2021-11-22T09:42:15.888Z</time>
      </trkpt>
      <trkpt lat="47.506697" lon="8.013001">
        <ele>353.848606</ele>
        <time>2021-11-22T09:42:16.892Z</time>
      </trkpt>
      <trkpt lat="47.506663" lon="8.012973">
        <ele>353.842026</ele>
        <time>2021-11-22T09:42:17.464Z</time>
      </trkpt>
      <trkpt lat="47.506633" lon="8.012949">
        <ele>353.836259</ele>
        <time>2021-11-22T09:42:17.960Z</time>
      </trkpt>
      <trkpt lat="47.506533" lon="8.012868">
        <ele>353.816981</ele>
        <time>2021-11-22T09:42:19.485Z</time>
      </trkpt>
      <trkpt lat="47.506492" lon="8.012798">
        <ele>353.806396</ele>
        <time>2021-11-22T09:42:20.367Z</time>
      </trkpt>
      <trkpt lat="47.506472" lon="8.012743">
        <ele>353.799260</ele>
        <time>2021-11-22T09:42:20.878Z</time>
      </trkpt>
      <trkpt lat="47.506389" lon="8.012514">
        <ele>353.769570</ele>
        <time>2021-11-22T09:42:23.126Z</time>
      </trkpt>
      <trkpt lat="47.506346" lon="8.012464">
        <ele>353.760323</ele>
        <time>2021-11-22T09:42:23.848Z</time>
      </trkpt>
      <trkpt lat="47.506308" lon="8.012429">
        <ele>353.752754</ele>
        <time>2021-11-22T09:42:24.431Z</time>
      </trkpt>
      <trkpt lat="47.506101" lon="8.012240">
        <ele>353.711622</ele>
        <time>2021-11-22T09:42:27.505Z</time>
      </trkpt>
      <trkpt lat="47.505808" lon="8.011926">
        <ele>353.722980</ele>
        <time>2021-11-22T09:42:32.132Z</time>
      </trkpt>
      <trkpt lat="47.505388" lon="8.011390">
        <ele>354.345199</ele>
        <time>2021-11-22T09:42:40.801Z</time>
      </trkpt>
      <trkpt lat="47.505237" lon="8.011270">
        <ele>354.537503</ele>
        <time>2021-11-22T09:42:43.783Z</time>
      </trkpt>
      <trkpt lat="47.504446" lon="8.010688">
        <ele>355.528650</ele>
        <time>2021-11-22T09:43:02.759Z</time>
      </trkpt>
      <trkpt lat="47.504256" lon="8.010566">
        <ele>355.866866</ele>
        <time>2021-11-22T09:43:07.852Z</time>
      </trkpt>
      <trkpt lat="47.504178" lon="8.010516">
        <ele>356.084023</ele>
        <time>2021-11-22T09:43:10.053Z</time>
      </trkpt>
      <trkpt lat="47.504018" lon="8.010447">
        <ele>356.509785</ele>
        <time>2021-11-22T09:43:14.943Z</time>
      </trkpt>
      <trkpt lat="47.503467" lon="8.010296">
        <ele>357.941404</ele>
        <time>2021-11-22T09:43:28.781Z</time>
      </trkpt>
      <trkpt lat="47.502991" lon="8.010405">
        <ele>359.171957</ele>
        <time>2021-11-22T09:43:41.332Z</time>
      </trkpt>
      <trkpt lat="47.502959" lon="8.010415">
        <ele>359.255513</ele>
        <time>2021-11-22T09:43:42.940Z</time>
      </trkpt>
      <trkpt lat="47.502773" lon="8.009928">
        <ele>360.221059</ele>
        <time>2021-11-22T09:43:52.733Z</time>
      </trkpt>
      <trkpt lat="47.502542" lon="8.009495">
        <ele>360.766765</ele>
        <time>2021-11-22T09:44:00.924Z</time>
      </trkpt>
      <trkpt lat="47.502428" lon="8.009280">
        <ele>361.025395</ele>
        <time>2021-11-22T09:44:04.401Z</time>
      </trkpt>
      <trkpt lat="47.502298" lon="8.009036">
        <ele>361.319450</ele>
        <time>2021-11-22T09:44:09.272Z</time>
      </trkpt>
      <trkpt lat="47.502267" lon="8.008979">
        <ele>361.388694</ele>
        <time>2021-11-22T09:44:10.215Z</time>
      </trkpt>
      <trkpt lat="47.502158" lon="8.008808">
        <ele>361.611166</ele>
        <time>2021-11-22T09:44:13.062Z</time>
      </trkpt>
      <trkpt lat="47.502158" lon="8.008808">
        <ele>361.611166</ele>
        <time>2021-11-22T09:44:13.111Z</time>
      </trkpt>
      <trkpt lat="47.502062" lon="8.008650">
        <ele>361.812253</ele>
        <time>2021-11-22T09:44:16.464Z</time>
      </trkpt>
      <trkpt lat="47.501943" lon="8.008353">
        <ele>362.139010</ele>
        <time>2021-11-22T09:44:20.718Z</time>
      </trkpt>
      <trkpt lat="47.501537" lon="8.007308">
        <ele>362.977657</ele>
        <time>2021-11-22T09:44:34.929Z</time>
      </trkpt>
      <trkpt lat="47.501496" lon="8.007247">
        <ele>363.008575</ele>
        <time>2021-11-22T09:44:35.982Z</time>
      </trkpt>
      <trkpt lat="47.501293" lon="8.006936">
        <ele>363.163960</ele>
        <time>2021-11-22T09:44:40.824Z</time>
      </trkpt>
      <trkpt lat="47.501276" lon="8.006911">
        <ele>363.176705</ele>
        <time>2021-11-22T09:44:41.200Z</time>
      </trkpt>
      <trkpt lat="47.500997" lon="8.006551">
        <ele>363.373560</ele>
        <time>2021-11-22T09:44:46.945Z</time>
      </trkpt>
      <trkpt lat="47.500764" lon="8.006290">
        <ele>363.528971</ele>
        <time>2021-11-22T09:44:51.428Z</time>
      </trkpt>
      <trkpt lat="47.500647" lon="8.006180">
        <ele>363.602690</ele>
        <time>2021-11-22T09:44:54.585Z</time>
      </trkpt>
      <trkpt lat="47.500540" lon="8.006079">
        <ele>363.670186</ele>
        <time>2021-11-22T09:44:56.254Z</time>
      </trkpt>
      <trkpt lat="47.500310" lon="8.005852">
        <ele>363.891557</ele>
        <time>2021-11-22T09:45:01.248Z</time>
      </trkpt>
      <trkpt lat="47.500252" lon="8.005784">
        <ele>363.974034</ele>
        <time>2021-11-22T09:45:02.414Z</time>
      </trkpt>
      <trkpt lat="47.500207" lon="8.005727">
        <ele>364.040055</ele>
        <time>2021-11-22T09:45:03.303Z</time>
      </trkpt>
      <trkpt lat="47.500009" lon="8.005488">
        <ele>364.324851</ele>
        <time>2021-11-22T09:45:08.240Z</time>
      </trkpt>
      <trkpt lat="47.499991" lon="8.005468">
        <ele>364.349939</ele>
        <time>2021-11-22T09:45:08.599Z</time>
      </trkpt>
      <trkpt lat="47.499880" lon="8.005358">
        <ele>364.498842</ele>
        <time>2021-11-22T09:45:10.986Z</time>
      </trkpt>
      <trkpt lat="47.499856" lon="8.005338">
        <ele>364.529543</ele>
        <time>2021-11-22T09:45:11.475Z</time>
      </trkpt>
      <trkpt lat="47.499770" lon="8.005268">
        <ele>364.638946</ele>
        <time>2021-11-22T09:45:14.227Z</time>
      </trkpt>
      <trkpt lat="47.499523" lon="8.005078">
        <ele>364.949239</ele>
        <time>2021-11-22T09:45:18.958Z</time>
      </trkpt>
      <trkpt lat="47.499496" lon="8.005059">
        <ele>364.982564</ele>
        <time>2021-11-22T09:45:20.305Z</time>
      </trkpt>
      <trkpt lat="47.499409" lon="8.005000">
        <ele>365.089237</ele>
        <time>2021-11-22T09:45:21.763Z</time>
      </trkpt>
      <trkpt lat="47.499183" lon="8.004875">
        <ele>365.358174</ele>
        <time>2021-11-22T09:45:26.326Z</time>
      </trkpt>
      <trkpt lat="47.499012" lon="8.004762">
        <ele>365.566922</ele>
        <time>2021-11-22T09:45:29.996Z</time>
      </trkpt>
      <trkpt lat="47.498965" lon="8.004710">
        <ele>365.632332</ele>
        <time>2021-11-22T09:45:31.159Z</time>
      </trkpt>
      <trkpt lat="47.498898" lon="8.004636">
        <ele>365.725517</ele>
        <time>2021-11-22T09:45:32.820Z</time>
      </trkpt>
      <trkpt lat="47.498753" lon="8.004410">
        <ele>366.081344</ele>
        <time>2021-11-22T09:45:37.307Z</time>
      </trkpt>
      <trkpt lat="47.498698" lon="8.004313">
        <ele>366.232805</ele>
        <time>2021-11-22T09:45:39.202Z</time>
      </trkpt>
      <trkpt lat="47.498450" lon="8.003874">
        <ele>366.917241</ele>
        <time>2021-11-22T09:45:47.996Z</time>
      </trkpt>
      <trkpt lat="47.498213" lon="8.003454">
        <ele>367.571753</ele>
        <time>2021-11-22T09:45:56.189Z</time>
      </trkpt>
      <trkpt lat="47.498166" lon="8.003383">
        <ele>367.690642</ele>
        <time>2021-11-22T09:45:57.618Z</time>
      </trkpt>
      <trkpt lat="47.498072" lon="8.003250">
        <ele>367.920854</ele>
        <time>2021-11-22T09:46:00.365Z</time>
      </trkpt>
      <trkpt lat="47.497951" lon="8.003094">
        <ele>368.204932</ele>
        <time>2021-11-22T09:46:04.200Z</time>
      </trkpt>
      <trkpt lat="47.497607" lon="8.002710">
        <ele>368.966203</ele>
        <time>2021-11-22T09:46:13.601Z</time>
      </trkpt>
      <trkpt lat="47.497540" lon="8.002634">
        <ele>369.107954</ele>
        <time>2021-11-22T09:46:15.459Z</time>
      </trkpt>
      <trkpt lat="47.497390" lon="8.002409">
        <ele>369.466580</ele>
        <time>2021-11-22T09:46:20.195Z</time>
      </trkpt>
      <trkpt lat="47.497307" lon="8.002279">
        <ele>369.669509</ele>
        <time>2021-11-22T09:46:22.776Z</time>
      </trkpt>
      <trkpt lat="47.497264" lon="8.002219">
        <ele>369.768746</ele>
        <time>2021-11-22T09:46:24.319Z</time>
      </trkpt>
      <trkpt lat="47.497207" lon="8.002132">
        <ele>369.906241</ele>
        <time>2021-11-22T09:46:25.947Z</time>
      </trkpt>
      <trkpt lat="47.496932" lon="8.001715">
        <ele>370.567368</ele>
        <time>2021-11-22T09:46:35.062Z</time>
      </trkpt>
      <trkpt lat="47.496908" lon="8.001680">
        <ele>370.623947</ele>
        <time>2021-11-22T09:46:35.807Z</time>
      </trkpt>
      <trkpt lat="47.496861" lon="8.001608">
        <ele>370.737534</ele>
        <time>2021-11-22T09:46:37.319Z</time>
      </trkpt>
      <trkpt lat="47.496820" lon="8.001547">
        <ele>370.835156</ele>
        <time>2021-11-22T09:46:38.634Z</time>
      </trkpt>
      <trkpt lat="47.496585" lon="8.001187">
        <ele>371.403096</ele>
        <time>2021-11-22T09:46:45.734Z</time>
      </trkpt>
      <trkpt lat="47.496535" lon="8.001108">
        <ele>371.525911</ele>
        <time>2021-11-22T09:46:47.293Z</time>
      </trkpt>
      <trkpt lat="47.496533" lon="8.001104">
        <ele>371.531557</ele>
        <time>2021-11-22T09:46:47.366Z</time>
      </trkpt>
      <trkpt lat="47.496517" lon="8.001077">
        <ele>371.572304</ele>
        <time>2021-11-22T09:46:48.166Z</time>
      </trkpt>
      <trkpt lat="47.496429" lon="8.000925">
        <ele>371.799412</ele>
        <time>2021-11-22T09:46:50.496Z</time>
      </trkpt>
      <trkpt lat="47.496280" lon="8.000664">
        <ele>372.046694</ele>
        <time>2021-11-22T09:46:55.358Z</time>
      </trkpt>
      <trkpt lat="47.496272" lon="8.000651">
        <ele>372.054370</ele>
        <time>2021-11-22T09:46:55.569Z</time>
      </trkpt>
      <trkpt lat="47.496234" lon="8.000584">
        <ele>372.092552</ele>
        <time>2021-11-22T09:46:56.459Z</time>
      </trkpt>
      <trkpt lat="47.496011" lon="8.000286">
        <ele>372.286647</ele>
        <time>2021-11-22T09:47:02.153Z</time>
      </trkpt>
      <trkpt lat="47.495718" lon="8.000005">
        <ele>372.512197</ele>
        <time>2021-11-22T09:47:08.309Z</time>
      </trkpt>
      <trkpt lat="47.495430" lon="7.999752">
        <ele>372.728558</ele>
        <time>2021-11-22T09:47:13.833Z</time>
      </trkpt>
      <trkpt lat="47.495197" lon="7.999589">
        <ele>372.895050</ele>
        <time>2021-11-22T09:47:18.021Z</time>
      </trkpt>
      <trkpt lat="47.494812" lon="7.999457">
        <ele>373.146559</ele>
        <time>2021-11-22T09:47:24.229Z</time>
      </trkpt>
      <trkpt lat="47.494643" lon="7.999430">
        <ele>373.242221</ele>
        <time>2021-11-22T09:47:26.878Z</time>
      </trkpt>
      <trkpt lat="47.494489" lon="7.999417">
        <ele>373.329030</ele>
        <time>2021-11-22T09:47:29.025Z</time>
      </trkpt>
      <trkpt lat="47.494272" lon="7.999381">
        <ele>373.451917</ele>
        <time>2021-11-22T09:47:32.229Z</time>
      </trkpt>
      <trkpt lat="47.493961" lon="7.999292">
        <ele>373.630182</ele>
        <time>2021-11-22T09:47:37.158Z</time>
      </trkpt>
      <trkpt lat="47.493937" lon="7.999285">
        <ele>373.643949</ele>
        <time>2021-11-22T09:47:37.700Z</time>
      </trkpt>
      <trkpt lat="47.493742" lon="7.999216">
        <ele>373.756783</ele>
        <time>2021-11-22T09:47:41.001Z</time>
      </trkpt>
      <trkpt lat="47.493603" lon="7.999152">
        <ele>373.838707</ele>
        <time>2021-11-22T09:47:43.663Z</time>
      </trkpt>
      <trkpt lat="47.493502" lon="7.999071">
        <ele>373.903356</ele>
        <time>2021-11-22T09:47:45.742Z</time>
      </trkpt>
      <trkpt lat="47.493433" lon="7.998996">
        <ele>373.951536</ele>
        <time>2021-11-22T09:47:47.176Z</time>
      </trkpt>
      <trkpt lat="47.493358" lon="7.998911">
        <ele>374.004698</ele>
        <time>2021-11-22T09:47:48.821Z</time>
      </trkpt>
      <trkpt lat="47.493296" lon="7.998833">
        <ele>374.050493</ele>
        <time>2021-11-22T09:47:50.562Z</time>
      </trkpt>
      <trkpt lat="47.493144" lon="7.998645">
        <ele>374.234451</ele>
        <time>2021-11-22T09:47:54.119Z</time>
      </trkpt>
      <trkpt lat="47.492877" lon="7.998257">
        <ele>374.974024</ele>
        <time>2021-11-22T09:48:02.520Z</time>
      </trkpt>
      <trkpt lat="47.492747" lon="7.998084">
        <ele>375.319559</ele>
        <time>2021-11-22T09:48:06.573Z</time>
      </trkpt>
      <trkpt lat="47.492722" lon="7.998050">
        <ele>375.386665</ele>
        <time>2021-11-22T09:48:07.236Z</time>
      </trkpt>
      <trkpt lat="47.492617" lon="7.997908">
        <ele>375.667787</ele>
        <time>2021-11-22T09:48:10.622Z</time>
      </trkpt>
      <trkpt lat="47.492477" lon="7.997747">
        <ele>376.018207</ele>
        <time>2021-11-22T09:48:14.664Z</time>
      </trkpt>
      <trkpt lat="47.492317" lon="7.997637">
        <ele>376.366896</ele>
        <time>2021-11-22T09:48:18.954Z</time>
      </trkpt>
      <trkpt lat="47.491886" lon="7.997365">
        <ele>377.292965</ele>
        <time>2021-11-22T09:48:30.004Z</time>
      </trkpt>
      <trkpt lat="47.491854" lon="7.997405">
        <ele>377.375753</ele>
        <time>2021-11-22T09:48:31.260Z</time>
      </trkpt>
      <trkpt lat="47.491748" lon="7.997367">
        <ele>377.591316</ele>
        <time>2021-11-22T09:48:34.323Z</time>
      </trkpt>
      <trkpt lat="47.491680" lon="7.997343">
        <ele>377.731346</ele>
        <time>2021-11-22T09:48:36.867Z</time>
      </trkpt>
      <trkpt lat="47.490780" lon="7.996642">
        <ele>379.831803</ele>
        <time>2021-11-22T09:49:06.325Z</time>
      </trkpt>
      <trkpt lat="47.489284" lon="7.995053">
        <ele>383.371277</ele>
        <time>2021-11-22T09:49:57.300Z</time>
      </trkpt>
      <trkpt lat="47.488959" lon="7.994757">
        <ele>384.066347</ele>
        <time>2021-11-22T09:50:07.743Z</time>
      </trkpt>
      <trkpt lat="47.488246" lon="7.994102">
        <ele>385.369800</ele>
        <time>2021-11-22T09:50:30.470Z</time>
      </trkpt>
      <trkpt lat="47.487633" lon="7.993524">
        <ele>386.368432</ele>
        <time>2021-11-22T09:50:49.302Z</time>
      </trkpt>
      <trkpt lat="47.487213" lon="7.993014">
        <ele>387.114871</ele>
        <time>2021-11-22T09:51:02.647Z</time>
      </trkpt>
      <trkpt lat="47.486781" lon="7.992350">
        <ele>387.708277</ele>
        <time>2021-11-22T09:51:17.393Z</time>
      </trkpt>
      <trkpt lat="47.486383" lon="7.991737">
        <ele>388.245229</ele>
        <time>2021-11-22T09:51:30.988Z</time>
      </trkpt>
      <trkpt lat="47.486334" lon="7.991668">
        <ele>388.308453</ele>
        <time>2021-11-22T09:51:32.555Z</time>
      </trkpt>
      <trkpt lat="47.486260" lon="7.991591">
        <ele>388.393010</ele>
        <time>2021-11-22T09:51:34.850Z</time>
      </trkpt>
      <trkpt lat="47.486129" lon="7.991440">
        <ele>388.548221</ele>
        <time>2021-11-22T09:51:38.681Z</time>
      </trkpt>
      <trkpt lat="47.486063" lon="7.991399">
        <ele>388.615127</ele>
        <time>2021-11-22T09:51:40.325Z</time>
      </trkpt>
      <trkpt lat="47.485991" lon="7.991440">
        <ele>388.687238</ele>
        <time>2021-11-22T09:51:41.775Z</time>
      </trkpt>
      <trkpt lat="47.485898" lon="7.991482">
        <ele>388.778124</ele>
        <time>2021-11-22T09:51:43.708Z</time>
      </trkpt>
      <trkpt lat="47.485635" lon="7.991515">
        <ele>389.074551</ele>
        <time>2021-11-22T09:51:48.438Z</time>
      </trkpt>
      <trkpt lat="47.485528" lon="7.991512">
        <ele>389.200260</ele>
        <time>2021-11-22T09:51:50.720Z</time>
      </trkpt>
      <trkpt lat="47.484597" lon="7.991511">
        <ele>390.293847</ele>
        <time>2021-11-22T09:52:08.813Z</time>
      </trkpt>
      <trkpt lat="47.484196" lon="7.991380">
        <ele>390.776218</ele>
        <time>2021-11-22T09:52:17.062Z</time>
      </trkpt>
      <trkpt lat="47.484004" lon="7.991285">
        <ele>391.030115</ele>
        <time>2021-11-22T09:52:21.303Z</time>
      </trkpt>
      <trkpt lat="47.483794" lon="7.991174">
        <ele>391.352167</ele>
        <time>2021-11-22T09:52:25.565Z</time>
      </trkpt>
      <trkpt lat="47.483302" lon="7.991001">
        <ele>392.082503</ele>
        <time>2021-11-22T09:52:35.792Z</time>
      </trkpt>
      <trkpt lat="47.483009" lon="7.990995">
        <ele>392.505696</ele>
        <time>2021-11-22T09:52:41.726Z</time>
      </trkpt>
      <trkpt lat="47.482872" lon="7.991012">
        <ele>392.704247</ele>
        <time>2021-11-22T09:52:44.825Z</time>
      </trkpt>
      <trkpt lat="47.482259" lon="7.991194">
        <ele>393.612899</ele>
        <time>2021-11-22T09:52:57.897Z</time>
      </trkpt>
      <trkpt lat="47.481732" lon="7.991480">
        <ele>394.494012</ele>
        <time>2021-11-22T09:53:09.921Z</time>
      </trkpt>
      <trkpt lat="47.481496" lon="7.991617">
        <ele>394.891949</ele>
        <time>2021-11-22T09:53:15.449Z</time>
      </trkpt>
      <trkpt lat="47.481096" lon="7.991850">
        <ele>395.566729</ele>
        <time>2021-11-22T09:53:24.370Z</time>
      </trkpt>
      <trkpt lat="47.480657" lon="7.991988">
        <ele>396.271206</ele>
        <time>2021-11-22T09:53:33.601Z</time>
      </trkpt>
      <trkpt lat="47.480402" lon="7.991988">
        <ele>396.653834</ele>
        <time>2021-11-22T09:53:39.241Z</time>
      </trkpt>
      <trkpt lat="47.479254" lon="7.991575">
        <ele>398.401635</ele>
        <time>2021-11-22T09:54:03.394Z</time>
      </trkpt>
      <trkpt lat="47.479179" lon="7.991567">
        <ele>398.512876</ele>
        <time>2021-11-22T09:54:05.018Z</time>
      </trkpt>
      <trkpt lat="47.479142" lon="7.991563">
        <ele>398.567759</ele>
        <time>2021-11-22T09:54:05.737Z</time>
      </trkpt>
      <trkpt lat="47.478975" lon="7.991551">
        <ele>398.815105</ele>
        <time>2021-11-22T09:54:09.114Z</time>
      </trkpt>
      <trkpt lat="47.477593" lon="7.991455">
        <ele>401.319035</ele>
        <time>2021-11-22T09:54:38.399Z</time>
      </trkpt>
      <trkpt lat="47.477212" lon="7.991382">
        <ele>402.028896</ele>
        <time>2021-11-22T09:54:47.134Z</time>
      </trkpt>
      <trkpt lat="47.476858" lon="7.991285">
        <ele>403.188076</ele>
        <time>2021-11-22T09:54:56.011Z</time>
      </trkpt>
      <trkpt lat="47.476495" lon="7.991119">
        <ele>404.895222</ele>
        <time>2021-11-22T09:55:06.565Z</time>
      </trkpt>
      <trkpt lat="47.475752" lon="7.990844">
        <ele>408.336512</ele>
        <time>2021-11-22T09:55:31.941Z</time>
      </trkpt>
      <trkpt lat="47.475384" lon="7.990744">
        <ele>410.017651</ele>
        <time>2021-11-22T09:55:46.197Z</time>
      </trkpt>
      <trkpt lat="47.474869" lon="7.990750">
        <ele>413.498207</ele>
        <time>2021-11-22T09:56:07.808Z</time>
      </trkpt>
      <trkpt lat="47.473566" lon="7.991189">
        <ele>423.187163</ele>
        <time>2021-11-22T09:57:10.126Z</time>
      </trkpt>
      <trkpt lat="47.473097" lon="7.991272">
        <ele>425.376754</ele>
        <time>2021-11-22T09:57:29.179Z</time>
      </trkpt>
      <trkpt lat="47.472796" lon="7.991311">
        <ele>426.705926</ele>
        <time>2021-11-22T09:57:40.394Z</time>
      </trkpt>
      <trkpt lat="47.472461" lon="7.991354">
        <ele>428.185133</ele>
        <time>2021-11-22T09:57:51.279Z</time>
      </trkpt>
      <trkpt lat="47.471790" lon="7.991484">
        <ele>431.162077</ele>
        <time>2021-11-22T09:58:09.401Z</time>
      </trkpt>
      <trkpt lat="47.471617" lon="7.991535">
        <ele>431.472117</ele>
        <time>2021-11-22T09:58:12.949Z</time>
      </trkpt>
      <trkpt lat="47.470749" lon="7.991887">
        <ele>432.104349</ele>
        <time>2021-11-22T09:58:28.167Z</time>
      </trkpt>
      <trkpt lat="47.470033" lon="7.992305">
        <ele>432.645061</ele>
        <time>2021-11-22T09:58:39.819Z</time>
      </trkpt>
      <trkpt lat="47.469747" lon="7.992506">
        <ele>432.836990</ele>
        <time>2021-11-22T09:58:45.091Z</time>
      </trkpt>
      <trkpt lat="47.469362" lon="7.992773">
        <ele>433.094360</ele>
        <time>2021-11-22T09:58:52.554Z</time>
      </trkpt>
      <trkpt lat="47.468375" lon="7.993424">
        <ele>433.758094</ele>
        <time>2021-11-22T09:59:11.577Z</time>
      </trkpt>
      <trkpt lat="47.468089" lon="7.993593">
        <ele>434.085518</ele>
        <time>2021-11-22T09:59:17.246Z</time>
      </trkpt>
      <trkpt lat="47.467721" lon="7.993817">
        <ele>434.508586</ele>
        <time>2021-11-22T09:59:24.420Z</time>
      </trkpt>
      <trkpt lat="47.467579" lon="7.993896">
        <ele>434.669878</ele>
        <time>2021-11-22T09:59:27.015Z</time>
      </trkpt>
      <trkpt lat="47.467154" lon="7.994150">
        <ele>435.157202</ele>
        <time>2021-11-22T09:59:36.172Z</time>
      </trkpt>
      <trkpt lat="47.466146" lon="7.994726">
        <ele>436.344532</ele>
        <time>2021-11-22T09:59:58.010Z</time>
      </trkpt>
      <trkpt lat="47.465905" lon="7.994879">
        <ele>436.639661</ele>
        <time>2021-11-22T10:00:03.526Z</time>
      </trkpt>
      <trkpt lat="47.465772" lon="7.994973">
        <ele>436.805537</ele>
        <time>2021-11-22T10:00:06.694Z</time>
      </trkpt>
      <trkpt lat="47.465613" lon="7.995104">
        <ele>437.010348</ele>
        <time>2021-11-22T10:00:10.083Z</time>
      </trkpt>
      <trkpt lat="47.465230" lon="7.995479">
        <ele>437.527218</ele>
        <time>2021-11-22T10:00:18.530Z</time>
      </trkpt>
      <trkpt lat="47.465119" lon="7.995595">
        <ele>437.672245</ele>
        <time>2021-11-22T10:00:21.222Z</time>
      </trkpt>
      <trkpt lat="47.465105" lon="7.995610">
        <ele>437.672687</ele>
        <time>2021-11-22T10:00:21.396Z</time>
      </trkpt>
      <trkpt lat="47.464249" lon="7.996297">
        <ele>437.697609</ele>
        <time>2021-11-22T10:00:37.123Z</time>
      </trkpt>
      <trkpt lat="47.464131" lon="7.996368">
        <ele>437.700868</ele>
        <time>2021-11-22T10:00:38.774Z</time>
      </trkpt>
      <trkpt lat="47.463691" lon="7.996686">
        <ele>437.713400</ele>
        <time>2021-11-22T10:00:45.141Z</time>
      </trkpt>
      <trkpt lat="47.463326" lon="7.997031">
        <ele>437.788825</ele>
        <time>2021-11-22T10:00:51.148Z</time>
      </trkpt>
      <trkpt lat="47.463107" lon="7.997172">
        <ele>437.856411</ele>
        <time>2021-11-22T10:00:54.330Z</time>
      </trkpt>
      <trkpt lat="47.463019" lon="7.997210">
        <ele>437.882352</ele>
        <time>2021-11-22T10:00:55.761Z</time>
      </trkpt>
      <trkpt lat="47.462705" lon="7.997285">
        <ele>437.972355</ele>
        <time>2021-11-22T10:01:00.775Z</time>
      </trkpt>
      <trkpt lat="47.462598" lon="7.997285">
        <ele>438.002633</ele>
        <time>2021-11-22T10:01:02.607Z</time>
      </trkpt>
      <trkpt lat="47.462350" lon="7.997293">
        <ele>438.072826</ele>
        <time>2021-11-22T10:01:06.873Z</time>
      </trkpt>
      <trkpt lat="47.462299" lon="7.997298">
        <ele>438.087289</ele>
        <time>2021-11-22T10:01:07.912Z</time>
      </trkpt>
      <trkpt lat="47.461927" lon="7.997527">
        <ele>438.201306</ele>
        <time>2021-11-22T10:01:14.770Z</time>
      </trkpt>
      <trkpt lat="47.461552" lon="7.997973">
        <ele>438.738809</ele>
        <time>2021-11-22T10:01:22.980Z</time>
      </trkpt>
      <trkpt lat="47.461502" lon="7.997997">
        <ele>438.807749</ele>
        <time>2021-11-22T10:01:24.398Z</time>
      </trkpt>
      <trkpt lat="47.461438" lon="7.998032">
        <ele>438.897236</ele>
        <time>2021-11-22T10:01:25.655Z</time>
      </trkpt>
      <trkpt lat="47.461284" lon="7.998059">
        <ele>439.100615</ele>
        <time>2021-11-22T10:01:28.688Z</time>
      </trkpt>
      <trkpt lat="47.461149" lon="7.998038">
        <ele>439.278639</ele>
        <time>2021-11-22T10:01:31.713Z</time>
      </trkpt>
      <trkpt lat="47.461062" lon="7.998039">
        <ele>439.392739</ele>
        <time>2021-11-22T10:01:33.332Z</time>
      </trkpt>
      <trkpt lat="47.460985" lon="7.998062">
        <ele>439.495760</ele>
        <time>2021-11-22T10:01:35.230Z</time>
      </trkpt>
      <trkpt lat="47.460942" lon="7.998082">
        <ele>439.554876</ele>
        <time>2021-11-22T10:01:36.093Z</time>
      </trkpt>
      <trkpt lat="47.460924" lon="7.998094">
        <ele>439.580769</ele>
        <time>2021-11-22T10:01:36.428Z</time>
      </trkpt>
      <trkpt lat="47.460857" lon="7.998139">
        <ele>439.677272</ele>
        <time>2021-11-22T10:01:37.729Z</time>
      </trkpt>
      <trkpt lat="47.460836" lon="7.998161">
        <ele>439.711021</ele>
        <time>2021-11-22T10:01:38.483Z</time>
      </trkpt>
      <trkpt lat="47.460660" lon="7.998379">
        <ele>440.012085</ele>
        <time>2021-11-22T10:01:43.210Z</time>
      </trkpt>
      <trkpt lat="47.460488" lon="7.998555">
        <ele>440.286377</ele>
        <time>2021-11-22T10:01:47.808Z</time>
      </trkpt>
      <trkpt lat="47.460218" lon="7.998745">
        <ele>440.741152</ele>
        <time>2021-11-22T10:01:54.056Z</time>
      </trkpt>
      <trkpt lat="47.459934" lon="7.998910">
        <ele>441.412020</ele>
        <time>2021-11-22T10:02:00.439Z</time>
      </trkpt>
      <trkpt lat="47.459866" lon="7.998934">
        <ele>441.565727</ele>
        <time>2021-11-22T10:02:02.274Z</time>
      </trkpt>
      <trkpt lat="47.459773" lon="7.998935">
        <ele>441.770208</ele>
        <time>2021-11-22T10:02:04.443Z</time>
      </trkpt>
      <trkpt lat="47.459283" lon="7.998698">
        <ele>442.903698</ele>
        <time>2021-11-22T10:02:15.861Z</time>
      </trkpt>
      <trkpt lat="47.459205" lon="7.998672">
        <ele>443.079495</ele>
        <time>2021-11-22T10:02:17.784Z</time>
      </trkpt>
      <trkpt lat="47.459150" lon="7.998657">
        <ele>443.202461</ele>
        <time>2021-11-22T10:02:19.323Z</time>
      </trkpt>
      <trkpt lat="47.459032" lon="7.998632">
        <ele>443.464552</ele>
        <time>2021-11-22T10:02:22.115Z</time>
      </trkpt>
      <trkpt lat="47.458630" lon="7.998609">
        <ele>444.349077</ele>
        <time>2021-11-22T10:02:31.529Z</time>
      </trkpt>
      <trkpt lat="47.458509" lon="7.998633">
        <ele>444.657454</ele>
        <time>2021-11-22T10:02:34.704Z</time>
      </trkpt>
      <trkpt lat="47.458410" lon="7.998658">
        <ele>444.992892</ele>
        <time>2021-11-22T10:02:38.202Z</time>
      </trkpt>
      <trkpt lat="47.457243" lon="7.999411">
        <ele>449.245366</ele>
        <time>2021-11-22T10:03:15.002Z</time>
      </trkpt>
      <trkpt lat="47.457133" lon="7.999505">
        <ele>449.669675</ele>
        <time>2021-11-22T10:03:19.942Z</time>
      </trkpt>
      <trkpt lat="47.457107" lon="7.999528">
        <ele>449.770861</ele>
        <time>2021-11-22T10:03:21.000Z</time>
      </trkpt>
      <trkpt lat="47.456363" lon="8.000219">
        <ele>452.327213</ele>
        <time>2021-11-22T10:03:42.289Z</time>
      </trkpt>
      <trkpt lat="47.456267" lon="8.000301">
        <ele>452.632618</ele>
        <time>2021-11-22T10:03:46.887Z</time>
      </trkpt>
      <trkpt lat="47.455740" lon="8.000709">
        <ele>454.271315</ele>
        <time>2021-11-22T10:04:00.975Z</time>
      </trkpt>
      <trkpt lat="47.455049" lon="8.001106">
        <ele>456.369913</ele>
        <time>2021-11-22T10:04:19.546Z</time>
      </trkpt>
      <trkpt lat="47.454570" lon="8.001381">
        <ele>457.883909</ele>
        <time>2021-11-22T10:04:33.269Z</time>
      </trkpt>
      <trkpt lat="47.454148" lon="8.001857">
        <ele>459.447722</ele>
        <time>2021-11-22T10:04:46.532Z</time>
      </trkpt>
      <trkpt lat="47.454027" lon="8.002090">
        <ele>460.033056</ele>
        <time>2021-11-22T10:04:52.207Z</time>
      </trkpt>
      <trkpt lat="47.453983" lon="8.002195">
        <ele>460.279172</ele>
        <time>2021-11-22T10:04:54.539Z</time>
      </trkpt>
      <trkpt lat="47.453932" lon="8.002372">
        <ele>460.662506</ele>
        <time>2021-11-22T10:04:58.101Z</time>
      </trkpt>
      <trkpt lat="47.453903" lon="8.002487">
        <ele>460.934013</ele>
        <time>2021-11-22T10:05:00.656Z</time>
      </trkpt>
      <trkpt lat="47.453815" lon="8.002812">
        <ele>461.811594</ele>
        <time>2021-11-22T10:05:07.659Z</time>
      </trkpt>
      <trkpt lat="47.453556" lon="8.003416">
        <ele>463.604451</ele>
        <time>2021-11-22T10:05:23.119Z</time>
      </trkpt>
      <trkpt lat="47.452892" lon="8.004632">
        <ele>467.523603</ele>
        <time>2021-11-22T10:05:54.657Z</time>
      </trkpt>
      <trkpt lat="47.452809" lon="8.004791">
        <ele>468.037878</ele>
        <time>2021-11-22T10:05:58.670Z</time>
      </trkpt>
      <trkpt lat="47.452707" lon="8.004978">
        <ele>468.653001</ele>
        <time>2021-11-22T10:06:02.586Z</time>
      </trkpt>
      <trkpt lat="47.452632" lon="8.005093">
        <ele>469.062062</ele>
        <time>2021-11-22T10:06:05.466Z</time>
      </trkpt>
      <trkpt lat="47.452544" lon="8.005204">
        <ele>469.499993</ele>
        <time>2021-11-22T10:06:08.598Z</time>
      </trkpt>
      <trkpt lat="47.452429" lon="8.005350">
        <ele>470.073860</ele>
        <time>2021-11-22T10:06:12.438Z</time>
      </trkpt>
      <trkpt lat="47.452304" lon="8.005472">
        <ele>470.640929</ele>
        <time>2021-11-22T10:06:16.855Z</time>
      </trkpt>
      <trkpt lat="47.451940" lon="8.005767">
        <ele>472.212532</ele>
        <time>2021-11-22T10:06:28.847Z</time>
      </trkpt>
      <trkpt lat="47.451777" lon="8.005920">
        <ele>472.943522</ele>
        <time>2021-11-22T10:06:34.575Z</time>
      </trkpt>
      <trkpt lat="47.451704" lon="8.006006">
        <ele>473.296905</ele>
        <time>2021-11-22T10:06:38.008Z</time>
      </trkpt>
      <trkpt lat="47.451459" lon="8.006532">
        <ele>475.290593</ele>
        <time>2021-11-22T10:06:53.112Z</time>
      </trkpt>
      <trkpt lat="47.451374" lon="8.006835">
        <ele>476.592478</ele>
        <time>2021-11-22T10:07:00.531Z</time>
      </trkpt>
      <trkpt lat="47.451223" lon="8.007424">
        <ele>479.092397</ele>
        <time>2021-11-22T10:07:16.118Z</time>
      </trkpt>
      <trkpt lat="47.451152" lon="8.007815">
        <ele>480.699138</ele>
        <time>2021-11-22T10:07:26.467Z</time>
      </trkpt>
      <trkpt lat="47.451125" lon="8.007964">
        <ele>481.311340</ele>
        <time>2021-11-22T10:07:30.825Z</time>
      </trkpt>
      <trkpt lat="47.451025" lon="8.008518">
        <ele>483.586994</ele>
        <time>2021-11-22T10:07:46.439Z</time>
      </trkpt>
      <trkpt lat="47.450739" lon="8.010629">
        <ele>494.163991</ele>
        <time>2021-11-22T10:08:51.147Z</time>
      </trkpt>
      <trkpt lat="47.450620" lon="8.012203">
        <ele>503.445699</ele>
        <time>2021-11-22T10:09:41.282Z</time>
      </trkpt>
      <trkpt lat="47.450695" lon="8.012685">
        <ele>506.763398</ele>
        <time>2021-11-22T10:09:57.026Z</time>
      </trkpt>
      <trkpt lat="47.450792" lon="8.012931">
        <ele>508.673582</ele>
        <time>2021-11-22T10:10:07.382Z</time>
      </trkpt>
      <trkpt lat="47.451318" lon="8.013628">
        <ele>515.679561</ele>
        <time>2021-11-22T10:10:51.161Z</time>
      </trkpt>
      <trkpt lat="47.451629" lon="8.014256">
        <ele>522.184115</ele>
        <time>2021-11-22T10:11:25.098Z</time>
      </trkpt>
      <trkpt lat="47.451647" lon="8.014819">
        <ele>526.991650</ele>
        <time>2021-11-22T10:11:53.457Z</time>
      </trkpt>
      <trkpt lat="47.451482" lon="8.015245">
        <ele>531.179120</ele>
        <time>2021-11-22T10:12:12.295Z</time>
      </trkpt>
      <trkpt lat="47.451445" lon="8.015298">
        <ele>531.828879</ele>
        <time>2021-11-22T10:12:17.933Z</time>
      </trkpt>
      <trkpt lat="47.451437" lon="8.015310">
        <ele>531.972614</ele>
        <time>2021-11-22T10:12:19.222Z</time>
      </trkpt>
      <trkpt lat="47.451269" lon="8.015462">
        <ele>534.456884</ele>
        <time>2021-11-22T10:12:27.148Z</time>
      </trkpt>
      <trkpt lat="47.450380" lon="8.015953">
        <ele>544.357974</ele>
        <time>2021-11-22T10:13:27.192Z</time>
      </trkpt>
      <trkpt lat="47.449870" lon="8.016383">
        <ele>549.737236</ele>
        <time>2021-11-22T10:13:56.412Z</time>
      </trkpt>
      <trkpt lat="47.449594" lon="8.016517">
        <ele>552.399003</ele>
        <time>2021-11-22T10:14:07.462Z</time>
      </trkpt>
      <trkpt lat="47.449353" lon="8.016588">
        <ele>554.650652</ele>
        <time>2021-11-22T10:14:18.500Z</time>
      </trkpt>
      <trkpt lat="47.449199" lon="8.016667">
        <ele>555.961024</ele>
        <time>2021-11-22T10:14:25.412Z</time>
      </trkpt>
      <trkpt lat="47.449073" lon="8.016786">
        <ele>557.017010</ele>
        <time>2021-11-22T10:14:31.806Z</time>
      </trkpt>
      <trkpt lat="47.448981" lon="8.016904">
        <ele>557.877200</ele>
        <time>2021-11-22T10:14:37.151Z</time>
      </trkpt>
      <trkpt lat="47.448929" lon="8.016978">
        <ele>558.386937</ele>
        <time>2021-11-22T10:14:40.106Z</time>
      </trkpt>
      <trkpt lat="47.448801" lon="8.017178">
        <ele>559.702217</ele>
        <time>2021-11-22T10:14:48.227Z</time>
      </trkpt>
      <trkpt lat="47.448431" lon="8.017568">
        <ele>562.911563</ele>
        <time>2021-11-22T10:15:07.286Z</time>
      </trkpt>
      <trkpt lat="47.448305" lon="8.017672">
        <ele>563.930778</ele>
        <time>2021-11-22T10:15:14.783Z</time>
      </trkpt>
      <trkpt lat="47.448218" lon="8.017755">
        <ele>564.662065</ele>
        <time>2021-11-22T10:15:18.521Z</time>
      </trkpt>
      <trkpt lat="47.448127" lon="8.017842">
        <ele>565.427452</ele>
        <time>2021-11-22T10:15:23.189Z</time>
      </trkpt>
      <trkpt lat="47.447917" lon="8.018256">
        <ele>567.899406</ele>
        <time>2021-11-22T10:15:38.178Z</time>
      </trkpt>
      <trkpt lat="47.447791" lon="8.018721">
        <ele>570.221403</ele>
        <time>2021-11-22T10:15:53.270Z</time>
      </trkpt>
      <trkpt lat="47.447593" lon="8.019200">
        <ele>572.818355</ele>
        <time>2021-11-22T10:16:08.787Z</time>
      </trkpt>
      <trkpt lat="47.447512" lon="8.019351">
        <ele>573.709934</ele>
        <time>2021-11-22T10:16:15.671Z</time>
      </trkpt>
      <trkpt lat="47.447432" lon="8.019478">
        <ele>574.512807</ele>
        <time>2021-11-22T10:16:19.601Z</time>
      </trkpt>
      <trkpt lat="47.446940" lon="8.020031">
        <ele>578.740152</ele>
        <time>2021-11-22T10:16:45.328Z</time>
      </trkpt>
      <trkpt lat="47.446778" lon="8.020358">
        <ele>580.610577</ele>
        <time>2021-11-22T10:16:56.302Z</time>
      </trkpt>
      <trkpt lat="47.446723" lon="8.020643">
        <ele>581.956952</ele>
        <time>2021-11-22T10:17:04.815Z</time>
      </trkpt>
      <trkpt lat="47.446606" lon="8.022220">
        <ele>589.163910</ele>
        <time>2021-11-22T10:17:50.854Z</time>
      </trkpt>
      <trkpt lat="47.446477" lon="8.022664">
        <ele>591.359175</ele>
        <time>2021-11-22T10:18:04.797Z</time>
      </trkpt>
      <trkpt lat="47.446349" lon="8.022919">
        <ele>592.652710</ele>
        <time>2021-11-22T10:18:13.621Z</time>
      </trkpt>
      <trkpt lat="47.446154" lon="8.023202">
        <ele>593.743223</ele>
        <time>2021-11-22T10:18:24.162Z</time>
      </trkpt>
      <trkpt lat="47.445885" lon="8.023440">
        <ele>594.994371</ele>
        <time>2021-11-22T10:18:35.100Z</time>
      </trkpt>
      <trkpt lat="47.445182" lon="8.023668">
        <ele>597.866884</ele>
        <time>2021-11-22T10:18:55.556Z</time>
      </trkpt>
      <trkpt lat="47.445020" lon="8.023772">
        <ele>598.571769</ele>
        <time>2021-11-22T10:18:59.724Z</time>
      </trkpt>
      <trkpt lat="47.444482" lon="8.024455">
        <ele>601.331054</ele>
        <time>2021-11-22T10:19:16.210Z</time>
      </trkpt>
      <trkpt lat="47.444181" lon="8.025029">
        <ele>603.213985</ele>
        <time>2021-11-22T10:19:29.007Z</time>
      </trkpt>
      <trkpt lat="47.444086" lon="8.025459">
        <ele>604.386685</ele>
        <time>2021-11-22T10:19:37.878Z</time>
      </trkpt>
      <trkpt lat="47.444094" lon="8.025849">
        <ele>605.398184</ele>
        <time>2021-11-22T10:19:46.304Z</time>
      </trkpt>
      <trkpt lat="47.444190" lon="8.026300">
        <ele>606.752018</ele>
        <time>2021-11-22T10:19:57.569Z</time>
      </trkpt>
      <trkpt lat="47.444535" lon="8.027371">
        <ele>613.216006</ele>
        <time>2021-11-22T10:20:37.034Z</time>
      </trkpt>
      <trkpt lat="47.444596" lon="8.027836">
        <ele>615.796980</ele>
        <time>2021-11-22T10:20:51.417Z</time>
      </trkpt>
      <trkpt lat="47.444512" lon="8.028362">
        <ele>618.741934</ele>
        <time>2021-11-22T10:21:10.038Z</time>
      </trkpt>
      <trkpt lat="47.444390" lon="8.028577">
        <ele>620.271196</ele>
        <time>2021-11-22T10:21:16.596Z</time>
      </trkpt>
      <trkpt lat="47.444252" lon="8.028702">
        <ele>621.638581</ele>
        <time>2021-11-22T10:21:27.441Z</time>
      </trkpt>
      <trkpt lat="47.444200" lon="8.028735">
        <ele>622.144757</ele>
        <time>2021-11-22T10:21:33.452Z</time>
      </trkpt>
      <trkpt lat="47.444130" lon="8.028762">
        <ele>622.791867</ele>
        <time>2021-11-22T10:21:36.247Z</time>
      </trkpt>
      <trkpt lat="47.444103" lon="8.028769">
        <ele>623.037068</ele>
        <time>2021-11-22T10:21:37.316Z</time>
      </trkpt>
      <trkpt lat="47.444082" lon="8.028771">
        <ele>623.225304</ele>
        <time>2021-11-22T10:21:37.501Z</time>
      </trkpt>
      <trkpt lat="47.443829" lon="8.028756">
        <ele>625.490228</ele>
        <time>2021-11-22T10:21:57.042Z</time>
      </trkpt>
      <trkpt lat="47.443354" lon="8.028536">
        <ele>629.942716</ele>
        <time>2021-11-22T10:22:18.395Z</time>
      </trkpt>
      <trkpt lat="47.442522" lon="8.027842">
        <ele>638.152718</ele>
        <time>2021-11-22T10:23:11.293Z</time>
      </trkpt>
      <trkpt lat="47.442237" lon="8.027604">
        <ele>640.379889</ele>
        <time>2021-11-22T10:23:22.520Z</time>
      </trkpt>
      <trkpt lat="47.441755" lon="8.027353">
        <ele>643.857061</ele>
        <time>2021-11-22T10:23:43.403Z</time>
      </trkpt>
      <trkpt lat="47.441109" lon="8.027297">
        <ele>648.260227</ele>
        <time>2021-11-22T10:24:10.490Z</time>
      </trkpt>
      <trkpt lat="47.440647" lon="8.027439">
        <ele>650.941606</ele>
        <time>2021-11-22T10:24:28.236Z</time>
      </trkpt>
      <trkpt lat="47.440263" lon="8.027666">
        <ele>653.060788</ele>
        <time>2021-11-22T10:24:42.026Z</time>
      </trkpt>
      <trkpt lat="47.439363" lon="8.028350">
        <ele>658.246286</ele>
        <time>2021-11-22T10:25:16.261Z</time>
      </trkpt>
      <trkpt lat="47.439279" lon="8.028420">
        <ele>658.755536</ele>
        <time>2021-11-22T10:25:19.903Z</time>
      </trkpt>
      <trkpt lat="47.438761" lon="8.028824">
        <ele>661.987493</ele>
        <time>2021-11-22T10:25:40.815Z</time>
      </trkpt>
      <trkpt lat="47.437975" lon="8.029310">
        <ele>666.689118</ele>
        <time>2021-11-22T10:26:13.764Z</time>
      </trkpt>
      <trkpt lat="47.436857" lon="8.029750">
        <ele>670.266599</ele>
        <time>2021-11-22T10:26:55.661Z</time>
      </trkpt>
      <trkpt lat="47.436763" lon="8.029782">
        <ele>670.474378</ele>
        <time>2021-11-22T10:26:59.001Z</time>
      </trkpt>
      <trkpt lat="47.436700" lon="8.029803">
        <ele>670.613489</ele>
        <time>2021-11-22T10:27:01.512Z</time>
      </trkpt>
      <trkpt lat="47.436042" lon="8.030035">
        <ele>672.070597</ele>
        <time>2021-11-22T10:27:11.818Z</time>
      </trkpt>
      <trkpt lat="47.435896" lon="8.030060">
        <ele>672.136152</ele>
        <time>2021-11-22T10:27:15.399Z</time>
      </trkpt>
      <trkpt lat="47.435481" lon="8.030087">
        <ele>667.857918</ele>
        <time>2021-11-22T10:27:19.176Z</time>
      </trkpt>
      <trkpt lat="47.435436" lon="8.030087">
        <ele>667.394462</ele>
        <time>2021-11-22T10:27:19.550Z</time>
      </trkpt>
      <trkpt lat="47.434990" lon="8.030088">
        <ele>662.801090</ele>
        <time>2021-11-22T10:27:23.437Z</time>
      </trkpt>
      <trkpt lat="47.434275" lon="8.030088">
        <ele>655.437285</ele>
        <time>2021-11-22T10:27:29.428Z</time>
      </trkpt>
      <trkpt lat="47.434167" lon="8.030147">
        <ele>654.251474</ele>
        <time>2021-11-22T10:27:30.385Z</time>
      </trkpt>
      <trkpt lat="47.434108" lon="8.030185">
        <ele>653.484178</ele>
        <time>2021-11-22T10:27:30.913Z</time>
      </trkpt>
      <trkpt lat="47.433829" lon="8.030548">
        <ele>647.923616</ele>
        <time>2021-11-22T10:27:33.977Z</time>
      </trkpt>
      <trkpt lat="47.433660" lon="8.031143">
        <ele>641.392669</ele>
        <time>2021-11-22T10:27:37.634Z</time>
      </trkpt>
      <trkpt lat="47.433547" lon="8.032532">
        <ele>627.234080</ele>
        <time>2021-11-22T10:27:45.456Z</time>
      </trkpt>
      <trkpt lat="47.433630" lon="8.033110">
        <ele>622.592950</ele>
        <time>2021-11-22T10:27:48.855Z</time>
      </trkpt>
      <trkpt lat="47.433692" lon="8.033363">
        <ele>620.514338</ele>
        <time>2021-11-22T10:27:50.420Z</time>
      </trkpt>
      <trkpt lat="47.433704" lon="8.033446">
        <ele>619.858718</ele>
        <time>2021-11-22T10:27:50.886Z</time>
      </trkpt>
      <trkpt lat="47.433695" lon="8.033652">
        <ele>618.264141</ele>
        <time>2021-11-22T10:27:52.104Z</time>
      </trkpt>
      <trkpt lat="47.433621" lon="8.033768">
        <ele>617.032478</ele>
        <time>2021-11-22T10:27:53.033Z</time>
      </trkpt>
      <trkpt lat="47.433485" lon="8.033776">
        <ele>615.478211</ele>
        <time>2021-11-22T10:27:54.168Z</time>
      </trkpt>
      <trkpt lat="47.433381" lon="8.033653">
        <ele>613.957297</ele>
        <time>2021-11-22T10:27:55.333Z</time>
      </trkpt>
      <trkpt lat="47.432764" lon="8.031627">
        <ele>597.207283</ele>
        <time>2021-11-22T10:28:08.282Z</time>
      </trkpt>
      <trkpt lat="47.432675" lon="8.031189">
        <ele>593.826892</ele>
        <time>2021-11-22T10:28:10.926Z</time>
      </trkpt>
      <trkpt lat="47.432631" lon="8.030656">
        <ele>589.857981</ele>
        <time>2021-11-22T10:28:14.003Z</time>
      </trkpt>
      <trkpt lat="47.432542" lon="8.030469">
        <ele>588.167934</ele>
        <time>2021-11-22T10:28:15.321Z</time>
      </trkpt>
      <trkpt lat="47.432467" lon="8.030406">
        <ele>587.225359</ele>
        <time>2021-11-22T10:28:16.061Z</time>
      </trkpt>
      <trkpt lat="47.432409" lon="8.030404">
        <ele>586.557884</ele>
        <time>2021-11-22T10:28:16.535Z</time>
      </trkpt>
      <trkpt lat="47.432234" lon="8.030524">
        <ele>583.885323</ele>
        <time>2021-11-22T10:28:18.164Z</time>
      </trkpt>
      <trkpt lat="47.432157" lon="8.030749">
        <ele>581.522225</ele>
        <time>2021-11-22T10:28:19.596Z</time>
      </trkpt>
      <trkpt lat="47.432133" lon="8.030906">
        <ele>580.013776</ele>
        <time>2021-11-22T10:28:20.502Z</time>
      </trkpt>
      <trkpt lat="47.432025" lon="8.031663">
        <ele>572.763368</ele>
        <time>2021-11-22T10:28:24.896Z</time>
      </trkpt>
      <trkpt lat="47.431924" lon="8.032307">
        <ele>566.567929</ele>
        <time>2021-11-22T10:28:28.604Z</time>
      </trkpt>
      <trkpt lat="47.431773" lon="8.032676">
        <ele>562.526264</ele>
        <time>2021-11-22T10:28:31.027Z</time>
      </trkpt>
      <trkpt lat="47.430470" lon="8.034052">
        <ele>539.580988</ele>
        <time>2021-11-22T10:28:44.354Z</time>
      </trkpt>
      <trkpt lat="47.430169" lon="8.034362">
        <ele>535.110652</ele>
        <time>2021-11-22T10:28:47.486Z</time>
      </trkpt>
      <trkpt lat="47.430089" lon="8.034453">
        <ele>534.346038</ele>
        <time>2021-11-22T10:28:48.341Z</time>
      </trkpt>
      <trkpt lat="47.429784" lon="8.034795">
        <ele>531.446303</ele>
        <time>2021-11-22T10:28:51.636Z</time>
      </trkpt>
      <trkpt lat="47.429735" lon="8.034851">
        <ele>530.977154</ele>
        <time>2021-11-22T10:28:58.486Z</time>
      </trkpt>
      <trkpt lat="47.429183" lon="8.035457">
        <ele>525.768969</ele>
        <time>2021-11-22T10:29:04.369Z</time>
      </trkpt>
      <trkpt lat="47.429108" lon="8.035534">
        <ele>525.077290</ele>
        <time>2021-11-22T10:29:08.770Z</time>
      </trkpt>
      <trkpt lat="47.428937" lon="8.035687">
        <ele>523.563229</ele>
        <time>2021-11-22T10:29:10.418Z</time>
      </trkpt>
      <trkpt lat="47.428589" lon="8.035948">
        <ele>521.851727</ele>
        <time>2021-11-22T10:29:21.892Z</time>
      </trkpt>
      <trkpt lat="47.428425" lon="8.036042">
        <ele>521.458463</ele>
        <time>2021-11-22T10:29:33.819Z</time>
      </trkpt>
      <trkpt lat="47.428173" lon="8.036125">
        <ele>520.881235</ele>
        <time>2021-11-22T10:29:36.420Z</time>
      </trkpt>
      <trkpt lat="47.428073" lon="8.036147">
        <ele>520.655196</ele>
        <time>2021-11-22T10:29:37.408Z</time>
      </trkpt>
      <trkpt lat="47.427488" lon="8.036131">
        <ele>519.347054</ele>
        <time>2021-11-22T10:29:43.551Z</time>
      </trkpt>
      <trkpt lat="47.427288" lon="8.036127">
        <ele>518.899861</ele>
        <time>2021-11-22T10:29:45.408Z</time>
      </trkpt>
      <trkpt lat="47.426959" lon="8.036087">
        <ele>517.716660</ele>
        <time>2021-11-22T10:29:48.612Z</time>
      </trkpt>
      <trkpt lat="47.426739" lon="8.036025">
        <ele>516.040806</ele>
        <time>2021-11-22T10:29:50.881Z</time>
      </trkpt>
      <trkpt lat="47.426081" lon="8.035824">
        <ele>511.013123</ele>
        <time>2021-11-22T10:29:57.085Z</time>
      </trkpt>
      <trkpt lat="47.426010" lon="8.035820">
        <ele>510.481463</ele>
        <time>2021-11-22T10:29:57.682Z</time>
      </trkpt>
      <trkpt lat="47.425906" lon="8.035815">
        <ele>509.702847</ele>
        <time>2021-11-22T10:29:58.629Z</time>
      </trkpt>
      <trkpt lat="47.425277" lon="8.035886">
        <ele>504.982503</ele>
        <time>2021-11-22T10:30:04.028Z</time>
      </trkpt>
      <trkpt lat="47.425112" lon="8.035869">
        <ele>502.953314</ele>
        <time>2021-11-22T10:30:05.465Z</time>
      </trkpt>
      <trkpt lat="47.425031" lon="8.035847">
        <ele>501.912115</ele>
        <time>2021-11-22T10:30:06.177Z</time>
      </trkpt>
      <trkpt lat="47.424864" lon="8.035811">
        <ele>499.778458</ele>
        <time>2021-11-22T10:30:07.598Z</time>
      </trkpt>
      <trkpt lat="47.424719" lon="8.035799">
        <ele>497.942404</ele>
        <time>2021-11-22T10:30:08.842Z</time>
      </trkpt>
      <trkpt lat="47.424613" lon="8.035824">
        <ele>496.585331</ele>
        <time>2021-11-22T10:30:09.732Z</time>
      </trkpt>
      <trkpt lat="47.424388" lon="8.035926">
        <ele>493.609949</ele>
        <time>2021-11-22T10:30:11.685Z</time>
      </trkpt>
      <trkpt lat="47.424082" lon="8.036169">
        <ele>489.218291</ele>
        <time>2021-11-22T10:30:14.592Z</time>
      </trkpt>
      <trkpt lat="47.423560" lon="8.036763">
        <ele>480.980548</ele>
        <time>2021-11-22T10:30:20.135Z</time>
      </trkpt>
      <trkpt lat="47.423448" lon="8.036933">
        <ele>479.097067</ele>
        <time>2021-11-22T10:30:21.486Z</time>
      </trkpt>
      <trkpt lat="47.423244" lon="8.037267">
        <ele>475.525371</ele>
        <time>2021-11-22T10:30:24.064Z</time>
      </trkpt>
      <trkpt lat="47.422905" lon="8.037963">
        <ele>468.718011</ele>
        <time>2021-11-22T10:30:28.970Z</time>
      </trkpt>
      <trkpt lat="47.422868" lon="8.038042">
        <ele>467.955338</ele>
        <time>2021-11-22T10:30:29.532Z</time>
      </trkpt>
      <trkpt lat="47.422730" lon="8.038382">
        <ele>464.808107</ele>
        <time>2021-11-22T10:30:31.783Z</time>
      </trkpt>
      <trkpt lat="47.422474" lon="8.038973">
        <ele>459.738311</ele>
        <time>2021-11-22T10:30:35.838Z</time>
      </trkpt>
      <trkpt lat="47.422435" lon="8.039041">
        <ele>459.226016</ele>
        <time>2021-11-22T10:30:36.346Z</time>
      </trkpt>
      <trkpt lat="47.422173" lon="8.039494">
        <ele>455.801161</ele>
        <time>2021-11-22T10:30:39.944Z</time>
      </trkpt>
      <trkpt lat="47.422065" lon="8.039680">
        <ele>454.392584</ele>
        <time>2021-11-22T10:30:41.393Z</time>
      </trkpt>
      <trkpt lat="47.421926" lon="8.039862">
        <ele>452.815278</ele>
        <time>2021-11-22T10:30:43.075Z</time>
      </trkpt>
      <trkpt lat="47.421857" lon="8.039952">
        <ele>452.033612</ele>
        <time>2021-11-22T10:30:43.885Z</time>
      </trkpt>
      <trkpt lat="47.421614" lon="8.040268">
        <ele>449.284420</ele>
        <time>2021-11-22T10:30:46.750Z</time>
      </trkpt>
      <trkpt lat="47.421515" lon="8.040542">
        <ele>447.499303</ele>
        <time>2021-11-22T10:30:48.593Z</time>
      </trkpt>
      <trkpt lat="47.421369" lon="8.040943">
        <ele>445.069737</ele>
        <time>2021-11-22T10:30:51.286Z</time>
      </trkpt>
      <trkpt lat="47.421212" lon="8.041305">
        <ele>443.118203</ele>
        <time>2021-11-22T10:30:53.914Z</time>
      </trkpt>
      <trkpt lat="47.421194" lon="8.041345">
        <ele>442.900173</ele>
        <time>2021-11-22T10:30:54.182Z</time>
      </trkpt>
      <trkpt lat="47.421132" lon="8.041487">
        <ele>442.133149</ele>
        <time>2021-11-22T10:30:55.255Z</time>
      </trkpt>
      <trkpt lat="47.420713" lon="8.042016">
        <ele>438.436647</ele>
        <time>2021-11-22T10:31:00.233Z</time>
      </trkpt>
      <trkpt lat="47.420686" lon="8.042054">
        <ele>438.186551</ele>
        <time>2021-11-22T10:31:00.543Z</time>
      </trkpt>
      <trkpt lat="47.420610" lon="8.042144">
        <ele>437.533286</ele>
        <time>2021-11-22T10:31:01.403Z</time>
      </trkpt>
      <trkpt lat="47.420398" lon="8.042394">
        <ele>435.714003</ele>
        <time>2021-11-22T10:31:03.929Z</time>
      </trkpt>
      <trkpt lat="47.420118" lon="8.042829">
        <ele>433.247628</ele>
        <time>2021-11-22T10:31:07.695Z</time>
      </trkpt>
      <trkpt lat="47.420109" lon="8.042846">
        <ele>433.184873</ele>
        <time>2021-11-22T10:31:07.828Z</time>
      </trkpt>
      <trkpt lat="47.419963" lon="8.043060">
        <ele>432.301331</ele>
        <time>2021-11-22T10:31:10.002Z</time>
      </trkpt>
      <trkpt lat="47.419839" lon="8.043244">
        <ele>431.546311</ele>
        <time>2021-11-22T10:31:11.579Z</time>
      </trkpt>
      <trkpt lat="47.419549" lon="8.043696">
        <ele>429.735336</ele>
        <time>2021-11-22T10:31:15.603Z</time>
      </trkpt>
      <trkpt lat="47.419418" lon="8.043891">
        <ele>428.936428</ele>
        <time>2021-11-22T10:31:17.471Z</time>
      </trkpt>
      <trkpt lat="47.419290" lon="8.044087">
        <ele>428.144458</ele>
        <time>2021-11-22T10:31:19.205Z</time>
      </trkpt>
      <trkpt lat="47.419003" lon="8.044708">
        <ele>425.970784</ele>
        <time>2021-11-22T10:31:24.408Z</time>
      </trkpt>
      <trkpt lat="47.418931" lon="8.044951">
        <ele>425.645989</ele>
        <time>2021-11-22T10:31:26.101Z</time>
      </trkpt>
      <trkpt lat="47.418751" lon="8.045723">
        <ele>424.646237</ele>
        <time>2021-11-22T10:31:32.181Z</time>
      </trkpt>
      <trkpt lat="47.418700" lon="8.045929">
        <ele>424.377664</ele>
        <time>2021-11-22T10:31:33.679Z</time>
      </trkpt>
      <trkpt lat="47.418443" lon="8.046572">
        <ele>423.463304</ele>
        <time>2021-11-22T10:31:39.411Z</time>
      </trkpt>
      <trkpt lat="47.418416" lon="8.046623">
        <ele>423.384019</ele>
        <time>2021-11-22T10:31:39.869Z</time>
      </trkpt>
      <trkpt lat="47.418380" lon="8.046691">
        <ele>423.278306</ele>
        <time>2021-11-22T10:31:40.479Z</time>
      </trkpt>
      <trkpt lat="47.418150" lon="8.046912">
        <ele>422.781893</ele>
        <time>2021-11-22T10:31:44.063Z</time>
      </trkpt>
      <trkpt lat="47.418081" lon="8.046958">
        <ele>422.869440</ele>
        <time>2021-11-22T10:31:44.970Z</time>
      </trkpt>
      <trkpt lat="47.417974" lon="8.047018">
        <ele>423.239794</ele>
        <time>2021-11-22T10:31:46.856Z</time>
      </trkpt>
      <trkpt lat="47.417855" lon="8.047064">
        <ele>423.637851</ele>
        <time>2021-11-22T10:31:49.614Z</time>
      </trkpt>
      <trkpt lat="47.417795" lon="8.047088">
        <ele>423.839005</ele>
        <time>2021-11-22T10:31:50.757Z</time>
      </trkpt>
      <trkpt lat="47.417655" lon="8.047116">
        <ele>424.296195</ele>
        <time>2021-11-22T10:31:53.626Z</time>
      </trkpt>
      <trkpt lat="47.417615" lon="8.047155">
        <ele>424.451274</ele>
        <time>2021-11-22T10:31:54.748Z</time>
      </trkpt>
      <trkpt lat="47.417590" lon="8.047205">
        <ele>424.587409</ele>
        <time>2021-11-22T10:31:55.632Z</time>
      </trkpt>
      <trkpt lat="47.417594" lon="8.047260">
        <ele>424.708538</ele>
        <time>2021-11-22T10:31:57.171Z</time>
      </trkpt>
      <trkpt lat="47.417617" lon="8.047332">
        <ele>424.882885</ele>
        <time>2021-11-22T10:31:58.566Z</time>
      </trkpt>
      <trkpt lat="47.418123" lon="8.047882">
        <ele>426.915574</ele>
        <time>2021-11-22T10:32:16.538Z</time>
      </trkpt>
      <trkpt lat="47.418193" lon="8.047958">
        <ele>427.196663</ele>
        <time>2021-11-22T10:32:19.972Z</time>
      </trkpt>
      <trkpt lat="47.418393" lon="8.048179">
        <ele>428.004802</ele>
        <time>2021-11-22T10:32:29.096Z</time>
      </trkpt>
      <trkpt lat="47.418715" lon="8.048536">
        <ele>429.763709</ele>
        <time>2021-11-22T10:32:45.645Z</time>
      </trkpt>
      <trkpt lat="47.419429" lon="8.049326">
        <ele>434.379770</ele>
        <time>2021-11-22T10:33:20.683Z</time>
      </trkpt>
      <trkpt lat="47.419619" lon="8.049537">
        <ele>435.609760</ele>
        <time>2021-11-22T10:33:30.977Z</time>
      </trkpt>
      <trkpt lat="47.420012" lon="8.049972">
        <ele>438.051297</ele>
        <time>2021-11-22T10:33:41.896Z</time>
      </trkpt>
      <trkpt lat="47.420508" lon="8.050508">
        <ele>440.161758</ele>
        <time>2021-11-22T10:34:00.861Z</time>
      </trkpt>
      <trkpt lat="47.420568" lon="8.050577">
        <ele>440.422880</ele>
        <time>2021-11-22T10:34:01.574Z</time>
      </trkpt>
      <trkpt lat="47.421406" lon="8.051509">
        <ele>444.025102</ele>
        <time>2021-11-22T10:34:33.103Z</time>
      </trkpt>
      <trkpt lat="47.421741" lon="8.051883">
        <ele>446.597885</ele>
        <time>2021-11-22T10:34:45.121Z</time>
      </trkpt>
      <trkpt lat="47.421847" lon="8.051993">
        <ele>447.393440</ele>
        <time>2021-11-22T10:34:49.486Z</time>
      </trkpt>
      <trkpt lat="47.421955" lon="8.052114">
        <ele>448.225871</ele>
        <time>2021-11-22T10:34:54.633Z</time>
      </trkpt>
      <trkpt lat="47.422217" lon="8.052415">
        <ele>450.264171</ele>
        <time>2021-11-22T10:35:07.158Z</time>
      </trkpt>
      <trkpt lat="47.422377" lon="8.052651">
        <ele>451.652622</ele>
        <time>2021-11-22T10:35:16.527Z</time>
      </trkpt>
      <trkpt lat="47.422431" lon="8.052751">
        <ele>452.184345</ele>
        <time>2021-11-22T10:35:21.204Z</time>
      </trkpt>
      <trkpt lat="47.422513" lon="8.052957">
        <ele>453.177626</ele>
        <time>2021-11-22T10:35:27.694Z</time>
      </trkpt>
      <trkpt lat="47.422643" lon="8.053514">
        <ele>456.013827</ele>
        <time>2021-11-22T10:35:48.216Z</time>
      </trkpt>
      <trkpt lat="47.422615" lon="8.054334">
        <ele>461.849357</ele>
        <time>2021-11-22T10:36:15.884Z</time>
      </trkpt>
      <trkpt lat="47.422615" lon="8.054564">
        <ele>463.484072</ele>
        <time>2021-11-22T10:36:23.627Z</time>
      </trkpt>
      <trkpt lat="47.422640" lon="8.054788">
        <ele>465.097657</ele>
        <time>2021-11-22T10:36:32.691Z</time>
      </trkpt>
      <trkpt lat="47.422843" lon="8.055226">
        <ele>468.871072</ele>
        <time>2021-11-22T10:36:53.656Z</time>
      </trkpt>
      <trkpt lat="47.422879" lon="8.055332">
        <ele>469.714048</ele>
        <time>2021-11-22T10:36:58.892Z</time>
      </trkpt>
      <trkpt lat="47.422870" lon="8.055395">
        <ele>470.171688</ele>
        <time>2021-11-22T10:37:01.466Z</time>
      </trkpt>
      <trkpt lat="47.422875" lon="8.055459">
        <ele>470.629586</ele>
        <time>2021-11-22T10:37:03.324Z</time>
      </trkpt>
      <trkpt lat="47.422895" lon="8.055516">
        <ele>471.085947</ele>
        <time>2021-11-22T10:37:06.410Z</time>
      </trkpt>
      <trkpt lat="47.422925" lon="8.055556">
        <ele>471.510379</ele>
        <time>2021-11-22T10:37:09.344Z</time>
      </trkpt>
      <trkpt lat="47.423040" lon="8.055573">
        <ele>472.724468</ele>
        <time>2021-11-22T10:37:16.509Z</time>
      </trkpt>
      <trkpt lat="47.423116" lon="8.055382">
        <ele>474.362551</ele>
        <time>2021-11-22T10:37:26.170Z</time>
      </trkpt>
      <trkpt lat="47.423105" lon="8.055325">
        <ele>474.865974</ele>
        <time>2021-11-22T10:37:29.162Z</time>
      </trkpt>
      <trkpt lat="47.423711" lon="8.055037">
        <ele>482.856806</ele>
        <time>2021-11-22T10:38:15.429Z</time>
      </trkpt>
      <trkpt lat="47.424368" lon="8.054668">
        <ele>491.679637</ele>
        <time>2021-11-22T10:39:01.554Z</time>
      </trkpt>
      <trkpt lat="47.424669" lon="8.054420">
        <ele>496.005556</ele>
        <time>2021-11-22T10:39:21.883Z</time>
      </trkpt>
      <trkpt lat="47.424943" lon="8.054141">
        <ele>498.956972</ele>
        <time>2021-11-22T10:39:41.606Z</time>
      </trkpt>
      <trkpt lat="47.425153" lon="8.053972">
        <ele>500.944875</ele>
        <time>2021-11-22T10:39:54.867Z</time>
      </trkpt>
      <trkpt lat="47.425386" lon="8.053857">
        <ele>502.987134</ele>
        <time>2021-11-22T10:40:08.287Z</time>
      </trkpt>
      <trkpt lat="47.425993" lon="8.053794">
        <ele>508.046035</ele>
        <time>2021-11-22T10:40:35.551Z</time>
      </trkpt>
      <trkpt lat="47.426076" lon="8.053783">
        <ele>508.738849</ele>
        <time>2021-11-22T10:40:39.852Z</time>
      </trkpt>
      <trkpt lat="47.426253" lon="8.053723">
        <ele>510.248593</ele>
        <time>2021-11-22T10:40:45.534Z</time>
      </trkpt>
      <trkpt lat="47.427063" lon="8.053089">
        <ele>515.475925</ele>
        <time>2021-11-22T10:41:18.514Z</time>
      </trkpt>
      <trkpt lat="47.427251" lon="8.053032">
        <ele>516.471303</ele>
        <time>2021-11-22T10:41:23.275Z</time>
      </trkpt>
      <trkpt lat="47.428009" lon="8.053094">
        <ele>520.408747</ele>
        <time>2021-11-22T10:41:50.538Z</time>
      </trkpt>
      <trkpt lat="47.428920" lon="8.053075">
        <ele>526.859148</ele>
        <time>2021-11-22T10:42:25.667Z</time>
      </trkpt>
      <trkpt lat="47.428995" lon="8.053069">
        <ele>527.405062</ele>
        <time>2021-11-22T10:42:33.613Z</time>
      </trkpt>
      <trkpt lat="47.429301" lon="8.053034">
        <ele>529.635787</ele>
        <time>2021-11-22T10:42:45.348Z</time>
      </trkpt>
      <trkpt lat="47.429398" lon="8.053003">
        <ele>530.357093</ele>
        <time>2021-11-22T10:42:50.102Z</time>
      </trkpt>
      <trkpt lat="47.429874" lon="8.052772">
        <ele>534.000203</ele>
        <time>2021-11-22T10:43:13.077Z</time>
      </trkpt>
      <trkpt lat="47.429977" lon="8.052686">
        <ele>534.876993</ele>
        <time>2021-11-22T10:43:19.362Z</time>
      </trkpt>
      <trkpt lat="47.430068" lon="8.052606">
        <ele>535.661740</ele>
        <time>2021-11-22T10:43:25.050Z</time>
      </trkpt>
      <trkpt lat="47.430875" lon="8.051671">
        <ele>543.261452</ele>
        <time>2021-11-22T10:44:11.193Z</time>
      </trkpt>
      <trkpt lat="47.431259" lon="8.051470">
        <ele>546.280782</ele>
        <time>2021-11-22T10:44:30.751Z</time>
      </trkpt>
      <trkpt lat="47.431340" lon="8.051455">
        <ele>546.885838</ele>
        <time>2021-11-22T10:44:34.527Z</time>
      </trkpt>
      <trkpt lat="47.431460" lon="8.051423">
        <ele>547.730987</ele>
        <time>2021-11-22T10:44:38.027Z</time>
      </trkpt>
      <trkpt lat="47.431625" lon="8.051403">
        <ele>548.827001</ele>
        <time>2021-11-22T10:44:43.340Z</time>
      </trkpt>
      <trkpt lat="47.431736" lon="8.051401">
        <ele>549.561908</ele>
        <time>2021-11-22T10:44:47.747Z</time>
      </trkpt>
      <trkpt lat="47.432266" lon="8.051392">
        <ele>553.070893</ele>
        <time>2021-11-22T10:45:06.414Z</time>
      </trkpt>
      <trkpt lat="47.432475" lon="8.051388">
        <ele>554.454650</ele>
        <time>2021-11-22T10:45:16.335Z</time>
      </trkpt>
      <trkpt lat="47.432929" lon="8.051465">
        <ele>557.479978</ele>
        <time>2021-11-22T10:45:34.679Z</time>
      </trkpt>
      <trkpt lat="47.433090" lon="8.051571">
        <ele>558.646774</ele>
        <time>2021-11-22T10:45:42.888Z</time>
      </trkpt>
      <trkpt lat="47.433326" lon="8.051878">
        <ele>561.581590</ele>
        <time>2021-11-22T10:45:56.412Z</time>
      </trkpt>
      <trkpt lat="47.433349" lon="8.051934">
        <ele>562.033518</ele>
        <time>2021-11-22T10:46:00.044Z</time>
      </trkpt>
      <trkpt lat="47.433423" lon="8.052113">
        <ele>563.480629</ele>
        <time>2021-11-22T10:46:07.311Z</time>
      </trkpt>
      <trkpt lat="47.433500" lon="8.052504">
        <ele>566.289790</ele>
        <time>2021-11-22T10:46:22.301Z</time>
      </trkpt>
      <trkpt lat="47.433503" lon="8.052851">
        <ele>568.683650</ele>
        <time>2021-11-22T10:46:33.814Z</time>
      </trkpt>
      <trkpt lat="47.433537" lon="8.055038">
        <ele>585.067624</ele>
        <time>2021-11-22T10:48:06.250Z</time>
      </trkpt>
      <trkpt lat="47.433514" lon="8.055631">
        <ele>590.008510</ele>
        <time>2021-11-22T10:48:32.791Z</time>
      </trkpt>
      <trkpt lat="47.433469" lon="8.056182">
        <ele>594.625210</ele>
        <time>2021-11-22T10:48:57.210Z</time>
      </trkpt>
      <trkpt lat="47.433449" lon="8.056416">
        <ele>596.587183</ele>
        <time>2021-11-22T10:49:07.248Z</time>
      </trkpt>
      <trkpt lat="47.433418" lon="8.056776">
        <ele>599.605962</ele>
        <time>2021-11-22T10:49:24.223Z</time>
      </trkpt>
      <trkpt lat="47.433418" lon="8.057379">
        <ele>604.209843</ele>
        <time>2021-11-22T10:49:49.925Z</time>
      </trkpt>
      <trkpt lat="47.433488" lon="8.058124">
        <ele>609.952251</ele>
        <time>2021-11-22T10:50:19.379Z</time>
      </trkpt>
      <trkpt lat="47.433597" lon="8.058949">
        <ele>616.369828</ele>
        <time>2021-11-22T10:50:54.064Z</time>
      </trkpt>
      <trkpt lat="47.433610" lon="8.059053">
        <ele>617.177270</ele>
        <time>2021-11-22T10:50:59.260Z</time>
      </trkpt>
      <trkpt lat="47.433732" lon="8.059869">
        <ele>623.251433</ele>
        <time>2021-11-22T10:51:28.034Z</time>
      </trkpt>
      <trkpt lat="47.433818" lon="8.060443">
        <ele>627.363459</ele>
        <time>2021-11-22T10:51:52.266Z</time>
      </trkpt>
      <trkpt lat="47.433730" lon="8.060519">
        <ele>628.417258</ele>
        <time>2021-11-22T10:52:01.254Z</time>
      </trkpt>
      <trkpt lat="47.433691" lon="8.060591">
        <ele>629.062406</ele>
        <time>2021-11-22T10:52:03.737Z</time>
      </trkpt>
      <trkpt lat="47.433563" lon="8.061773">
        <ele>637.434959</ele>
        <time>2021-11-22T10:52:47.536Z</time>
      </trkpt>
      <trkpt lat="47.433539" lon="8.061973">
        <ele>638.735174</ele>
        <time>2021-11-22T10:52:56.494Z</time>
      </trkpt>
      <trkpt lat="47.433432" lon="8.063843">
        <ele>647.335648</ele>
        <time>2021-11-22T10:53:55.279Z</time>
      </trkpt>
      <trkpt lat="47.433334" lon="8.064796">
        <ele>651.025789</ele>
        <time>2021-11-22T10:54:14.598Z</time>
      </trkpt>
      <trkpt lat="47.433334" lon="8.064968">
        <ele>651.273845</ele>
        <time>2021-11-22T10:54:17.060Z</time>
      </trkpt>
      <trkpt lat="47.433401" lon="8.065135">
        <ele>651.553864</ele>
        <time>2021-11-22T10:54:18.793Z</time>
      </trkpt>
      <trkpt lat="47.433554" lon="8.065256">
        <ele>651.923804</ele>
        <time>2021-11-22T10:54:23.862Z</time>
      </trkpt>
      <trkpt lat="47.433766" lon="8.065315">
        <ele>652.383727</ele>
        <time>2021-11-22T10:54:27.644Z</time>
      </trkpt>
      <trkpt lat="47.434017" lon="8.065303">
        <ele>652.919139</ele>
        <time>2021-11-22T10:54:33.725Z</time>
      </trkpt>
      <trkpt lat="47.434745" lon="8.065087">
        <ele>654.502186</ele>
        <time>2021-11-22T10:54:50.655Z</time>
      </trkpt>
      <trkpt lat="47.434794" lon="8.065101">
        <ele>654.473711</ele>
        <time>2021-11-22T10:54:51.148Z</time>
      </trkpt>
      <trkpt lat="47.434850" lon="8.065142">
        <ele>654.388191</ele>
        <time>2021-11-22T10:54:54.037Z</time>
      </trkpt>
      <trkpt lat="47.435011" lon="8.065633">
        <ele>653.883082</ele>
        <time>2021-11-22T10:55:00.907Z</time>
      </trkpt>
      <trkpt lat="47.435134" lon="8.066208">
        <ele>653.324822</ele>
        <time>2021-11-22T10:55:05.763Z</time>
      </trkpt>
      <trkpt lat="47.435171" lon="8.066354">
        <ele>653.180496</ele>
        <time>2021-11-22T10:55:06.811Z</time>
      </trkpt>
      <trkpt lat="47.435246" lon="8.066744">
        <ele>652.805166</ele>
        <time>2021-11-22T10:55:10.038Z</time>
      </trkpt>
      <trkpt lat="47.435269" lon="8.066847">
        <ele>652.704758</ele>
        <time>2021-11-22T10:55:10.730Z</time>
      </trkpt>
      <trkpt lat="47.435328" lon="8.067121">
        <ele>652.438575</ele>
        <time>2021-11-22T10:55:12.899Z</time>
      </trkpt>
      <trkpt lat="47.435431" lon="8.067627">
        <ele>651.576422</ele>
        <time>2021-11-22T10:55:16.530Z</time>
      </trkpt>
      <trkpt lat="47.435503" lon="8.067966">
        <ele>650.185637</ele>
        <time>2021-11-22T10:55:18.776Z</time>
      </trkpt>
      <trkpt lat="47.435676" lon="8.068459">
        <ele>648.011725</ele>
        <time>2021-11-22T10:55:22.247Z</time>
      </trkpt>
      <trkpt lat="47.436622" lon="8.069777">
        <ele>640.324536</ele>
        <time>2021-11-22T10:55:34.007Z</time>
      </trkpt>
      <trkpt lat="47.436652" lon="8.069782">
        <ele>640.125107</ele>
        <time>2021-11-22T10:55:34.256Z</time>
      </trkpt>
      <trkpt lat="47.436686" lon="8.069773">
        <ele>639.896938</ele>
        <time>2021-11-22T10:55:36.163Z</time>
      </trkpt>
      <trkpt lat="47.437121" lon="8.068991">
        <ele>635.373007</ele>
        <time>2021-11-22T10:55:42.384Z</time>
      </trkpt>
      <trkpt lat="47.437380" lon="8.068624">
        <ele>633.003163</ele>
        <time>2021-11-22T10:55:45.665Z</time>
      </trkpt>
      <trkpt lat="47.437549" lon="8.068492">
        <ele>631.740562</ele>
        <time>2021-11-22T10:55:47.559Z</time>
      </trkpt>
      <trkpt lat="47.437876" lon="8.068472">
        <ele>629.506633</ele>
        <time>2021-11-22T10:55:50.515Z</time>
      </trkpt>
      <trkpt lat="47.438250" lon="8.068552">
        <ele>626.097159</ele>
        <time>2021-11-22T10:55:53.788Z</time>
      </trkpt>
      <trkpt lat="47.438419" lon="8.068754">
        <ele>624.136420</ele>
        <time>2021-11-22T10:55:55.649Z</time>
      </trkpt>
      <trkpt lat="47.438641" lon="8.069393">
        <ele>619.752594</ele>
        <time>2021-11-22T10:55:59.867Z</time>
      </trkpt>
      <trkpt lat="47.438715" lon="8.070016">
        <ele>615.892562</ele>
        <time>2021-11-22T10:56:03.589Z</time>
      </trkpt>
      <trkpt lat="47.438717" lon="8.070139">
        <ele>615.141739</ele>
        <time>2021-11-22T10:56:04.275Z</time>
      </trkpt>
      <trkpt lat="47.438717" lon="8.070261">
        <ele>614.397236</ele>
        <time>2021-11-22T10:56:05.022Z</time>
      </trkpt>
      <trkpt lat="47.438717" lon="8.070432">
        <ele>613.371324</ele>
        <time>2021-11-22T10:56:06.051Z</time>
      </trkpt>
      <trkpt lat="47.438733" lon="8.071591">
        <ele>606.940048</ele>
        <time>2021-11-22T10:56:12.870Z</time>
      </trkpt>
      <trkpt lat="47.438761" lon="8.072680">
        <ele>600.894098</ele>
        <time>2021-11-22T10:56:19.363Z</time>
      </trkpt>
      <trkpt lat="47.438769" lon="8.073159">
        <ele>598.353681</ele>
        <time>2021-11-22T10:56:22.365Z</time>
      </trkpt>
      <trkpt lat="47.438802" lon="8.076162">
        <ele>585.491422</ele>
        <time>2021-11-22T10:56:40.817Z</time>
      </trkpt>
      <trkpt lat="47.438808" lon="8.076440">
        <ele>584.452935</ele>
        <time>2021-11-22T10:56:42.541Z</time>
      </trkpt>
      <trkpt lat="47.438854" lon="8.077729">
        <ele>579.633549</ele>
        <time>2021-11-22T10:56:50.728Z</time>
      </trkpt>
      <trkpt lat="47.438862" lon="8.078789">
        <ele>575.651342</ele>
        <time>2021-11-22T10:56:57.423Z</time>
      </trkpt>
      <trkpt lat="47.438840" lon="8.079017">
        <ele>574.777962</ele>
        <time>2021-11-22T10:56:58.929Z</time>
      </trkpt>
      <trkpt lat="47.438811" lon="8.079350">
        <ele>573.504728</ele>
        <time>2021-11-22T10:57:01.063Z</time>
      </trkpt>
      <trkpt lat="47.438733" lon="8.079954">
        <ele>571.172850</ele>
        <time>2021-11-22T10:57:04.982Z</time>
      </trkpt>
      <trkpt lat="47.438632" lon="8.080671">
        <ele>568.395478</ele>
        <time>2021-11-22T10:57:09.519Z</time>
      </trkpt>
      <trkpt lat="47.438547" lon="8.081275">
        <ele>565.777771</ele>
        <time>2021-11-22T10:57:13.326Z</time>
      </trkpt>
      <trkpt lat="47.438436" lon="8.082004">
        <ele>562.216551</ele>
        <time>2021-11-22T10:57:17.845Z</time>
      </trkpt>
      <trkpt lat="47.438326" lon="8.082717">
        <ele>558.731249</ele>
        <time>2021-11-22T10:57:22.232Z</time>
      </trkpt>
      <trkpt lat="47.438173" lon="8.083781">
        <ele>553.652331</ele>
        <time>2021-11-22T10:57:28.853Z</time>
      </trkpt>
      <trkpt lat="47.438164" lon="8.083842">
        <ele>553.388860</ele>
        <time>2021-11-22T10:57:29.231Z</time>
      </trkpt>
      <trkpt lat="47.438112" lon="8.083945">
        <ele>552.846477</ele>
        <time>2021-11-22T10:57:29.994Z</time>
      </trkpt>
      <trkpt lat="47.438031" lon="8.083992">
        <ele>552.303590</ele>
        <time>2021-11-22T10:57:30.782Z</time>
      </trkpt>
      <trkpt lat="47.437975" lon="8.083964">
        <ele>551.934767</ele>
        <time>2021-11-22T10:57:31.323Z</time>
      </trkpt>
      <trkpt lat="47.437860" lon="8.083715">
        <ele>550.662400</ele>
        <time>2021-11-22T10:57:33.188Z</time>
      </trkpt>
      <trkpt lat="47.437557" lon="8.082140">
        <ele>543.752284</ele>
        <time>2021-11-22T10:57:43.359Z</time>
      </trkpt>
      <trkpt lat="47.437503" lon="8.081856">
        <ele>542.519632</ele>
        <time>2021-11-22T10:57:45.129Z</time>
      </trkpt>
      <trkpt lat="47.437387" lon="8.081264">
        <ele>539.962027</ele>
        <time>2021-11-22T10:57:49.111Z</time>
      </trkpt>
      <trkpt lat="47.437258" lon="8.080640">
        <ele>537.254388</ele>
        <time>2021-11-22T10:57:53.251Z</time>
      </trkpt>
      <trkpt lat="47.437232" lon="8.080595">
        <ele>537.008800</ele>
        <time>2021-11-22T10:57:53.608Z</time>
      </trkpt>
      <trkpt lat="47.437191" lon="8.080569">
        <ele>536.735103</ele>
        <time>2021-11-22T10:57:54.014Z</time>
      </trkpt>
      <trkpt lat="47.437125" lon="8.080553">
        <ele>536.324788</ele>
        <time>2021-11-22T10:57:54.630Z</time>
      </trkpt>
      <trkpt lat="47.437072" lon="8.080572">
        <ele>535.990211</ele>
        <time>2021-11-22T10:57:55.090Z</time>
      </trkpt>
      <trkpt lat="47.436947" lon="8.080755">
        <ele>534.910965</ele>
        <time>2021-11-22T10:57:56.770Z</time>
      </trkpt>
      <trkpt lat="47.436847" lon="8.080902">
        <ele>534.045813</ele>
        <time>2021-11-22T10:57:58.028Z</time>
      </trkpt>
      <trkpt lat="47.436780" lon="8.081213">
        <ele>532.691374</ele>
        <time>2021-11-22T10:58:00.024Z</time>
      </trkpt>
      <trkpt lat="47.436742" lon="8.083751">
        <ele>519.658972</ele>
        <time>2021-11-22T10:58:15.283Z</time>
      </trkpt>
      <trkpt lat="47.436840" lon="8.084846">
        <ele>513.744882</ele>
        <time>2021-11-22T10:58:21.846Z</time>
      </trkpt>
      <trkpt lat="47.436921" lon="8.085388">
        <ele>510.746596</ele>
        <time>2021-11-22T10:58:25.149Z</time>
      </trkpt>
      <trkpt lat="47.437083" lon="8.086303">
        <ele>505.637615</ele>
        <time>2021-11-22T10:58:30.804Z</time>
      </trkpt>
      <trkpt lat="47.437206" lon="8.087000">
        <ele>502.085014</ele>
        <time>2021-11-22T10:58:35.134Z</time>
      </trkpt>
      <trkpt lat="47.437526" lon="8.088839">
        <ele>493.321990</ele>
        <time>2021-11-22T10:58:46.768Z</time>
      </trkpt>
      <trkpt lat="47.437566" lon="8.089464">
        <ele>490.416942</ele>
        <time>2021-11-22T10:58:50.613Z</time>
      </trkpt>
      <trkpt lat="47.437543" lon="8.090167">
        <ele>487.150241</ele>
        <time>2021-11-22T10:58:54.943Z</time>
      </trkpt>
      <trkpt lat="47.437512" lon="8.090475">
        <ele>485.704958</ele>
        <time>2021-11-22T10:58:56.826Z</time>
      </trkpt>
      <trkpt lat="47.437449" lon="8.091081">
        <ele>482.859253</ele>
        <time>2021-11-22T10:59:00.566Z</time>
      </trkpt>
      <trkpt lat="47.437327" lon="8.092095">
        <ele>478.188985</ele>
        <time>2021-11-22T10:59:06.779Z</time>
      </trkpt>
      <trkpt lat="47.436956" lon="8.093402">
        <ele>472.135622</ele>
        <time>2021-11-22T10:59:15.473Z</time>
      </trkpt>
      <trkpt lat="47.436880" lon="8.093951">
        <ele>469.742412</ele>
        <time>2021-11-22T10:59:18.981Z</time>
      </trkpt>
      <trkpt lat="47.436840" lon="8.094305">
        <ele>468.209635</ele>
        <time>2021-11-22T10:59:21.232Z</time>
      </trkpt>
      <trkpt lat="47.436605" lon="8.095337">
        <ele>464.469434</ele>
        <time>2021-11-22T10:59:28.111Z</time>
      </trkpt>
      <trkpt lat="47.436535" lon="8.095602">
        <ele>463.498030</ele>
        <time>2021-11-22T10:59:29.896Z</time>
      </trkpt>
      <trkpt lat="47.436422" lon="8.096087">
        <ele>461.746486</ele>
        <time>2021-11-22T10:59:33.206Z</time>
      </trkpt>
      <trkpt lat="47.436349" lon="8.096291">
        <ele>460.958446</ele>
        <time>2021-11-22T10:59:34.758Z</time>
      </trkpt>
      <trkpt lat="47.436266" lon="8.096607">
        <ele>459.800952</ele>
        <time>2021-11-22T10:59:36.893Z</time>
      </trkpt>
      <trkpt lat="47.436208" lon="8.096829">
        <ele>458.993520</ele>
        <time>2021-11-22T10:59:38.523Z</time>
      </trkpt>
      <trkpt lat="47.436163" lon="8.097026">
        <ele>458.400276</ele>
        <time>2021-11-22T10:59:39.792Z</time>
      </trkpt>
      <trkpt lat="47.436091" lon="8.097832">
        <ele>456.080716</ele>
        <time>2021-11-22T10:59:45.074Z</time>
      </trkpt>
      <trkpt lat="47.436131" lon="8.098445">
        <ele>454.323650</ele>
        <time>2021-11-22T10:59:49.145Z</time>
      </trkpt>
      <trkpt lat="47.436142" lon="8.098546">
        <ele>454.031776</ele>
        <time>2021-11-22T10:59:49.763Z</time>
      </trkpt>
      <trkpt lat="47.436150" lon="8.098616">
        <ele>453.829229</ele>
        <time>2021-11-22T10:59:50.202Z</time>
      </trkpt>
      <trkpt lat="47.436248" lon="8.099120">
        <ele>452.333038</ele>
        <time>2021-11-22T10:59:53.676Z</time>
      </trkpt>
      <trkpt lat="47.436315" lon="8.099419">
        <ele>451.434373</ele>
        <time>2021-11-22T10:59:55.979Z</time>
      </trkpt>
      <trkpt lat="47.436383" lon="8.099657">
        <ele>450.877834</ele>
        <time>2021-11-22T10:59:57.648Z</time>
      </trkpt>
      <trkpt lat="47.436476" lon="8.099978">
        <ele>450.125998</ele>
        <time>2021-11-22T11:00:00.176Z</time>
      </trkpt>
      <trkpt lat="47.436585" lon="8.100263">
        <ele>449.421105</ele>
        <time>2021-11-22T11:00:02.357Z</time>
      </trkpt>
      <trkpt lat="47.436647" lon="8.100422">
        <ele>449.025972</ele>
        <time>2021-11-22T11:00:03.705Z</time>
      </trkpt>
      <trkpt lat="47.436711" lon="8.100563">
        <ele>448.660387</ele>
        <time>2021-11-22T11:00:04.762Z</time>
      </trkpt>
      <trkpt lat="47.437205" lon="8.101657">
        <ele>445.828420</ele>
        <time>2021-11-22T11:00:14.020Z</time>
      </trkpt>
      <trkpt lat="47.437641" lon="8.102393">
        <ele>443.744542</ele>
        <time>2021-11-22T11:00:20.805Z</time>
      </trkpt>
      <trkpt lat="47.437770" lon="8.102600">
        <ele>443.145428</ele>
        <time>2021-11-22T11:00:22.702Z</time>
      </trkpt>
      <trkpt lat="47.437904" lon="8.102800">
        <ele>442.546219</ele>
        <time>2021-11-22T11:00:24.744Z</time>
      </trkpt>
      <trkpt lat="47.438112" lon="8.103073">
        <ele>441.670937</ele>
        <time>2021-11-22T11:00:27.517Z</time>
      </trkpt>
      <trkpt lat="47.438137" lon="8.103139">
        <ele>441.509924</ele>
        <time>2021-11-22T11:00:28.061Z</time>
      </trkpt>
      <trkpt lat="47.438152" lon="8.103203">
        <ele>441.365750</ele>
        <time>2021-11-22T11:00:28.534Z</time>
      </trkpt>
      <trkpt lat="47.438169" lon="8.103294">
        <ele>441.164801</ele>
        <time>2021-11-22T11:00:29.156Z</time>
      </trkpt>
      <trkpt lat="47.438182" lon="8.103370">
        <ele>440.997940</ele>
        <time>2021-11-22T11:00:29.692Z</time>
      </trkpt>
      <trkpt lat="47.438218" lon="8.103493">
        <ele>440.712669</ele>
        <time>2021-11-22T11:00:30.563Z</time>
      </trkpt>
      <trkpt lat="47.438319" lon="8.103594">
        <ele>440.328951</ele>
        <time>2021-11-22T11:00:31.880Z</time>
      </trkpt>
      <trkpt lat="47.438435" lon="8.103708">
        <ele>439.902595</ele>
        <time>2021-11-22T11:00:33.232Z</time>
      </trkpt>
      <trkpt lat="47.438510" lon="8.103795">
        <ele>439.625438</ele>
        <time>2021-11-22T11:00:34.142Z</time>
      </trkpt>
      <trkpt lat="47.438624" lon="8.103965">
        <ele>439.154684</ele>
        <time>2021-11-22T11:00:35.829Z</time>
      </trkpt>
      <trkpt lat="47.438636" lon="8.104004">
        <ele>439.070429</ele>
        <time>2021-11-22T11:00:36.106Z</time>
      </trkpt>
      <trkpt lat="47.438698" lon="8.104222">
        <ele>438.605383</ele>
        <time>2021-11-22T11:00:37.665Z</time>
      </trkpt>
      <trkpt lat="47.438764" lon="8.104599">
        <ele>437.839594</ele>
        <time>2021-11-22T11:00:40.425Z</time>
      </trkpt>
      <trkpt lat="47.438760" lon="8.104786">
        <ele>437.471680</ele>
        <time>2021-11-22T11:00:41.689Z</time>
      </trkpt>
      <trkpt lat="47.438736" lon="8.105033">
        <ele>436.980976</ele>
        <time>2021-11-22T11:00:43.493Z</time>
      </trkpt>
      <trkpt lat="47.438700" lon="8.105458">
        <ele>436.138697</ele>
        <time>2021-11-22T11:00:46.565Z</time>
      </trkpt>
      <trkpt lat="47.438707" lon="8.105651">
        <ele>435.758623</ele>
        <time>2021-11-22T11:00:47.988Z</time>
      </trkpt>
      <trkpt lat="47.438729" lon="8.105870">
        <ele>435.323242</ele>
        <time>2021-11-22T11:00:49.547Z</time>
      </trkpt>
      <trkpt lat="47.438752" lon="8.106005">
        <ele>435.049477</ele>
        <time>2021-11-22T11:00:50.612Z</time>
      </trkpt>
      <trkpt lat="47.438818" lon="8.106296">
        <ele>434.473921</ele>
        <time>2021-11-22T11:00:52.713Z</time>
      </trkpt>
      <trkpt lat="47.438874" lon="8.106523">
        <ele>434.034464</ele>
        <time>2021-11-22T11:00:54.480Z</time>
      </trkpt>
      <trkpt lat="47.438899" lon="8.106626">
        <ele>433.835437</ele>
        <time>2021-11-22T11:00:55.279Z</time>
      </trkpt>
      <trkpt lat="47.438974" lon="8.106907">
        <ele>433.286021</ele>
        <time>2021-11-22T11:00:57.367Z</time>
      </trkpt>
      <trkpt lat="47.439207" lon="8.107635">
        <ele>431.821233</ele>
        <time>2021-11-22T11:01:03.088Z</time>
      </trkpt>
      <trkpt lat="47.439314" lon="8.107942">
        <ele>431.193114</ele>
        <time>2021-11-22T11:01:05.516Z</time>
      </trkpt>
      <trkpt lat="47.439446" lon="8.108296">
        <ele>430.457929</ele>
        <time>2021-11-22T11:01:08.385Z</time>
      </trkpt>
      <trkpt lat="47.439529" lon="8.108595">
        <ele>429.845761</ele>
        <time>2021-11-22T11:01:10.715Z</time>
      </trkpt>
      <trkpt lat="47.439627" lon="8.109005">
        <ele>428.883066</ele>
        <time>2021-11-22T11:01:13.682Z</time>
      </trkpt>
      <trkpt lat="47.439736" lon="8.109646">
        <ele>427.419824</ele>
        <time>2021-11-22T11:01:18.203Z</time>
      </trkpt>
      <trkpt lat="47.439783" lon="8.110028">
        <ele>426.560254</ele>
        <time>2021-11-22T11:01:20.800Z</time>
      </trkpt>
      <trkpt lat="47.439797" lon="8.110143">
        <ele>426.301570</ele>
        <time>2021-11-22T11:01:21.597Z</time>
      </trkpt>
      <trkpt lat="47.439868" lon="8.110864">
        <ele>424.688556</ele>
        <time>2021-11-22T11:01:26.548Z</time>
      </trkpt>
      <trkpt lat="47.439893" lon="8.111132">
        <ele>424.090037</ele>
        <time>2021-11-22T11:01:28.366Z</time>
      </trkpt>
      <trkpt lat="47.440053" lon="8.112608">
        <ele>421.033805</ele>
        <time>2021-11-22T11:01:38.587Z</time>
      </trkpt>
      <trkpt lat="47.440229" lon="8.113672">
        <ele>418.794325</ele>
        <time>2021-11-22T11:01:46.235Z</time>
      </trkpt>
      <trkpt lat="47.440342" lon="8.114157">
        <ele>418.150329</ele>
        <time>2021-11-22T11:01:49.954Z</time>
      </trkpt>
      <trkpt lat="47.440417" lon="8.114455">
        <ele>417.788644</ele>
        <time>2021-11-22T11:01:52.267Z</time>
      </trkpt>
      <trkpt lat="47.440589" lon="8.115040">
        <ele>417.063048</ele>
        <time>2021-11-22T11:01:57.099Z</time>
      </trkpt>
      <trkpt lat="47.441002" lon="8.116649">
        <ele>415.386214</ele>
        <time>2021-11-22T11:02:11.036Z</time>
      </trkpt>
      <trkpt lat="47.441126" lon="8.117583">
        <ele>414.879752</ele>
        <time>2021-11-22T11:02:19.264Z</time>
      </trkpt>
      <trkpt lat="47.441143" lon="8.117969">
        <ele>414.673928</ele>
        <time>2021-11-22T11:02:22.544Z</time>
      </trkpt>
      <trkpt lat="47.441143" lon="8.117969">
        <ele>414.673928</ele>
        <time>2021-11-22T11:02:22.546Z</time>
      </trkpt>
      <trkpt lat="47.441143" lon="8.117969">
        <ele>414.673928</ele>
        <time>2021-11-22T11:02:22.567Z</time>
      </trkpt>
      <trkpt lat="47.441151" lon="8.118249">
        <ele>414.524809</ele>
        <time>2021-11-22T11:02:24.938Z</time>
      </trkpt>
      <trkpt lat="47.441160" lon="8.118632">
        <ele>414.320893</ele>
        <time>2021-11-22T11:02:28.394Z</time>
      </trkpt>
      <trkpt lat="47.441161" lon="8.118889">
        <ele>414.182298</ele>
        <time>2021-11-22T11:02:30.642Z</time>
      </trkpt>
      <trkpt lat="47.441148" lon="8.119325">
        <ele>413.937416</ele>
        <time>2021-11-22T11:02:34.538Z</time>
      </trkpt>
      <trkpt lat="47.441139" lon="8.120050">
        <ele>413.530541</ele>
        <time>2021-11-22T11:02:40.778Z</time>
      </trkpt>
      <trkpt lat="47.441147" lon="8.120369">
        <ele>413.351424</ele>
        <time>2021-11-22T11:02:43.449Z</time>
      </trkpt>
      <trkpt lat="47.441158" lon="8.120592">
        <ele>413.225963</ele>
        <time>2021-11-22T11:02:45.270Z</time>
      </trkpt>
      <trkpt lat="47.441185" lon="8.120992">
        <ele>413.000404</ele>
        <time>2021-11-22T11:02:48.437Z</time>
      </trkpt>
      <trkpt lat="47.441242" lon="8.121608">
        <ele>412.625636</ele>
        <time>2021-11-22T11:02:53.636Z</time>
      </trkpt>
      <trkpt lat="47.441260" lon="8.121851">
        <ele>412.440605</ele>
        <time>2021-11-22T11:02:56.099Z</time>
      </trkpt>
      <trkpt lat="47.441259" lon="8.122119">
        <ele>412.237748</ele>
        <time>2021-11-22T11:02:58.264Z</time>
      </trkpt>
      <trkpt lat="47.441253" lon="8.122860">
        <ele>411.676833</ele>
        <time>2021-11-22T11:03:05.309Z</time>
      </trkpt>
      <trkpt lat="47.441230" lon="8.123139">
        <ele>411.464090</ele>
        <time>2021-11-22T11:03:07.582Z</time>
      </trkpt>
      <trkpt lat="47.441181" lon="8.123600">
        <ele>411.110869</ele>
        <time>2021-11-22T11:03:11.199Z</time>
      </trkpt>
      <trkpt lat="47.441073" lon="8.124657">
        <ele>410.092441</ele>
        <time>2021-11-22T11:03:19.055Z</time>
      </trkpt>
      <trkpt lat="47.441063" lon="8.124846">
        <ele>409.875900</ele>
        <time>2021-11-22T11:03:20.683Z</time>
      </trkpt>
      <trkpt lat="47.441067" lon="8.125024">
        <ele>409.672471</ele>
        <time>2021-11-22T11:03:21.831Z</time>
      </trkpt>
      <trkpt lat="47.441081" lon="8.125303">
        <ele>409.352914</ele>
        <time>2021-11-22T11:03:24.087Z</time>
      </trkpt>
      <trkpt lat="47.441091" lon="8.125443">
        <ele>409.192113</ele>
        <time>2021-11-22T11:03:25.324Z</time>
      </trkpt>
      <trkpt lat="47.441104" lon="8.125606">
        <ele>409.004640</ele>
        <time>2021-11-22T11:03:26.397Z</time>
      </trkpt>
      <trkpt lat="47.441214" lon="8.126456">
        <ele>408.016134</ele>
        <time>2021-11-22T11:03:34.114Z</time>
      </trkpt>
      <trkpt lat="47.441238" lon="8.126576">
        <ele>407.873200</ele>
        <time>2021-11-22T11:03:34.910Z</time>
      </trkpt>
      <trkpt lat="47.441266" lon="8.126867">
        <ele>407.635748</ele>
        <time>2021-11-22T11:03:37.474Z</time>
      </trkpt>
      <trkpt lat="47.441277" lon="8.127183">
        <ele>407.532070</ele>
        <time>2021-11-22T11:03:39.664Z</time>
      </trkpt>
      <trkpt lat="47.441262" lon="8.127516">
        <ele>407.422717</ele>
        <time>2021-11-22T11:03:42.602Z</time>
      </trkpt>
      <trkpt lat="47.441146" lon="8.128500">
        <ele>407.095437</ele>
        <time>2021-11-22T11:03:51.553Z</time>
      </trkpt>
      <trkpt lat="47.440994" lon="8.129640">
        <ele>406.449481</ele>
        <time>2021-11-22T11:04:04.941Z</time>
      </trkpt>
      <trkpt lat="47.440963" lon="8.129769">
        <ele>406.271245</ele>
        <time>2021-11-22T11:04:06.974Z</time>
      </trkpt>
      <trkpt lat="47.440892" lon="8.130148">
        <ele>405.759232</ele>
        <time>2021-11-22T11:04:10.152Z</time>
      </trkpt>
      <trkpt lat="47.440840" lon="8.130427">
        <ele>405.382452</ele>
        <time>2021-11-22T11:04:12.574Z</time>
      </trkpt>
      <trkpt lat="47.440840" lon="8.130492">
        <ele>405.297825</ele>
        <time>2021-11-22T11:04:13.596Z</time>
      </trkpt>
      <trkpt lat="47.440891" lon="8.130708">
        <ele>404.999963</ele>
        <time>2021-11-22T11:04:15.183Z</time>
      </trkpt>
      <trkpt lat="47.440943" lon="8.130809">
        <ele>404.834704</ele>
        <time>2021-11-22T11:04:16.112Z</time>
      </trkpt>
      <trkpt lat="47.440978" lon="8.130862">
        <ele>404.738265</ele>
        <time>2021-11-22T11:04:16.629Z</time>
      </trkpt>
      <trkpt lat="47.441000" lon="8.130897">
        <ele>404.676057</ele>
        <time>2021-11-22T11:04:16.951Z</time>
      </trkpt>
      <trkpt lat="47.441024" lon="8.130926">
        <ele>404.616392</ele>
        <time>2021-11-22T11:04:17.546Z</time>
      </trkpt>
      <trkpt lat="47.441088" lon="8.130997">
        <ele>404.462373</ele>
        <time>2021-11-22T11:04:18.297Z</time>
      </trkpt>
      <trkpt lat="47.441375" lon="8.131552">
        <ele>403.552800</ele>
        <time>2021-11-22T11:04:23.233Z</time>
      </trkpt>
      <trkpt lat="47.441442" lon="8.131718">
        <ele>403.224400</ele>
        <time>2021-11-22T11:04:24.508Z</time>
      </trkpt>
      <trkpt lat="47.441650" lon="8.132354">
        <ele>400.562198</ele>
        <time>2021-11-22T11:04:29.065Z</time>
      </trkpt>
      <trkpt lat="47.441777" lon="8.132790">
        <ele>398.773277</ele>
        <time>2021-11-22T11:04:32.021Z</time>
      </trkpt>
      <trkpt lat="47.442022" lon="8.133657">
        <ele>395.232378</ele>
        <time>2021-11-22T11:04:37.767Z</time>
      </trkpt>
      <trkpt lat="47.442150" lon="8.134033">
        <ele>393.646106</ele>
        <time>2021-11-22T11:04:40.347Z</time>
      </trkpt>
      <trkpt lat="47.442233" lon="8.134253">
        <ele>392.839051</ele>
        <time>2021-11-22T11:04:41.942Z</time>
      </trkpt>
      <trkpt lat="47.442302" lon="8.134411">
        <ele>392.292080</ele>
        <time>2021-11-22T11:04:43.093Z</time>
      </trkpt>
      <trkpt lat="47.442543" lon="8.134882">
        <ele>390.574451</ele>
        <time>2021-11-22T11:04:46.811Z</time>
      </trkpt>
      <trkpt lat="47.442659" lon="8.135081">
        <ele>389.810419</ele>
        <time>2021-11-22T11:04:48.546Z</time>
      </trkpt>
      <trkpt lat="47.442771" lon="8.135257">
        <ele>389.107616</ele>
        <time>2021-11-22T11:04:50.071Z</time>
      </trkpt>
      <trkpt lat="47.443330" lon="8.135975">
        <ele>385.923588</ele>
        <time>2021-11-22T11:04:57.563Z</time>
      </trkpt>
      <trkpt lat="47.443600" lon="8.136309">
        <ele>385.162211</ele>
        <time>2021-11-22T11:05:01.388Z</time>
      </trkpt>
      <trkpt lat="47.443990" lon="8.137008">
        <ele>384.212980</ele>
        <time>2021-11-22T11:05:08.174Z</time>
      </trkpt>
      <trkpt lat="47.444358" lon="8.137486">
        <ele>383.454297</ele>
        <time>2021-11-22T11:05:13.999Z</time>
      </trkpt>
      <trkpt lat="47.444534" lon="8.137663">
        <ele>383.124616</ele>
        <time>2021-11-22T11:05:16.639Z</time>
      </trkpt>
      <trkpt lat="47.444695" lon="8.137798">
        <ele>382.837941</ele>
        <time>2021-11-22T11:05:18.964Z</time>
      </trkpt>
      <trkpt lat="47.444780" lon="8.137842">
        <ele>382.820291</ele>
        <time>2021-11-22T11:05:20.352Z</time>
      </trkpt>
      <trkpt lat="47.444873" lon="8.137885">
        <ele>382.850607</ele>
        <time>2021-11-22T11:05:21.540Z</time>
      </trkpt>
      <trkpt lat="47.445201" lon="8.137885">
        <ele>382.952655</ele>
        <time>2021-11-22T11:05:26.140Z</time>
      </trkpt>
      <trkpt lat="47.445264" lon="8.137860">
        <ele>382.972949</ele>
        <time>2021-11-22T11:05:26.870Z</time>
      </trkpt>
      <trkpt lat="47.445320" lon="8.137827">
        <ele>382.991705</ele>
        <time>2021-11-22T11:05:27.682Z</time>
      </trkpt>
      <trkpt lat="47.445372" lon="8.137789">
        <ele>383.009751</ele>
        <time>2021-11-22T11:05:28.550Z</time>
      </trkpt>
      <trkpt lat="47.445434" lon="8.137740">
        <ele>383.031623</ele>
        <time>2021-11-22T11:05:29.563Z</time>
      </trkpt>
      <trkpt lat="47.445479" lon="8.137706">
        <ele>383.047346</ele>
        <time>2021-11-22T11:05:30.700Z</time>
      </trkpt>
      <trkpt lat="47.445490" lon="8.137703">
        <ele>383.050826</ele>
        <time>2021-11-22T11:05:31.028Z</time>
      </trkpt>
      <trkpt lat="47.445854" lon="8.138048">
        <ele>383.185343</ele>
        <time>2021-11-22T11:05:39.731Z</time>
      </trkpt>
      <trkpt lat="47.446288" lon="8.139006">
        <ele>382.975632</ele>
        <time>2021-11-22T11:05:53.463Z</time>
      </trkpt>
      <trkpt lat="47.446353" lon="8.139246">
        <ele>382.670567</ele>
        <time>2021-11-22T11:05:56.271Z</time>
      </trkpt>
      <trkpt lat="47.446467" lon="8.139635">
        <ele>382.170305</ele>
        <time>2021-11-22T11:06:00.482Z</time>
      </trkpt>
      <trkpt lat="47.446649" lon="8.140082">
        <ele>381.554631</ele>
        <time>2021-11-22T11:06:04.405Z</time>
      </trkpt>
      <trkpt lat="47.446741" lon="8.140284">
        <ele>381.267260</ele>
        <time>2021-11-22T11:06:05.838Z</time>
      </trkpt>
      <trkpt lat="47.446786" lon="8.140421">
        <ele>381.087542</ele>
        <time>2021-11-22T11:06:08.519Z</time>
      </trkpt>
      <trkpt lat="47.446968" lon="8.141232">
        <ele>379.873839</ele>
        <time>2021-11-22T11:06:14.680Z</time>
      </trkpt>
      <trkpt lat="47.446964" lon="8.141309">
        <ele>379.650810</ele>
        <time>2021-11-22T11:06:15.110Z</time>
      </trkpt>
      <trkpt lat="47.446893" lon="8.141558">
        <ele>378.870395</ele>
        <time>2021-11-22T11:06:20.322Z</time>
      </trkpt>
      <trkpt lat="47.446837" lon="8.141650">
        <ele>378.512927</ele>
        <time>2021-11-22T11:06:21.149Z</time>
      </trkpt>
      <trkpt lat="47.446816" lon="8.141669">
        <ele>378.407792</ele>
        <time>2021-11-22T11:06:21.356Z</time>
      </trkpt>
      <trkpt lat="47.446776" lon="8.141699">
        <ele>378.216259</ele>
        <time>2021-11-22T11:06:21.727Z</time>
      </trkpt>
      <trkpt lat="47.446469" lon="8.141875">
        <ele>376.810150</ele>
        <time>2021-11-22T11:06:25.073Z</time>
      </trkpt>
      <trkpt lat="47.446441" lon="8.141907">
        <ele>376.659027</ele>
        <time>2021-11-22T11:06:25.366Z</time>
      </trkpt>
      <trkpt lat="47.446425" lon="8.141927">
        <ele>376.569557</ele>
        <time>2021-11-22T11:06:25.537Z</time>
      </trkpt>
      <trkpt lat="47.446393" lon="8.142134">
        <ele>375.956320</ele>
        <time>2021-11-22T11:06:28.077Z</time>
      </trkpt>
      <trkpt lat="47.446548" lon="8.142851">
        <ele>373.782398</ele>
        <time>2021-11-22T11:06:33.025Z</time>
      </trkpt>
      <trkpt lat="47.446575" lon="8.142970">
        <ele>373.419899</ele>
        <time>2021-11-22T11:06:33.728Z</time>
      </trkpt>
      <trkpt lat="47.446627" lon="8.143136">
        <ele>372.891559</ele>
        <time>2021-11-22T11:06:35.049Z</time>
      </trkpt>
      <trkpt lat="47.446668" lon="8.143271">
        <ele>372.478866</ele>
        <time>2021-11-22T11:06:36.156Z</time>
      </trkpt>
      <trkpt lat="47.446677" lon="8.143422">
        <ele>372.125726</ele>
        <time>2021-11-22T11:06:37.070Z</time>
      </trkpt>
      <trkpt lat="47.446672" lon="8.143504">
        <ele>371.933920</ele>
        <time>2021-11-22T11:06:37.641Z</time>
      </trkpt>
      <trkpt lat="47.446656" lon="8.143737">
        <ele>371.388321</ele>
        <time>2021-11-22T11:06:39.455Z</time>
      </trkpt>
      <trkpt lat="47.446633" lon="8.144018">
        <ele>370.728913</ele>
        <time>2021-11-22T11:06:41.336Z</time>
      </trkpt>
      <trkpt lat="47.446608" lon="8.144429">
        <ele>369.767562</ele>
        <time>2021-11-22T11:06:44.247Z</time>
      </trkpt>
      <trkpt lat="47.446552" lon="8.145025">
        <ele>368.365754</ele>
        <time>2021-11-22T11:06:48.423Z</time>
      </trkpt>
      <trkpt lat="47.446378" lon="8.146035">
        <ele>365.884435</ele>
        <time>2021-11-22T11:06:55.597Z</time>
      </trkpt>
      <trkpt lat="47.446335" lon="8.146286">
        <ele>365.202252</ele>
        <time>2021-11-22T11:06:57.263Z</time>
      </trkpt>
      <trkpt lat="47.446272" lon="8.146578">
        <ele>364.394734</ele>
        <time>2021-11-22T11:06:59.381Z</time>
      </trkpt>
      <trkpt lat="47.446002" lon="8.147556">
        <ele>361.611616</ele>
        <time>2021-11-22T11:07:06.360Z</time>
      </trkpt>
      <trkpt lat="47.445930" lon="8.147819">
        <ele>360.864079</ele>
        <time>2021-11-22T11:07:08.145Z</time>
      </trkpt>
      <trkpt lat="47.445913" lon="8.147812">
        <ele>360.795331</ele>
        <time>2021-11-22T11:07:08.319Z</time>
      </trkpt>
      <trkpt lat="47.445808" lon="8.147879">
        <ele>360.349811</ele>
        <time>2021-11-22T11:07:09.551Z</time>
      </trkpt>
      <trkpt lat="47.445797" lon="8.147915">
        <ele>360.245731</ele>
        <time>2021-11-22T11:07:09.812Z</time>
      </trkpt>
      <trkpt lat="47.445793" lon="8.147952">
        <ele>360.147011</ele>
        <time>2021-11-22T11:07:10.050Z</time>
      </trkpt>
      <trkpt lat="47.445801" lon="8.147985">
        <ele>360.054649</ele>
        <time>2021-11-22T11:07:10.281Z</time>
      </trkpt>
      <trkpt lat="47.445787" lon="8.148066">
        <ele>359.834382</ele>
        <time>2021-11-22T11:07:11.781Z</time>
      </trkpt>
      <trkpt lat="47.445789" lon="8.148121">
        <ele>359.689266</ele>
        <time>2021-11-22T11:07:12.727Z</time>
      </trkpt>
      <trkpt lat="47.445719" lon="8.148344">
        <ele>359.086635</ele>
        <time>2021-11-22T11:07:17.615Z</time>
      </trkpt>
      <trkpt lat="47.445669" lon="8.148506">
        <ele>358.689073</ele>
        <time>2021-11-22T11:07:21.125Z</time>
      </trkpt>
      <trkpt lat="47.445647" lon="8.148571">
        <ele>358.526797</ele>
        <time>2021-11-22T11:07:22.439Z</time>
      </trkpt>
      <trkpt lat="47.445610" lon="8.148690">
        <ele>358.234388</ele>
        <time>2021-11-22T11:07:23.282Z</time>
      </trkpt>
      <trkpt lat="47.445427" lon="8.149473">
        <ele>356.384834</ele>
        <time>2021-11-22T11:07:29.030Z</time>
      </trkpt>
      <trkpt lat="47.445349" lon="8.149883">
        <ele>355.433947</ele>
        <time>2021-11-22T11:07:31.917Z</time>
      </trkpt>
      <trkpt lat="47.445333" lon="8.150021">
        <ele>355.121355</ele>
        <time>2021-11-22T11:07:32.844Z</time>
      </trkpt>
      <trkpt lat="47.445270" lon="8.150791">
        <ele>353.393277</ele>
        <time>2021-11-22T11:07:38.209Z</time>
      </trkpt>
      <trkpt lat="47.445341" lon="8.152081">
        <ele>351.567967</ele>
        <time>2021-11-22T11:07:47.780Z</time>
      </trkpt>
      <trkpt lat="47.445345" lon="8.152117">
        <ele>351.516515</ele>
        <time>2021-11-22T11:07:48.003Z</time>
      </trkpt>
      <trkpt lat="47.445367" lon="8.152315">
        <ele>351.233531</ele>
        <time>2021-11-22T11:07:49.516Z</time>
      </trkpt>
      <trkpt lat="47.445377" lon="8.153032">
        <ele>350.222127</ele>
        <time>2021-11-22T11:07:54.961Z</time>
      </trkpt>
      <trkpt lat="47.445471" lon="8.153334">
        <ele>349.753271</ele>
        <time>2021-11-22T11:07:57.505Z</time>
      </trkpt>
      <trkpt lat="47.445480" lon="8.153382">
        <ele>349.683023</ele>
        <time>2021-11-22T11:07:57.852Z</time>
      </trkpt>
      <trkpt lat="47.445498" lon="8.153445">
        <ele>349.611730</ele>
        <time>2021-11-22T11:07:58.356Z</time>
      </trkpt>
      <trkpt lat="47.445503" lon="8.153865">
        <ele>349.259709</ele>
        <time>2021-11-22T11:08:01.648Z</time>
      </trkpt>
      <trkpt lat="47.445508" lon="8.154226">
        <ele>348.957122</ele>
        <time>2021-11-22T11:08:04.407Z</time>
      </trkpt>
      <trkpt lat="47.445496" lon="8.154420">
        <ele>348.793869</ele>
        <time>2021-11-22T11:08:05.867Z</time>
      </trkpt>
      <trkpt lat="47.445417" lon="8.155036">
        <ele>348.268451</ele>
        <time>2021-11-22T11:08:10.849Z</time>
      </trkpt>
      <trkpt lat="47.445283" lon="8.155940">
        <ele>347.492900</ele>
        <time>2021-11-22T11:08:18.654Z</time>
      </trkpt>
      <trkpt lat="47.445272" lon="8.156014">
        <ele>347.429406</ele>
        <time>2021-11-22T11:08:19.277Z</time>
      </trkpt>
      <trkpt lat="47.445183" lon="8.156648">
        <ele>347.267104</ele>
        <time>2021-11-22T11:08:24.985Z</time>
      </trkpt>
      <trkpt lat="47.444886" lon="8.158795">
        <ele>346.798389</ele>
        <time>2021-11-22T11:08:45.557Z</time>
      </trkpt>
      <trkpt lat="47.444856" lon="8.159348">
        <ele>346.854833</ele>
        <time>2021-11-22T11:08:51.103Z</time>
      </trkpt>
      <trkpt lat="47.444782" lon="8.160945">
        <ele>347.017695</ele>
        <time>2021-11-22T11:09:07.827Z</time>
      </trkpt>
      <trkpt lat="47.444717" lon="8.161370">
        <ele>347.125131</ele>
        <time>2021-11-22T11:09:12.952Z</time>
      </trkpt>
      <trkpt lat="47.444730" lon="8.161460">
        <ele>347.192750</ele>
        <time>2021-11-22T11:09:14.027Z</time>
      </trkpt>
      <trkpt lat="47.444744" lon="8.161943">
        <ele>347.547963</ele>
        <time>2021-11-22T11:09:20.019Z</time>
      </trkpt>
      <trkpt lat="47.444756" lon="8.162153">
        <ele>347.702811</ele>
        <time>2021-11-22T11:09:22.585Z</time>
      </trkpt>
      <trkpt lat="47.444787" lon="8.162715">
        <ele>348.117114</ele>
        <time>2021-11-22T11:09:29.867Z</time>
      </trkpt>
      <trkpt lat="47.444799" lon="8.163386">
        <ele>348.610307</ele>
        <time>2021-11-22T11:09:38.711Z</time>
      </trkpt>
      <trkpt lat="47.444779" lon="8.163478">
        <ele>348.681311</ele>
        <time>2021-11-22T11:09:40.357Z</time>
      </trkpt>
      <trkpt lat="47.444770" lon="8.163590">
        <ele>348.764182</ele>
        <time>2021-11-22T11:09:41.938Z</time>
      </trkpt>
      <trkpt lat="47.444759" lon="8.165375">
        <ele>350.565298</ele>
        <time>2021-11-22T11:10:06.981Z</time>
      </trkpt>
      <trkpt lat="47.444759" lon="8.165492">
        <ele>350.690601</ele>
        <time>2021-11-22T11:10:08.546Z</time>
      </trkpt>
      <trkpt lat="47.444806" lon="8.165672">
        <ele>350.897245</ele>
        <time>2021-11-22T11:10:11.701Z</time>
      </trkpt>
      <trkpt lat="47.445010" lon="8.166340">
        <ele>351.682209</ele>
        <time>2021-11-22T11:10:21.916Z</time>
      </trkpt>
      <trkpt lat="47.445086" lon="8.166555">
        <ele>351.950922</ele>
        <time>2021-11-22T11:10:25.569Z</time>
      </trkpt>
      <trkpt lat="47.445110" lon="8.166635">
        <ele>352.054157</ele>
        <time>2021-11-22T11:10:26.865Z</time>
      </trkpt>
      <trkpt lat="47.445178" lon="8.166910">
        <ele>352.399545</ele>
        <time>2021-11-22T11:10:31.599Z</time>
      </trkpt>
      <trkpt lat="47.445291" lon="8.167366">
        <ele>352.972407</ele>
        <time>2021-11-22T11:10:38.776Z</time>
      </trkpt>
      <trkpt lat="47.445280" lon="8.168272">
        <ele>354.041280</ele>
        <time>2021-11-22T11:10:52.158Z</time>
      </trkpt>
      <trkpt lat="47.445256" lon="8.168462">
        <ele>354.269276</ele>
        <time>2021-11-22T11:10:55.277Z</time>
      </trkpt>
      <trkpt lat="47.445227" lon="8.168650">
        <ele>354.496733</ele>
        <time>2021-11-22T11:10:58.092Z</time>
      </trkpt>
      <trkpt lat="47.445201" lon="8.168740">
        <ele>354.612176</ele>
        <time>2021-11-22T11:10:59.261Z</time>
      </trkpt>
      <trkpt lat="47.445242" lon="8.168768">
        <ele>354.690946</ele>
        <time>2021-11-22T11:11:00.352Z</time>
      </trkpt>
      <trkpt lat="47.445220" lon="8.168796">
        <ele>354.741575</ele>
        <time>2021-11-22T11:11:01.187Z</time>
      </trkpt>
      <trkpt lat="47.445203" lon="8.168909">
        <ele>354.878126</ele>
        <time>2021-11-22T11:11:02.750Z</time>
      </trkpt>
      <trkpt lat="47.445210" lon="8.168936">
        <ele>354.912235</ele>
        <time>2021-11-22T11:11:03.391Z</time>
      </trkpt>
      <trkpt lat="47.445249" lon="8.168993">
        <ele>355.003539</ele>
        <time>2021-11-22T11:11:04.429Z</time>
      </trkpt>
      <trkpt lat="47.445347" lon="8.168969">
        <ele>355.131062</ele>
        <time>2021-11-22T11:11:06.363Z</time>
      </trkpt>
      <trkpt lat="47.445371" lon="8.168911">
        <ele>355.190096</ele>
        <time>2021-11-22T11:11:07.150Z</time>
      </trkpt>
      <trkpt lat="47.445462" lon="8.168931">
        <ele>355.308203</ele>
        <time>2021-11-22T11:11:09.294Z</time>
      </trkpt>
      <trkpt lat="47.445492" lon="8.168934">
        <ele>355.346804</ele>
        <time>2021-11-22T11:11:09.875Z</time>
      </trkpt>
      <trkpt lat="47.445602" lon="8.168940">
        <ele>355.488115</ele>
        <time>2021-11-22T11:11:12.236Z</time>
      </trkpt>
      <trkpt lat="47.445899" lon="8.168924">
        <ele>355.869648</ele>
        <time>2021-11-22T11:11:18.381Z</time>
      </trkpt>
      <trkpt lat="47.447045" lon="8.168775">
        <ele>357.370648</ele>
        <time>2021-11-22T11:11:40.475Z</time>
      </trkpt>
      <trkpt lat="47.447430" lon="8.168727">
        <ele>358.126505</ele>
        <time>2021-11-22T11:11:47.993Z</time>
      </trkpt>
      <trkpt lat="47.447631" lon="8.168708">
        <ele>358.520529</ele>
        <time>2021-11-22T11:11:51.964Z</time>
      </trkpt>
      <trkpt lat="47.448119" lon="8.168656">
        <ele>359.477691</ele>
        <time>2021-11-22T11:12:01.485Z</time>
      </trkpt>
      <trkpt lat="47.448499" lon="8.168620">
        <ele>360.222619</ele>
        <time>2021-11-22T11:12:10.003Z</time>
      </trkpt>
      <trkpt lat="47.448861" lon="8.168583">
        <ele>361.167584</ele>
        <time>2021-11-22T11:12:20.304Z</time>
      </trkpt>
      <trkpt lat="47.449119" lon="8.168554">
        <ele>362.724214</ele>
        <time>2021-11-22T11:12:28.809Z</time>
      </trkpt>
      <trkpt lat="47.449360" lon="8.168528">
        <ele>364.177946</ele>
        <time>2021-11-22T11:12:37.666Z</time>
      </trkpt>
      <trkpt lat="47.449649" lon="8.168493">
        <ele>365.922418</ele>
        <time>2021-11-22T11:12:49.083Z</time>
      </trkpt>
      <trkpt lat="47.449653" lon="8.168540">
        <ele>366.115137</ele>
        <time>2021-11-22T11:12:50.463Z</time>
      </trkpt>
      <trkpt lat="47.449667" lon="8.168583">
        <ele>366.309294</ele>
        <time>2021-11-22T11:12:51.811Z</time>
      </trkpt>
      <trkpt lat="47.449689" lon="8.168617">
        <ele>366.500738</ele>
        <time>2021-11-22T11:12:53.220Z</time>
      </trkpt>
      <trkpt lat="47.449718" lon="8.168639">
        <ele>366.696823</ele>
        <time>2021-11-22T11:12:54.519Z</time>
      </trkpt>
      <trkpt lat="47.449750" lon="8.168646">
        <ele>366.891433</ele>
        <time>2021-11-22T11:12:55.933Z</time>
      </trkpt>
      <trkpt lat="47.449792" lon="8.168751">
        <ele>367.387740</ele>
        <time>2021-11-22T11:12:59.498Z</time>
      </trkpt>
      <trkpt lat="47.449822" lon="8.168785">
        <ele>367.615132</ele>
        <time>2021-11-22T11:13:01.252Z</time>
      </trkpt>
      <trkpt lat="47.449861" lon="8.168818">
        <ele>367.885455</ele>
        <time>2021-11-22T11:13:02.894Z</time>
      </trkpt>
      <trkpt lat="47.449898" lon="8.168846">
        <ele>368.135504</ele>
        <time>2021-11-22T11:13:04.782Z</time>
      </trkpt>
      <trkpt lat="47.450053" lon="8.168941">
        <ele>369.144919</ele>
        <time>2021-11-22T11:13:11.900Z</time>
      </trkpt>
      <trkpt lat="47.450226" lon="8.169048">
        <ele>370.273069</ele>
        <time>2021-11-22T11:13:20.027Z</time>
      </trkpt>
      <trkpt lat="47.450456" lon="8.169293">
        <ele>372.046789</ele>
        <time>2021-11-22T11:13:32.581Z</time>
      </trkpt>
      <trkpt lat="47.450595" lon="8.169495">
        <ele>373.456274</ele>
        <time>2021-11-22T11:13:41.253Z</time>
      </trkpt>
      <trkpt lat="47.450703" lon="8.169717">
        <ele>374.793793</ele>
        <time>2021-11-22T11:13:49.828Z</time>
      </trkpt>
      <trkpt lat="47.450841" lon="8.170057">
        <ele>376.733177</ele>
        <time>2021-11-22T11:14:02.619Z</time>
      </trkpt>
      <trkpt lat="47.450955" lon="8.170639">
        <ele>379.696581</ele>
        <time>2021-11-22T11:14:21.721Z</time>
      </trkpt>
      <trkpt lat="47.450967" lon="8.171137">
        <ele>382.133701</ele>
        <time>2021-11-22T11:14:36.144Z</time>
      </trkpt>
      <trkpt lat="47.450916" lon="8.171538">
        <ele>384.129261</ele>
        <time>2021-11-22T11:14:47.611Z</time>
      </trkpt>
      <trkpt lat="47.450707" lon="8.172231">
        <ele>386.939316</ele>
        <time>2021-11-22T11:15:07.006Z</time>
      </trkpt>
      <trkpt lat="47.450344" lon="8.172939">
        <ele>390.058045</ele>
        <time>2021-11-22T11:15:27.983Z</time>
      </trkpt>
      <trkpt lat="47.450261" lon="8.173231">
        <ele>391.169875</ele>
        <time>2021-11-22T11:15:35.022Z</time>
      </trkpt>
      <trkpt lat="47.450243" lon="8.173437">
        <ele>391.898977</ele>
        <time>2021-11-22T11:15:40.112Z</time>
      </trkpt>
      <trkpt lat="47.450244" lon="8.173671">
        <ele>392.720368</ele>
        <time>2021-11-22T11:15:45.345Z</time>
      </trkpt>
      <trkpt lat="47.450248" lon="8.173701">
        <ele>392.827700</ele>
        <time>2021-11-22T11:15:45.954Z</time>
      </trkpt>
      <trkpt lat="47.450265" lon="8.173838">
        <ele>393.316620</ele>
        <time>2021-11-22T11:15:48.832Z</time>
      </trkpt>
      <trkpt lat="47.450300" lon="8.174021">
        <ele>393.984175</ele>
        <time>2021-11-22T11:15:53.650Z</time>
      </trkpt>
      <trkpt lat="47.450394" lon="8.174279">
        <ele>394.758119</ele>
        <time>2021-11-22T11:15:59.702Z</time>
      </trkpt>
      <trkpt lat="47.450481" lon="8.174464">
        <ele>395.353070</ele>
        <time>2021-11-22T11:16:05.884Z</time>
      </trkpt>
      <trkpt lat="47.451180" lon="8.175936">
        <ele>400.102052</ele>
        <time>2021-11-22T11:16:42.507Z</time>
      </trkpt>
      <trkpt lat="47.451255" lon="8.176259">
        <ele>401.003720</ele>
        <time>2021-11-22T11:16:49.623Z</time>
      </trkpt>
      <trkpt lat="47.451255" lon="8.176259">
        <ele>401.003720</ele>
        <time>2021-11-22T11:16:49.633Z</time>
      </trkpt>
      <trkpt lat="47.451291" lon="8.176540">
        <ele>401.297185</ele>
        <time>2021-11-22T11:16:53.948Z</time>
      </trkpt>
      <trkpt lat="47.451300" lon="8.176750">
        <ele>401.511387</ele>
        <time>2021-11-22T11:16:57.700Z</time>
      </trkpt>
      <trkpt lat="47.451232" lon="8.177826">
        <ele>402.611496</ele>
        <time>2021-11-22T11:17:13.690Z</time>
      </trkpt>
      <trkpt lat="47.451179" lon="8.178310">
        <ele>403.110612</ele>
        <time>2021-11-22T11:17:20.036Z</time>
      </trkpt>
      <trkpt lat="47.451032" lon="8.179544">
        <ele>403.591518</ele>
        <time>2021-11-22T11:17:32.659Z</time>
      </trkpt>
      <trkpt lat="47.450946" lon="8.180093">
        <ele>403.485801</ele>
        <time>2021-11-22T11:17:37.915Z</time>
      </trkpt>
      <trkpt lat="47.450905" lon="8.180266">
        <ele>403.451412</ele>
        <time>2021-11-22T11:17:39.544Z</time>
      </trkpt>
      <trkpt lat="47.450866" lon="8.180426">
        <ele>403.419506</ele>
        <time>2021-11-22T11:17:41.069Z</time>
      </trkpt>
      <trkpt lat="47.450784" lon="8.180652">
        <ele>403.371393</ele>
        <time>2021-11-22T11:17:43.258Z</time>
      </trkpt>
      <trkpt lat="47.450757" lon="8.180728">
        <ele>403.355288</ele>
        <time>2021-11-22T11:17:43.964Z</time>
      </trkpt>
      <trkpt lat="47.450616" lon="8.181010">
        <ele>403.289495</ele>
        <time>2021-11-22T11:17:46.909Z</time>
      </trkpt>
      <trkpt lat="47.450277" lon="8.181638">
        <ele>403.541624</ele>
        <time>2021-11-22T11:17:54.101Z</time>
      </trkpt>
      <trkpt lat="47.449912" lon="8.182328">
        <ele>404.232237</ele>
        <time>2021-11-22T11:18:04.562Z</time>
      </trkpt>
      <trkpt lat="47.449726" lon="8.182655">
        <ele>404.569095</ele>
        <time>2021-11-22T11:18:10.248Z</time>
      </trkpt>
      <trkpt lat="47.449882" lon="8.182855">
        <ele>404.809788</ele>
        <time>2021-11-22T11:18:15.262Z</time>
      </trkpt>
      <trkpt lat="47.450219" lon="8.183214">
        <ele>405.293982</ele>
        <time>2021-11-22T11:18:24.579Z</time>
      </trkpt>
      <trkpt lat="47.450334" lon="8.183256">
        <ele>405.669142</ele>
        <time>2021-11-22T11:18:27.176Z</time>
      </trkpt>
      <trkpt lat="47.450480" lon="8.183296">
        <ele>406.186936</ele>
        <time>2021-11-22T11:18:31.525Z</time>
      </trkpt>
      <trkpt lat="47.453261" lon="8.183592">
        <ele>416.930909</ele>
        <time>2021-11-22T11:19:55.404Z</time>
      </trkpt>
      <trkpt lat="47.454113" lon="8.183995">
        <ele>421.427622</ele>
        <time>2021-11-22T11:20:26.810Z</time>
      </trkpt>
      <trkpt lat="47.455084" lon="8.184312">
        <ele>427.610435</ele>
        <time>2021-11-22T11:21:07.862Z</time>
      </trkpt>
      <trkpt lat="47.455493" lon="8.184495">
        <ele>430.267341</ele>
        <time>2021-11-22T11:21:25.417Z</time>
      </trkpt>
      <trkpt lat="47.455699" lon="8.184552">
        <ele>431.507940</ele>
        <time>2021-11-22T11:21:34.380Z</time>
      </trkpt>
      <trkpt lat="47.455877" lon="8.184554">
        <ele>432.548782</ele>
        <time>2021-11-22T11:21:41.264Z</time>
      </trkpt>
      <trkpt lat="47.456235" lon="8.184248">
        <ele>434.966558</ele>
        <time>2021-11-22T11:21:58.762Z</time>
      </trkpt>
      <trkpt lat="47.456553" lon="8.184099">
        <ele>436.917070</ele>
        <time>2021-11-22T11:22:12.658Z</time>
      </trkpt>
      <trkpt lat="47.457324" lon="8.184008">
        <ele>441.260484</ele>
        <time>2021-11-22T11:22:39.646Z</time>
      </trkpt>
      <trkpt lat="47.457848" lon="8.183889">
        <ele>442.974383</ele>
        <time>2021-11-22T11:22:54.994Z</time>
      </trkpt>
      <trkpt lat="47.458538" lon="8.183635">
        <ele>445.273147</ele>
        <time>2021-11-22T11:23:13.694Z</time>
      </trkpt>
      <trkpt lat="47.459167" lon="8.183448">
        <ele>447.529390</ele>
        <time>2021-11-22T11:23:29.700Z</time>
      </trkpt>
      <trkpt lat="47.459753" lon="8.183329">
        <ele>450.147102</ele>
        <time>2021-11-22T11:23:44.654Z</time>
      </trkpt>
      <trkpt lat="47.460554" lon="8.183178">
        <ele>453.720658</ele>
        <time>2021-11-22T11:24:13.454Z</time>
      </trkpt>
      <trkpt lat="47.460847" lon="8.183096">
        <ele>455.047759</ele>
        <time>2021-11-22T11:24:25.779Z</time>
      </trkpt>
      <trkpt lat="47.461071" lon="8.183042">
        <ele>456.084984</ele>
        <time>2021-11-22T11:24:35.516Z</time>
      </trkpt>
      <trkpt lat="47.461358" lon="8.182957">
        <ele>457.422658</ele>
        <time>2021-11-22T11:24:48.087Z</time>
      </trkpt>
      <trkpt lat="47.461596" lon="8.182847">
        <ele>458.562223</ele>
        <time>2021-11-22T11:24:56.246Z</time>
      </trkpt>
      <trkpt lat="47.461726" lon="8.182787">
        <ele>459.184596</ele>
        <time>2021-11-22T11:25:02.509Z</time>
      </trkpt>
      <trkpt lat="47.461986" lon="8.182699">
        <ele>460.403552</ele>
        <time>2021-11-22T11:25:09.221Z</time>
      </trkpt>
      <trkpt lat="47.461986" lon="8.182699">
        <ele>460.403552</ele>
        <time>2021-11-22T11:25:09.328Z</time>
      </trkpt>
      <trkpt lat="47.462079" lon="8.182715">
        <ele>460.831442</ele>
        <time>2021-11-22T11:25:13.215Z</time>
      </trkpt>
      <trkpt lat="47.462272" lon="8.182885">
        <ele>461.858038</ele>
        <time>2021-11-22T11:25:17.974Z</time>
      </trkpt>
      <trkpt lat="47.462405" lon="8.183354">
        <ele>462.944377</ele>
        <time>2021-11-22T11:25:26.752Z</time>
      </trkpt>
      <trkpt lat="47.462437" lon="8.183617">
        <ele>462.757500</ele>
        <time>2021-11-22T11:25:32.376Z</time>
      </trkpt>
      <trkpt lat="47.462385" lon="8.183944">
        <ele>462.522580</ele>
        <time>2021-11-22T11:25:35.246Z</time>
      </trkpt>
      <trkpt lat="47.462330" lon="8.184207">
        <ele>462.330060</ele>
        <time>2021-11-22T11:25:39.724Z</time>
      </trkpt>
      <trkpt lat="47.462283" lon="8.184479">
        <ele>462.133729</ele>
        <time>2021-11-22T11:25:41.776Z</time>
      </trkpt>
      <trkpt lat="47.462183" lon="8.185029">
        <ele>461.735434</ele>
        <time>2021-11-22T11:25:45.832Z</time>
      </trkpt>
      <trkpt lat="47.462049" lon="8.185880">
        <ele>461.088758</ele>
        <time>2021-11-22T11:25:51.788Z</time>
      </trkpt>
      <trkpt lat="47.462022" lon="8.186039">
        <ele>460.890820</ele>
        <time>2021-11-22T11:25:52.820Z</time>
      </trkpt>
      <trkpt lat="47.461981" lon="8.186218">
        <ele>460.662630</ele>
        <time>2021-11-22T11:25:54.197Z</time>
      </trkpt>
      <trkpt lat="47.461962" lon="8.186301">
        <ele>460.556828</ele>
        <time>2021-11-22T11:25:54.804Z</time>
      </trkpt>
      <trkpt lat="47.461917" lon="8.186433">
        <ele>460.378337</ele>
        <time>2021-11-22T11:25:55.742Z</time>
      </trkpt>
      <trkpt lat="47.461877" lon="8.186536">
        <ele>460.234918</ele>
        <time>2021-11-22T11:25:56.517Z</time>
      </trkpt>
      <trkpt lat="47.461778" lon="8.186745">
        <ele>459.926799</ele>
        <time>2021-11-22T11:25:58.382Z</time>
      </trkpt>
      <trkpt lat="47.461628" lon="8.186982">
        <ele>459.534825</ele>
        <time>2021-11-22T11:26:00.750Z</time>
      </trkpt>
      <trkpt lat="47.461205" lon="8.187880">
        <ele>458.213361</ele>
        <time>2021-11-22T11:26:09.791Z</time>
      </trkpt>
      <trkpt lat="47.461000" lon="8.188417">
        <ele>458.547975</ele>
        <time>2021-11-22T11:26:16.202Z</time>
      </trkpt>
      <trkpt lat="47.460780" lon="8.189117">
        <ele>459.658348</ele>
        <time>2021-11-22T11:26:27.851Z</time>
      </trkpt>
      <trkpt lat="47.460455" lon="8.190123">
        <ele>461.262127</ele>
        <time>2021-11-22T11:26:47.639Z</time>
      </trkpt>
      <trkpt lat="47.460333" lon="8.190448">
        <ele>461.794335</ele>
        <time>2021-11-22T11:26:55.412Z</time>
      </trkpt>
      <trkpt lat="47.460305" lon="8.190539">
        <ele>461.897494</ele>
        <time>2021-11-22T11:26:57.271Z</time>
      </trkpt>
      <trkpt lat="47.460305" lon="8.190613">
        <ele>461.973847</ele>
        <time>2021-11-22T11:26:58.658Z</time>
      </trkpt>
      <trkpt lat="47.460305" lon="8.190634">
        <ele>461.995515</ele>
        <time>2021-11-22T11:26:59.570Z</time>
      </trkpt>
      <trkpt lat="47.460453" lon="8.190816">
        <ele>462.289245</ele>
        <time>2021-11-22T11:27:05.326Z</time>
      </trkpt>
      <trkpt lat="47.461346" lon="8.191250">
        <ele>463.723730</ele>
        <time>2021-11-22T11:27:29.610Z</time>
      </trkpt>
      <trkpt lat="47.461858" lon="8.191600">
        <ele>464.372503</ele>
        <time>2021-11-22T11:27:36.613Z</time>
      </trkpt>
      <trkpt lat="47.462005" lon="8.191768">
        <ele>463.492024</ele>
        <time>2021-11-22T11:27:38.598Z</time>
      </trkpt>
      <trkpt lat="47.462246" lon="8.192138">
        <ele>461.845678</ele>
        <time>2021-11-22T11:27:42.061Z</time>
      </trkpt>
      <trkpt lat="47.462445" lon="8.192727">
        <ele>459.735750</ele>
        <time>2021-11-22T11:27:46.333Z</time>
      </trkpt>
      <trkpt lat="47.462460" lon="8.192770">
        <ele>459.580702</ele>
        <time>2021-11-22T11:27:46.614Z</time>
      </trkpt>
      <trkpt lat="47.462745" lon="8.193715">
        <ele>456.264959</ele>
        <time>2021-11-22T11:27:52.952Z</time>
      </trkpt>
      <trkpt lat="47.462839" lon="8.194449">
        <ele>453.624658</ele>
        <time>2021-11-22T11:27:57.469Z</time>
      </trkpt>
      <trkpt lat="47.462909" lon="8.194650">
        <ele>452.816579</ele>
        <time>2021-11-22T11:27:58.888Z</time>
      </trkpt>
      <trkpt lat="47.463018" lon="8.194824">
        <ele>451.968785</ele>
        <time>2021-11-22T11:28:00.297Z</time>
      </trkpt>
      <trkpt lat="47.463197" lon="8.195049">
        <ele>450.726984</ele>
        <time>2021-11-22T11:28:02.467Z</time>
      </trkpt>
      <trkpt lat="47.463286" lon="8.195247">
        <ele>449.877207</ele>
        <time>2021-11-22T11:28:03.953Z</time>
      </trkpt>
      <trkpt lat="47.463524" lon="8.196186">
        <ele>446.459691</ele>
        <time>2021-11-22T11:28:10.554Z</time>
      </trkpt>
      <trkpt lat="47.464498" lon="8.197837">
        <ele>444.948409</ele>
        <time>2021-11-22T11:28:29.639Z</time>
      </trkpt>
      <trkpt lat="47.464851" lon="8.198597">
        <ele>444.160732</ele>
        <time>2021-11-22T11:28:39.094Z</time>
      </trkpt>
      <trkpt lat="47.465023" lon="8.198841">
        <ele>443.812846</ele>
        <time>2021-11-22T11:28:42.096Z</time>
      </trkpt>
      <trkpt lat="47.465160" lon="8.198941">
        <ele>443.589834</ele>
        <time>2021-11-22T11:28:44.268Z</time>
      </trkpt>
      <trkpt lat="47.465519" lon="8.199166">
        <ele>443.020675</ele>
        <time>2021-11-22T11:28:48.978Z</time>
      </trkpt>
      <trkpt lat="47.465621" lon="8.199219">
        <ele>442.862858</ele>
        <time>2021-11-22T11:28:50.086Z</time>
      </trkpt>
      <trkpt lat="47.465949" lon="8.199446">
        <ele>442.334239</ele>
        <time>2021-11-22T11:28:53.948Z</time>
      </trkpt>
      <trkpt lat="47.467079" lon="8.199804">
        <ele>438.224660</ele>
        <time>2021-11-22T11:29:05.526Z</time>
      </trkpt>
      <trkpt lat="47.467106" lon="8.199813">
        <ele>438.113926</ele>
        <time>2021-11-22T11:29:05.800Z</time>
      </trkpt>
      <trkpt lat="47.467132" lon="8.199823">
        <ele>438.006442</ele>
        <time>2021-11-22T11:29:06.048Z</time>
      </trkpt>
      <trkpt lat="47.467331" lon="8.199901">
        <ele>437.182773</ele>
        <time>2021-11-22T11:29:07.959Z</time>
      </trkpt>
      <trkpt lat="47.467893" lon="8.200303">
        <ele>434.682910</ele>
        <time>2021-11-22T11:29:13.884Z</time>
      </trkpt>
      <trkpt lat="47.468370" lon="8.200800">
        <ele>432.315391</ele>
        <time>2021-11-22T11:29:19.562Z</time>
      </trkpt>
      <trkpt lat="47.468505" lon="8.200920">
        <ele>431.676293</ele>
        <time>2021-11-22T11:29:21.052Z</time>
      </trkpt>
      <trkpt lat="47.468685" lon="8.201052">
        <ele>430.861059</ele>
        <time>2021-11-22T11:29:23.097Z</time>
      </trkpt>
      <trkpt lat="47.468931" lon="8.201223">
        <ele>429.758117</ele>
        <time>2021-11-22T11:29:25.783Z</time>
      </trkpt>
      <trkpt lat="47.469900" lon="8.201867">
        <ele>424.759016</ele>
        <time>2021-11-22T11:29:36.200Z</time>
      </trkpt>
      <trkpt lat="47.470505" lon="8.202123">
        <ele>421.367064</ele>
        <time>2021-11-22T11:29:42.152Z</time>
      </trkpt>
      <trkpt lat="47.471330" lon="8.202856">
        <ele>414.703489</ele>
        <time>2021-11-22T11:29:50.825Z</time>
      </trkpt>
      <trkpt lat="47.471612" lon="8.203197">
        <ele>411.003903</ele>
        <time>2021-11-22T11:29:54.039Z</time>
      </trkpt>
      <trkpt lat="47.471769" lon="8.203463">
        <ele>408.579265</ele>
        <time>2021-11-22T11:29:56.087Z</time>
      </trkpt>
      <trkpt lat="47.472410" lon="8.204820">
        <ele>396.866920</ele>
        <time>2021-11-22T11:30:05.550Z</time>
      </trkpt>
      <trkpt lat="47.472482" lon="8.205146">
        <ele>394.168280</ele>
        <time>2021-11-22T11:30:07.476Z</time>
      </trkpt>
      <trkpt lat="47.472560" lon="8.205595">
        <ele>390.520444</ele>
        <time>2021-11-22T11:30:10.109Z</time>
      </trkpt>
      <trkpt lat="47.472616" lon="8.206000">
        <ele>387.267653</ele>
        <time>2021-11-22T11:30:12.485Z</time>
      </trkpt>
      <trkpt lat="47.472646" lon="8.206321">
        <ele>384.717793</ele>
        <time>2021-11-22T11:30:14.340Z</time>
      </trkpt>
      <trkpt lat="47.472655" lon="8.206414">
        <ele>383.978549</ele>
        <time>2021-11-22T11:30:14.887Z</time>
      </trkpt>
      <trkpt lat="47.472669" lon="8.206480">
        <ele>383.434248</ele>
        <time>2021-11-22T11:30:15.284Z</time>
      </trkpt>
      <trkpt lat="47.472695" lon="8.206506">
        <ele>383.068925</ele>
        <time>2021-11-22T11:30:15.550Z</time>
      </trkpt>
      <trkpt lat="47.472731" lon="8.206522">
        <ele>382.631347</ele>
        <time>2021-11-22T11:30:15.866Z</time>
      </trkpt>
      <trkpt lat="47.472802" lon="8.206671">
        <ele>381.196881</ele>
        <time>2021-11-22T11:30:16.908Z</time>
      </trkpt>
      <trkpt lat="47.473161" lon="8.207355">
        <ele>376.418999</ele>
        <time>2021-11-22T11:30:21.971Z</time>
      </trkpt>
      <trkpt lat="47.473544" lon="8.208109">
        <ele>372.546575</ele>
        <time>2021-11-22T11:30:27.738Z</time>
      </trkpt>
      <trkpt lat="47.473734" lon="8.208523">
        <ele>370.492036</ele>
        <time>2021-11-22T11:30:30.961Z</time>
      </trkpt>
      <trkpt lat="47.473798" lon="8.208703">
        <ele>369.657001</ele>
        <time>2021-11-22T11:30:32.299Z</time>
      </trkpt>
      <trkpt lat="47.473834" lon="8.208700">
        <ele>369.437984</ele>
        <time>2021-11-22T11:30:32.866Z</time>
      </trkpt>
      <trkpt lat="47.474250" lon="8.208662">
        <ele>367.312796</ele>
        <time>2021-11-22T11:30:39.167Z</time>
      </trkpt>
      <trkpt lat="47.474375" lon="8.208649">
        <ele>366.933979</ele>
        <time>2021-11-22T11:30:41.199Z</time>
      </trkpt>
      <trkpt lat="47.474726" lon="8.208611">
        <ele>365.870042</ele>
        <time>2021-11-22T11:30:46.746Z</time>
      </trkpt>
      <trkpt lat="47.474804" lon="8.208603">
        <ele>365.633677</ele>
        <time>2021-11-22T11:30:47.897Z</time>
      </trkpt>
      <trkpt lat="47.475121" lon="8.208547">
        <ele>364.668555</ele>
        <time>2021-11-22T11:30:52.748Z</time>
      </trkpt>
      <trkpt lat="47.475205" lon="8.208521">
        <ele>364.409119</ele>
        <time>2021-11-22T11:30:53.978Z</time>
      </trkpt>
      <trkpt lat="47.475519" lon="8.208422">
        <ele>363.438558</ele>
        <time>2021-11-22T11:30:58.663Z</time>
      </trkpt>
      <trkpt lat="47.475849" lon="8.208319">
        <ele>362.418985</ele>
        <time>2021-11-22T11:31:03.439Z</time>
      </trkpt>
      <trkpt lat="47.476173" lon="8.208228">
        <ele>361.315817</ele>
        <time>2021-11-22T11:31:08.031Z</time>
      </trkpt>
      <trkpt lat="47.477150" lon="8.207947">
        <ele>357.933735</ele>
        <time>2021-11-22T11:31:22.057Z</time>
      </trkpt>
      <trkpt lat="47.477332" lon="8.207932">
        <ele>357.314324</ele>
        <time>2021-11-22T11:31:24.821Z</time>
      </trkpt>
      <trkpt lat="47.477440" lon="8.208012">
        <ele>356.903905</ele>
        <time>2021-11-22T11:31:26.591Z</time>
      </trkpt>
      <trkpt lat="47.477711" lon="8.208188">
        <ele>356.065854</ele>
        <time>2021-11-22T11:31:31.192Z</time>
      </trkpt>
      <trkpt lat="47.477797" lon="8.208188">
        <ele>355.956458</ele>
        <time>2021-11-22T11:31:32.484Z</time>
      </trkpt>
      <trkpt lat="47.477903" lon="8.208057">
        <ele>355.780770</ele>
        <time>2021-11-22T11:31:34.642Z</time>
      </trkpt>
      <trkpt lat="47.478011" lon="8.207954">
        <ele>355.617322</ele>
        <time>2021-11-22T11:31:36.754Z</time>
      </trkpt>
      <trkpt lat="47.478096" lon="8.207917">
        <ele>355.504615</ele>
        <time>2021-11-22T11:31:37.709Z</time>
      </trkpt>
      <trkpt lat="47.478169" lon="8.207954">
        <ele>355.406458</ele>
        <time>2021-11-22T11:31:38.583Z</time>
      </trkpt>
      <trkpt lat="47.479045" lon="8.208672">
        <ele>354.132586</ele>
        <time>2021-11-22T11:31:50.942Z</time>
      </trkpt>
      <trkpt lat="47.479156" lon="8.208766">
        <ele>353.969897</ele>
        <time>2021-11-22T11:31:52.518Z</time>
      </trkpt>
      <trkpt lat="47.479582" lon="8.209114">
        <ele>353.783846</ele>
        <time>2021-11-22T11:31:59.609Z</time>
      </trkpt>
      <trkpt lat="47.479940" lon="8.209401">
        <ele>353.691175</ele>
        <time>2021-11-22T11:32:05.811Z</time>
      </trkpt>
      <trkpt lat="47.480125" lon="8.209549">
        <ele>353.643310</ele>
        <time>2021-11-22T11:32:08.811Z</time>
      </trkpt>
      <trkpt lat="47.480334" lon="8.209719">
        <ele>353.589028</ele>
        <time>2021-11-22T11:32:12.043Z</time>
      </trkpt>
      <trkpt lat="47.480624" lon="8.209954">
        <ele>353.513774</ele>
        <time>2021-11-22T11:32:16.447Z</time>
      </trkpt>
      <trkpt lat="47.480991" lon="8.210252">
        <ele>353.456465</ele>
        <time>2021-11-22T11:32:22.089Z</time>
      </trkpt>
      <trkpt lat="47.481057" lon="8.210305">
        <ele>353.452269</ele>
        <time>2021-11-22T11:32:23.195Z</time>
      </trkpt>
      <trkpt lat="47.481370" lon="8.210556">
        <ele>353.432372</ele>
        <time>2021-11-22T11:32:29.148Z</time>
      </trkpt>
      <trkpt lat="47.481427" lon="8.210616">
        <ele>353.428462</ele>
        <time>2021-11-22T11:32:30.641Z</time>
      </trkpt>
      <trkpt lat="47.481444" lon="8.210648">
        <ele>353.426925</ele>
        <time>2021-11-22T11:32:31.219Z</time>
      </trkpt>
      <trkpt lat="47.481457" lon="8.210675">
        <ele>353.425673</ele>
        <time>2021-11-22T11:32:31.533Z</time>
      </trkpt>
      <trkpt lat="47.481464" lon="8.210854">
        <ele>353.418900</ele>
        <time>2021-11-22T11:32:33.532Z</time>
      </trkpt>
      <trkpt lat="47.481456" lon="8.210884">
        <ele>353.417682</ele>
        <time>2021-11-22T11:32:33.918Z</time>
      </trkpt>
      <trkpt lat="47.481371" lon="8.211205">
        <ele>353.404660</ele>
        <time>2021-11-22T11:32:37.751Z</time>
      </trkpt>
      <trkpt lat="47.481494" lon="8.211800">
        <ele>353.381159</ele>
        <time>2021-11-22T11:32:43.395Z</time>
      </trkpt>
      <trkpt lat="47.481547" lon="8.212002">
        <ele>353.372974</ele>
        <time>2021-11-22T11:32:45.238Z</time>
      </trkpt>
      <trkpt lat="47.481621" lon="8.212312">
        <ele>353.273453</ele>
        <time>2021-11-22T11:32:48.112Z</time>
      </trkpt>
      <trkpt lat="47.481643" lon="8.212393">
        <ele>353.233071</ele>
        <time>2021-11-22T11:32:48.840Z</time>
      </trkpt>
      <trkpt lat="47.481661" lon="8.212456">
        <ele>353.201431</ele>
        <time>2021-11-22T11:32:49.410Z</time>
      </trkpt>
      <trkpt lat="47.481628" lon="8.212489">
        <ele>353.174169</ele>
        <time>2021-11-22T11:32:49.925Z</time>
      </trkpt>
      <trkpt lat="47.481605" lon="8.212534">
        <ele>353.148070</ele>
        <time>2021-11-22T11:32:50.400Z</time>
      </trkpt>
      <trkpt lat="47.481592" lon="8.212589">
        <ele>353.121117</ele>
        <time>2021-11-22T11:32:51.381Z</time>
      </trkpt>
      <trkpt lat="47.481590" lon="8.212624">
        <ele>353.104869</ele>
        <time>2021-11-22T11:32:51.829Z</time>
      </trkpt>
      <trkpt lat="47.481600" lon="8.212692">
        <ele>353.072678</ele>
        <time>2021-11-22T11:32:52.365Z</time>
      </trkpt>
      <trkpt lat="47.481612" lon="8.212723">
        <ele>353.056152</ele>
        <time>2021-11-22T11:32:52.675Z</time>
      </trkpt>
      <trkpt lat="47.481643" lon="8.212769">
        <ele>353.026102</ele>
        <time>2021-11-22T11:32:53.151Z</time>
      </trkpt>
      <trkpt lat="47.481727" lon="8.212799">
        <ele>352.966956</ele>
        <time>2021-11-22T11:32:54.261Z</time>
      </trkpt>
      <trkpt lat="47.481769" lon="8.212779">
        <ele>352.936756</ele>
        <time>2021-11-22T11:32:54.817Z</time>
      </trkpt>
      <trkpt lat="47.481805" lon="8.212735">
        <ele>352.904796</ele>
        <time>2021-11-22T11:32:55.394Z</time>
      </trkpt>
      <trkpt lat="47.481820" lon="8.212694">
        <ele>352.883230</ele>
        <time>2021-11-22T11:32:56.164Z</time>
      </trkpt>
      <trkpt lat="47.481827" lon="8.212675">
        <ele>352.873219</ele>
        <time>2021-11-22T11:32:56.556Z</time>
      </trkpt>
      <trkpt lat="47.481833" lon="8.212606">
        <ele>352.841038</ele>
        <time>2021-11-22T11:32:57.316Z</time>
      </trkpt>
      <trkpt lat="47.481928" lon="8.212506">
        <ele>352.761239</ele>
        <time>2021-11-22T11:32:58.671Z</time>
      </trkpt>
      <trkpt lat="47.482022" lon="8.212389">
        <ele>352.677163</ele>
        <time>2021-11-22T11:33:00.275Z</time>
      </trkpt>
      <trkpt lat="47.482110" lon="8.212265">
        <ele>352.593988</ele>
        <time>2021-11-22T11:33:02.647Z</time>
      </trkpt>
      <trkpt lat="47.482150" lon="8.212211">
        <ele>352.556926</ele>
        <time>2021-11-22T11:33:03.251Z</time>
      </trkpt>
      <trkpt lat="47.482222" lon="8.212087">
        <ele>352.481304</ele>
        <time>2021-11-22T11:33:04.586Z</time>
      </trkpt>
      <trkpt lat="47.482251" lon="8.211910">
        <ele>352.397056</ele>
        <time>2021-11-22T11:33:06.380Z</time>
      </trkpt>
      <trkpt lat="47.482304" lon="8.211759">
        <ele>352.318349</ele>
        <time>2021-11-22T11:33:08.218Z</time>
      </trkpt>
      <trkpt lat="47.482356" lon="8.211577">
        <ele>352.226945</ele>
        <time>2021-11-22T11:33:09.758Z</time>
      </trkpt>
      <trkpt lat="47.482430" lon="8.211331">
        <ele>352.025867</ele>
        <time>2021-11-22T11:33:12.177Z</time>
      </trkpt>
      <trkpt lat="47.482609" lon="8.210530">
        <ele>350.777505</ele>
        <time>2021-11-22T11:33:18.140Z</time>
      </trkpt>
      <trkpt lat="47.482639" lon="8.210330">
        <ele>350.474362</ele>
        <time>2021-11-22T11:33:19.764Z</time>
      </trkpt>
      <trkpt lat="47.482751" lon="8.210427">
        <ele>350.190220</ele>
        <time>2021-11-22T11:33:21.125Z</time>
      </trkpt>
      <trkpt lat="47.483082" lon="8.210574">
        <ele>349.433553</ele>
        <time>2021-11-22T11:33:24.957Z</time>
      </trkpt>
      <trkpt lat="47.483474" lon="8.210744">
        <ele>348.539162</ele>
        <time>2021-11-22T11:33:29.295Z</time>
      </trkpt>
      <trkpt lat="47.483545" lon="8.210811">
        <ele>348.354785</ele>
        <time>2021-11-22T11:33:30.166Z</time>
      </trkpt>
      <trkpt lat="47.484340" lon="8.211173">
        <ele>345.859310</ele>
        <time>2021-11-22T11:33:38.599Z</time>
      </trkpt>
      <trkpt lat="47.484556" lon="8.211242">
        <ele>345.179602</ele>
        <time>2021-11-22T11:33:40.786Z</time>
      </trkpt>
      <trkpt lat="47.484829" lon="8.211307">
        <ele>344.329071</ele>
        <time>2021-11-22T11:33:43.521Z</time>
      </trkpt>
      <trkpt lat="47.484969" lon="8.211331">
        <ele>343.895560</ele>
        <time>2021-11-22T11:33:44.920Z</time>
      </trkpt>
      <trkpt lat="47.485116" lon="8.211349">
        <ele>343.441852</ele>
        <time>2021-11-22T11:33:46.399Z</time>
      </trkpt>
      <trkpt lat="47.485772" lon="8.211325">
        <ele>342.279727</ele>
        <time>2021-11-22T11:33:53.361Z</time>
      </trkpt>
      <trkpt lat="47.486506" lon="8.211091">
        <ele>341.561103</ele>
        <time>2021-11-22T11:34:02.614Z</time>
      </trkpt>
      <trkpt lat="47.486728" lon="8.210969">
        <ele>341.334450</ele>
        <time>2021-11-22T11:34:05.739Z</time>
      </trkpt>
      <trkpt lat="47.486888" lon="8.210854">
        <ele>341.164208</ele>
        <time>2021-11-22T11:34:08.750Z</time>
      </trkpt>
      <trkpt lat="47.487105" lon="8.211448">
        <ele>341.028372</ele>
        <time>2021-11-22T11:34:16.370Z</time>
      </trkpt>
      <trkpt lat="47.487177" lon="8.211612">
        <ele>341.076809</ele>
        <time>2021-11-22T11:34:18.840Z</time>
      </trkpt>
      <trkpt lat="47.487481" lon="8.212310">
        <ele>341.282475</ele>
        <time>2021-11-22T11:34:29.233Z</time>
      </trkpt>
      <trkpt lat="47.487567" lon="8.212471">
        <ele>341.333303</ele>
        <time>2021-11-22T11:34:31.175Z</time>
      </trkpt>
      <trkpt lat="47.488066" lon="8.213320">
        <ele>341.582110</ele>
        <time>2021-11-22T11:34:43.682Z</time>
      </trkpt>
      <trkpt lat="47.488163" lon="8.213489">
        <ele>341.424253</ele>
        <time>2021-11-22T11:34:46.094Z</time>
      </trkpt>
      <trkpt lat="47.488276" lon="8.213688">
        <ele>341.239203</ele>
        <time>2021-11-22T11:34:48.115Z</time>
      </trkpt>
      <trkpt lat="47.488405" lon="8.213963">
        <ele>341.000878</ele>
        <time>2021-11-22T11:34:51.207Z</time>
      </trkpt>
      <trkpt lat="47.488479" lon="8.214166">
        <ele>340.836672</ele>
        <time>2021-11-22T11:34:52.995Z</time>
      </trkpt>
      <trkpt lat="47.488587" lon="8.214475">
        <ele>340.589007</ele>
        <time>2021-11-22T11:34:55.951Z</time>
      </trkpt>
      <trkpt lat="47.488849" lon="8.215150">
        <ele>340.034834</ele>
        <time>2021-11-22T11:35:01.895Z</time>
      </trkpt>
      <trkpt lat="47.488945" lon="8.215373">
        <ele>339.846599</ele>
        <time>2021-11-22T11:35:03.932Z</time>
      </trkpt>
      <trkpt lat="47.489072" lon="8.215648">
        <ele>339.607530</ele>
        <time>2021-11-22T11:35:06.345Z</time>
      </trkpt>
      <trkpt lat="47.489193" lon="8.215905">
        <ele>339.380207</ele>
        <time>2021-11-22T11:35:08.819Z</time>
      </trkpt>
      <trkpt lat="47.489669" lon="8.216875">
        <ele>338.510200</ele>
        <time>2021-11-22T11:35:18.528Z</time>
      </trkpt>
      <trkpt lat="47.489795" lon="8.217148">
        <ele>338.270271</ele>
        <time>2021-11-22T11:35:21.181Z</time>
      </trkpt>
      <trkpt lat="47.490273" lon="8.218076">
        <ele>337.563351</ele>
        <time>2021-11-22T11:35:31.909Z</time>
      </trkpt>
      <trkpt lat="47.490446" lon="8.218377">
        <ele>337.389869</ele>
        <time>2021-11-22T11:35:35.107Z</time>
      </trkpt>
      <trkpt lat="47.490500" lon="8.218456">
        <ele>337.340535</ele>
        <time>2021-11-22T11:35:37.041Z</time>
      </trkpt>
      <trkpt lat="47.490673" lon="8.218724">
        <ele>337.177818</ele>
        <time>2021-11-22T11:35:39.997Z</time>
      </trkpt>
      <trkpt lat="47.490770" lon="8.218876">
        <ele>337.086032</ele>
        <time>2021-11-22T11:35:42.616Z</time>
      </trkpt>
      <trkpt lat="47.490792" lon="8.218915">
        <ele>337.063728</ele>
        <time>2021-11-22T11:35:43.011Z</time>
      </trkpt>
      <trkpt lat="47.491020" lon="8.219359">
        <ele>336.818905</ele>
        <time>2021-11-22T11:35:47.658Z</time>
      </trkpt>
      <trkpt lat="47.491037" lon="8.219389">
        <ele>336.801716</ele>
        <time>2021-11-22T11:35:47.956Z</time>
      </trkpt>
      <trkpt lat="47.491248" lon="8.219803">
        <ele>336.559513</ele>
        <time>2021-11-22T11:35:52.249Z</time>
      </trkpt>
      <trkpt lat="47.491309" lon="8.219930">
        <ele>336.462618</ele>
        <time>2021-11-22T11:35:53.393Z</time>
      </trkpt>
      <trkpt lat="47.491466" lon="8.220320">
        <ele>336.180316</ele>
        <time>2021-11-22T11:35:57.461Z</time>
      </trkpt>
      <trkpt lat="47.491769" lon="8.221069">
        <ele>335.637455</ele>
        <time>2021-11-22T11:36:04.770Z</time>
      </trkpt>
      <trkpt lat="47.491810" lon="8.221155">
        <ele>335.572004</ele>
        <time>2021-11-22T11:36:05.682Z</time>
      </trkpt>
      <trkpt lat="47.491854" lon="8.221243">
        <ele>335.503929</ele>
        <time>2021-11-22T11:36:06.596Z</time>
      </trkpt>
      <trkpt lat="47.491870" lon="8.221272">
        <ele>335.480647</ele>
        <time>2021-11-22T11:36:06.866Z</time>
      </trkpt>
      <trkpt lat="47.492004" lon="8.221524">
        <ele>335.281236</ele>
        <time>2021-11-22T11:36:09.565Z</time>
      </trkpt>
      <trkpt lat="47.492159" lon="8.221736">
        <ele>335.086999</ele>
        <time>2021-11-22T11:36:12.145Z</time>
      </trkpt>
      <trkpt lat="47.492205" lon="8.221792">
        <ele>335.032183</ele>
        <time>2021-11-22T11:36:12.916Z</time>
      </trkpt>
      <trkpt lat="47.492325" lon="8.221961">
        <ele>334.897053</ele>
        <time>2021-11-22T11:36:15.056Z</time>
      </trkpt>
      <trkpt lat="47.492461" lon="8.222136">
        <ele>334.770044</ele>
        <time>2021-11-22T11:36:17.216Z</time>
      </trkpt>
      <trkpt lat="47.492589" lon="8.222332">
        <ele>334.640239</ele>
        <time>2021-11-22T11:36:19.478Z</time>
      </trkpt>
      <trkpt lat="47.492756" lon="8.222608">
        <ele>334.463814</ele>
        <time>2021-11-22T11:36:22.617Z</time>
      </trkpt>
      <trkpt lat="47.492969" lon="8.222990">
        <ele>334.227966</ele>
        <time>2021-11-22T11:36:27.046Z</time>
      </trkpt>
      <trkpt lat="47.493226" lon="8.223453">
        <ele>333.942631</ele>
        <time>2021-11-22T11:36:32.507Z</time>
      </trkpt>
      <trkpt lat="47.493363" lon="8.223701">
        <ele>333.790090</ele>
        <time>2021-11-22T11:36:35.410Z</time>
      </trkpt>
      <trkpt lat="47.493473" lon="8.223941">
        <ele>333.648145</ele>
        <time>2021-11-22T11:36:37.850Z</time>
      </trkpt>
      <trkpt lat="47.494039" lon="8.225147">
        <ele>332.869980</ele>
        <time>2021-11-22T11:36:50.018Z</time>
      </trkpt>
      <trkpt lat="47.494443" lon="8.225749">
        <ele>332.420334</ele>
        <time>2021-11-22T11:36:57.293Z</time>
      </trkpt>
      <trkpt lat="47.494591" lon="8.225908">
        <ele>332.276896</ele>
        <time>2021-11-22T11:36:59.644Z</time>
      </trkpt>
      <trkpt lat="47.495145" lon="8.226536">
        <ele>332.080909</ele>
        <time>2021-11-22T11:37:09.042Z</time>
      </trkpt>
      <trkpt lat="47.495838" lon="8.227392">
        <ele>331.828691</ele>
        <time>2021-11-22T11:37:21.813Z</time>
      </trkpt>
      <trkpt lat="47.496520" lon="8.228357">
        <ele>331.489499</ele>
        <time>2021-11-22T11:37:35.444Z</time>
      </trkpt>
      <trkpt lat="47.496577" lon="8.228436">
        <ele>331.459742</ele>
        <time>2021-11-22T11:37:36.511Z</time>
      </trkpt>
      <trkpt lat="47.497265" lon="8.229407">
        <ele>331.097486</ele>
        <time>2021-11-22T11:37:48.941Z</time>
      </trkpt>
      <trkpt lat="47.497301" lon="8.229460">
        <ele>331.111836</ele>
        <time>2021-11-22T11:37:49.619Z</time>
      </trkpt>
      <trkpt lat="47.497468" lon="8.229707">
        <ele>331.350435</ele>
        <time>2021-11-22T11:37:52.471Z</time>
      </trkpt>
      <trkpt lat="47.497879" lon="8.230261">
        <ele>331.912240</ele>
        <time>2021-11-22T11:38:00.868Z</time>
      </trkpt>
      <trkpt lat="47.498304" lon="8.230670">
        <ele>332.424565</ele>
        <time>2021-11-22T11:38:10.732Z</time>
      </trkpt>
      <trkpt lat="47.498359" lon="8.230714">
        <ele>332.487750</ele>
        <time>2021-11-22T11:38:11.712Z</time>
      </trkpt>
      <trkpt lat="47.498438" lon="8.230780">
        <ele>332.579430</ele>
        <time>2021-11-22T11:38:14.434Z</time>
      </trkpt>
      <trkpt lat="47.498423" lon="8.230826">
        <ele>332.614305</ele>
        <time>2021-11-22T11:38:15.469Z</time>
      </trkpt>
      <trkpt lat="47.498439" lon="8.230971">
        <ele>332.714623</ele>
        <time>2021-11-22T11:38:18.047Z</time>
      </trkpt>
      <trkpt lat="47.498462" lon="8.231007">
        <ele>332.748454</ele>
        <time>2021-11-22T11:38:18.746Z</time>
      </trkpt>
      <trkpt lat="47.498491" lon="8.231031">
        <ele>332.782032</ele>
        <time>2021-11-22T11:38:19.456Z</time>
      </trkpt>
      <trkpt lat="47.498610" lon="8.230992">
        <ele>332.905496</ele>
        <time>2021-11-22T11:38:22.032Z</time>
      </trkpt>
      <trkpt lat="47.498630" lon="8.230953">
        <ele>333.069651</ele>
        <time>2021-11-22T11:38:23.139Z</time>
      </trkpt>
      <trkpt lat="47.498640" lon="8.230910">
        <ele>333.222117</ele>
        <time>2021-11-22T11:38:24.225Z</time>
      </trkpt>
      <trkpt lat="47.498621" lon="8.230777">
        <ele>333.677881</ele>
        <time>2021-11-22T11:38:26.737Z</time>
      </trkpt>
      <trkpt lat="47.498599" lon="8.230744">
        <ele>333.833315</ele>
        <time>2021-11-22T11:38:27.633Z</time>
      </trkpt>
      <trkpt lat="47.498640" lon="8.230678">
        <ele>334.133913</ele>
        <time>2021-11-22T11:38:29.377Z</time>
      </trkpt>
      <trkpt lat="47.498708" lon="8.230601">
        <ele>334.558783</ele>
        <time>2021-11-22T11:38:31.202Z</time>
      </trkpt>
      <trkpt lat="47.498803" lon="8.230476">
        <ele>335.189558</ele>
        <time>2021-11-22T11:38:35.746Z</time>
      </trkpt>
      <trkpt lat="47.498950" lon="8.230336">
        <ele>336.056997</ele>
        <time>2021-11-22T11:38:40.894Z</time>
      </trkpt>
      <trkpt lat="47.499101" lon="8.230196">
        <ele>336.941192</ele>
        <time>2021-11-22T11:38:47.245Z</time>
      </trkpt>
      <trkpt lat="47.499186" lon="8.230114">
        <ele>337.444681</ele>
        <time>2021-11-22T11:38:50.571Z</time>
      </trkpt>
      <trkpt lat="47.499299" lon="8.230008">
        <ele>338.108564</ele>
        <time>2021-11-22T11:38:54.880Z</time>
      </trkpt>
      <trkpt lat="47.499419" lon="8.229902">
        <ele>338.802037</ele>
        <time>2021-11-22T11:39:00.677Z</time>
      </trkpt>
      <trkpt lat="47.499527" lon="8.229809">
        <ele>339.422078</ele>
        <time>2021-11-22T11:39:05.303Z</time>
      </trkpt>
      <trkpt lat="47.499858" lon="8.229643">
        <ele>341.156368</ele>
        <time>2021-11-22T11:39:19.761Z</time>
      </trkpt>
      <trkpt lat="47.499877" lon="8.229637">
        <ele>341.252776</ele>
        <time>2021-11-22T11:39:20.851Z</time>
      </trkpt>
      <trkpt lat="47.500156" lon="8.229548">
        <ele>343.049880</ele>
        <time>2021-11-22T11:39:33.022Z</time>
      </trkpt>
      <trkpt lat="47.500312" lon="8.229478">
        <ele>344.226272</ele>
        <time>2021-11-22T11:39:39.710Z</time>
      </trkpt>
      <trkpt lat="47.501694" lon="8.229275">
        <ele>354.248690</ele>
        <time>2021-11-22T11:40:41.127Z</time>
      </trkpt>
      <trkpt lat="47.502314" lon="8.229202">
        <ele>358.594517</ele>
        <time>2021-11-22T11:41:09.356Z</time>
      </trkpt>
      <trkpt lat="47.502583" lon="8.229188">
        <ele>360.466428</ele>
        <time>2021-11-22T11:41:20.946Z</time>
      </trkpt>
      <trkpt lat="47.502768" lon="8.229216">
        <ele>361.759715</ele>
        <time>2021-11-22T11:41:28.644Z</time>
      </trkpt>
      <trkpt lat="47.503018" lon="8.229282">
        <ele>363.525769</ele>
        <time>2021-11-22T11:41:39.505Z</time>
      </trkpt>
      <trkpt lat="47.503261" lon="8.229353">
        <ele>365.248313</ele>
        <time>2021-11-22T11:41:49.451Z</time>
      </trkpt>
      <trkpt lat="47.503446" lon="8.229397">
        <ele>366.551393</ele>
        <time>2021-11-22T11:41:57.058Z</time>
      </trkpt>
      <trkpt lat="47.504112" lon="8.229506">
        <ele>371.228949</ele>
        <time>2021-11-22T11:42:24.185Z</time>
      </trkpt>
      <trkpt lat="47.505107" lon="8.229360">
        <ele>378.214103</ele>
        <time>2021-11-22T11:43:05.902Z</time>
      </trkpt>
      <trkpt lat="47.505262" lon="8.229318">
        <ele>379.314927</ele>
        <time>2021-11-22T11:43:13.390Z</time>
      </trkpt>
      <trkpt lat="47.505405" lon="8.229254">
        <ele>380.461291</ele>
        <time>2021-11-22T11:43:20.418Z</time>
      </trkpt>
      <trkpt lat="47.506206" lon="8.228968">
        <ele>387.465892</ele>
        <time>2021-11-22T11:44:02.215Z</time>
      </trkpt>
      <trkpt lat="47.506336" lon="8.228908">
        <ele>388.623493</ele>
        <time>2021-11-22T11:44:08.986Z</time>
      </trkpt>
      <trkpt lat="47.506531" lon="8.228779">
        <ele>390.439186</ele>
        <time>2021-11-22T11:44:20.295Z</time>
      </trkpt>
      <trkpt lat="47.506716" lon="8.228655">
        <ele>392.165571</ele>
        <time>2021-11-22T11:44:30.638Z</time>
      </trkpt>
      <trkpt lat="47.506893" lon="8.228509">
        <ele>393.888067</ele>
        <time>2021-11-22T11:44:41.034Z</time>
      </trkpt>
      <trkpt lat="47.507040" lon="8.228342">
        <ele>395.316568</ele>
        <time>2021-11-22T11:44:49.143Z</time>
      </trkpt>
      <trkpt lat="47.507153" lon="8.228180">
        <ele>395.972463</ele>
        <time>2021-11-22T11:44:56.773Z</time>
      </trkpt>
      <trkpt lat="47.507316" lon="8.227906">
        <ele>397.000818</ele>
        <time>2021-11-22T11:45:07.085Z</time>
      </trkpt>
      <trkpt lat="47.507461" lon="8.227592">
        <ele>398.072129</ele>
        <time>2021-11-22T11:45:17.396Z</time>
      </trkpt>
      <trkpt lat="47.507616" lon="8.227025">
        <ele>399.794939</ele>
        <time>2021-11-22T11:45:31.233Z</time>
      </trkpt>
      <trkpt lat="47.507683" lon="8.226729">
        <ele>400.674202</ele>
        <time>2021-11-22T11:45:37.270Z</time>
      </trkpt>
      <trkpt lat="47.507805" lon="8.225986">
        <ele>402.550879</ele>
        <time>2021-11-22T11:45:45.872Z</time>
      </trkpt>
      <trkpt lat="47.507815" lon="8.225694">
        <ele>401.881844</ele>
        <time>2021-11-22T11:45:48.864Z</time>
      </trkpt>
      <trkpt lat="47.507796" lon="8.225219">
        <ele>400.793009</ele>
        <time>2021-11-22T11:45:52.501Z</time>
      </trkpt>
      <trkpt lat="47.507740" lon="8.223722">
        <ele>397.362207</ele>
        <time>2021-11-22T11:46:02.203Z</time>
      </trkpt>
      <trkpt lat="47.507770" lon="8.223147">
        <ele>395.552367</ele>
        <time>2021-11-22T11:46:05.779Z</time>
      </trkpt>
      <trkpt lat="47.507847" lon="8.222079">
        <ele>390.861410</ele>
        <time>2021-11-22T11:46:12.423Z</time>
      </trkpt>
      <trkpt lat="47.508119" lon="8.222093">
        <ele>389.101692</ele>
        <time>2021-11-22T11:46:14.887Z</time>
      </trkpt>
      <trkpt lat="47.508578" lon="8.222188">
        <ele>386.105100</ele>
        <time>2021-11-22T11:46:19.053Z</time>
      </trkpt>
      <trkpt lat="47.508866" lon="8.222344">
        <ele>384.028068</ele>
        <time>2021-11-22T11:46:21.756Z</time>
      </trkpt>
      <trkpt lat="47.508971" lon="8.222418">
        <ele>383.190873</ele>
        <time>2021-11-22T11:46:22.828Z</time>
      </trkpt>
      <trkpt lat="47.509046" lon="8.222483">
        <ele>382.565220</ele>
        <time>2021-11-22T11:46:23.650Z</time>
      </trkpt>
      <trkpt lat="47.509112" lon="8.222539">
        <ele>382.017571</ele>
        <time>2021-11-22T11:46:24.288Z</time>
      </trkpt>
      <trkpt lat="47.509376" lon="8.222707">
        <ele>379.948849</ele>
        <time>2021-11-22T11:46:26.908Z</time>
      </trkpt>
      <trkpt lat="47.509695" lon="8.222762">
        <ele>377.636796</ele>
        <time>2021-11-22T11:46:29.786Z</time>
      </trkpt>
      <trkpt lat="47.509814" lon="8.222766">
        <ele>376.779875</ele>
        <time>2021-11-22T11:46:30.814Z</time>
      </trkpt>
      <trkpt lat="47.509881" lon="8.222768">
        <ele>376.297433</ele>
        <time>2021-11-22T11:46:31.401Z</time>
      </trkpt>
      <trkpt lat="47.510085" lon="8.222719">
        <ele>374.809601</ele>
        <time>2021-11-22T11:46:33.354Z</time>
      </trkpt>
      <trkpt lat="47.510209" lon="8.222651">
        <ele>373.857632</ele>
        <time>2021-11-22T11:46:34.488Z</time>
      </trkpt>
      <trkpt lat="47.510363" lon="8.222539">
        <ele>372.622412</ele>
        <time>2021-11-22T11:46:36.068Z</time>
      </trkpt>
      <trkpt lat="47.510506" lon="8.222436">
        <ele>371.660458</ele>
        <time>2021-11-22T11:46:37.453Z</time>
      </trkpt>
      <trkpt lat="47.510622" lon="8.222346">
        <ele>371.045267</ele>
        <time>2021-11-22T11:46:38.654Z</time>
      </trkpt>
      <trkpt lat="47.510851" lon="8.222198">
        <ele>369.871532</ele>
        <time>2021-11-22T11:46:40.917Z</time>
      </trkpt>
      <trkpt lat="47.511269" lon="8.221968">
        <ele>367.776792</ele>
        <time>2021-11-22T11:46:45.046Z</time>
      </trkpt>
      <trkpt lat="47.511626" lon="8.221789">
        <ele>366.006257</ele>
        <time>2021-11-22T11:46:48.752Z</time>
      </trkpt>
      <trkpt lat="47.511746" lon="8.221733">
        <ele>365.415229</ele>
        <time>2021-11-22T11:46:49.996Z</time>
      </trkpt>
      <trkpt lat="47.511790" lon="8.221712">
        <ele>365.198069</ele>
        <time>2021-11-22T11:46:50.452Z</time>
      </trkpt>
      <trkpt lat="47.512035" lon="8.221687">
        <ele>364.044474</ele>
        <time>2021-11-22T11:46:53.097Z</time>
      </trkpt>
      <trkpt lat="47.512129" lon="8.221747">
        <ele>363.563629</ele>
        <time>2021-11-22T11:46:54.108Z</time>
      </trkpt>
      <trkpt lat="47.512225" lon="8.221417">
        <ele>363.246470</ele>
        <time>2021-11-22T11:46:56.897Z</time>
      </trkpt>
      <trkpt lat="47.512613" lon="8.220094">
        <ele>361.998765</ele>
        <time>2021-11-22T11:47:08.337Z</time>
      </trkpt>
      <trkpt lat="47.512799" lon="8.219477">
        <ele>361.414276</ele>
        <time>2021-11-22T11:47:14.449Z</time>
      </trkpt>
      <trkpt lat="47.513038" lon="8.218677">
        <ele>361.066088</ele>
        <time>2021-11-22T11:47:22.356Z</time>
      </trkpt>
      <trkpt lat="47.513295" lon="8.217786">
        <ele>360.804655</ele>
        <time>2021-11-22T11:47:30.992Z</time>
      </trkpt>
      <trkpt lat="47.513508" lon="8.217093">
        <ele>360.599205</ele>
        <time>2021-11-22T11:47:37.897Z</time>
      </trkpt>
      <trkpt lat="47.513641" lon="8.216562">
        <ele>360.622698</ele>
        <time>2021-11-22T11:47:43.323Z</time>
      </trkpt>
      <trkpt lat="47.513699" lon="8.216284">
        <ele>360.704536</ele>
        <time>2021-11-22T11:47:46.290Z</time>
      </trkpt>
      <trkpt lat="47.513771" lon="8.215830">
        <ele>360.835704</ele>
        <time>2021-11-22T11:47:51.254Z</time>
      </trkpt>
      <trkpt lat="47.513823" lon="8.215234">
        <ele>361.004732</ele>
        <time>2021-11-22T11:47:57.994Z</time>
      </trkpt>
      <trkpt lat="47.513841" lon="8.214781">
        <ele>361.132366</ele>
        <time>2021-11-22T11:48:03.223Z</time>
      </trkpt>
      <trkpt lat="47.513856" lon="8.214013">
        <ele>361.454314</ele>
        <time>2021-11-22T11:48:12.953Z</time>
      </trkpt>
      <trkpt lat="47.513868" lon="8.212415">
        <ele>362.616732</ele>
        <time>2021-11-22T11:48:33.697Z</time>
      </trkpt>
      <trkpt lat="47.513868" lon="8.212369">
        <ele>362.650192</ele>
        <time>2021-11-22T11:48:34.680Z</time>
      </trkpt>
      <trkpt lat="47.513892" lon="8.211277">
        <ele>363.469913</ele>
        <time>2021-11-22T11:48:48.661Z</time>
      </trkpt>
      <trkpt lat="47.513892" lon="8.210732">
        <ele>363.910168</ele>
        <time>2021-11-22T11:48:56.135Z</time>
      </trkpt>
      <trkpt lat="47.513886" lon="8.210522">
        <ele>364.079959</ele>
        <time>2021-11-22T11:48:58.811Z</time>
      </trkpt>
      <trkpt lat="47.513875" lon="8.210161">
        <ele>364.371874</ele>
        <time>2021-11-22T11:49:03.722Z</time>
      </trkpt>
      <trkpt lat="47.513828" lon="8.209683">
        <ele>364.762076</ele>
        <time>2021-11-22T11:49:09.551Z</time>
      </trkpt>
      <trkpt lat="47.513775" lon="8.209324">
        <ele>365.058926</ele>
        <time>2021-11-22T11:49:14.208Z</time>
      </trkpt>
      <trkpt lat="47.513709" lon="8.208886">
        <ele>365.442288</ele>
        <time>2021-11-22T11:49:20.265Z</time>
      </trkpt>
      <trkpt lat="47.513709" lon="8.208886">
        <ele>365.442288</ele>
        <time>2021-11-22T11:49:20.268Z</time>
      </trkpt>
      <trkpt lat="47.513709" lon="8.208886">
        <ele>365.442288</ele>
        <time>2021-11-22T11:49:20.283Z</time>
      </trkpt>
      <trkpt lat="47.513663" lon="8.208550">
        <ele>365.831389</ele>
        <time>2021-11-22T11:49:25.044Z</time>
      </trkpt>
      <trkpt lat="47.513624" lon="8.207827">
        <ele>366.654575</ele>
        <time>2021-11-22T11:49:36.169Z</time>
      </trkpt>
      <trkpt lat="47.513645" lon="8.207545">
        <ele>366.976572</ele>
        <time>2021-11-22T11:49:40.297Z</time>
      </trkpt>
      <trkpt lat="47.513696" lon="8.207044">
        <ele>367.551607</ele>
        <time>2021-11-22T11:49:48.110Z</time>
      </trkpt>
      <trkpt lat="47.513742" lon="8.206593">
        <ele>368.069276</ele>
        <time>2021-11-22T11:49:54.866Z</time>
      </trkpt>
      <trkpt lat="47.513745" lon="8.206554">
        <ele>368.113825</ele>
        <time>2021-11-22T11:49:55.394Z</time>
      </trkpt>
      <trkpt lat="47.513764" lon="8.206386">
        <ele>368.307152</ele>
        <time>2021-11-22T11:49:57.860Z</time>
      </trkpt>
      <trkpt lat="47.513770" lon="8.206327">
        <ele>368.374869</ele>
        <time>2021-11-22T11:49:58.705Z</time>
      </trkpt>
      <trkpt lat="47.513818" lon="8.205878">
        <ele>368.848956</ele>
        <time>2021-11-22T11:50:05.053Z</time>
      </trkpt>
      <trkpt lat="47.514101" lon="8.203192">
        <ele>371.636850</ele>
        <time>2021-11-22T11:50:43.647Z</time>
      </trkpt>
      <trkpt lat="47.514137" lon="8.202858">
        <ele>371.962242</ele>
        <time>2021-11-22T11:50:48.090Z</time>
      </trkpt>
      <trkpt lat="47.514148" lon="8.202750">
        <ele>372.067319</ele>
        <time>2021-11-22T11:50:51.091Z</time>
      </trkpt>
      <trkpt lat="47.514153" lon="8.202692">
        <ele>372.123571</ele>
        <time>2021-11-22T11:50:52.723Z</time>
      </trkpt>
      <trkpt lat="47.514163" lon="8.202591">
        <ele>372.221777</ele>
        <time>2021-11-22T11:50:54.032Z</time>
      </trkpt>
      <trkpt lat="47.514194" lon="8.202298">
        <ele>372.507096</ele>
        <time>2021-11-22T11:50:58.029Z</time>
      </trkpt>
      <trkpt lat="47.514380" lon="8.200496">
        <ele>374.352364</ele>
        <time>2021-11-22T11:51:23.812Z</time>
      </trkpt>
      <trkpt lat="47.514434" lon="8.200030">
        <ele>374.884634</ele>
        <time>2021-11-22T11:51:30.468Z</time>
      </trkpt>
      <trkpt lat="47.514486" lon="8.199566">
        <ele>375.414128</ele>
        <time>2021-11-22T11:51:37.507Z</time>
      </trkpt>
      <trkpt lat="47.514662" lon="8.197887">
        <ele>377.410280</ele>
        <time>2021-11-22T11:52:02.211Z</time>
      </trkpt>
      <trkpt lat="47.514695" lon="8.197605">
        <ele>377.776808</ele>
        <time>2021-11-22T11:52:06.722Z</time>
      </trkpt>
      <trkpt lat="47.514693" lon="8.197267">
        <ele>378.209688</ele>
        <time>2021-11-22T11:52:11.680Z</time>
      </trkpt>
      <trkpt lat="47.514678" lon="8.196978">
        <ele>378.580890</ele>
        <time>2021-11-22T11:52:16.079Z</time>
      </trkpt>
      <trkpt lat="47.514654" lon="8.196629">
        <ele>379.030152</ele>
        <time>2021-11-22T11:52:21.621Z</time>
      </trkpt>
      <trkpt lat="47.514640" lon="8.196435">
        <ele>379.280015</ele>
        <time>2021-11-22T11:52:24.532Z</time>
      </trkpt>
      <trkpt lat="47.514636" lon="8.196041">
        <ele>379.784653</ele>
        <time>2021-11-22T11:52:30.689Z</time>
      </trkpt>
      <trkpt lat="47.514645" lon="8.195876">
        <ele>379.996650</ele>
        <time>2021-11-22T11:52:33.119Z</time>
      </trkpt>
      <trkpt lat="47.514671" lon="8.195551">
        <ele>380.396122</ele>
        <time>2021-11-22T11:52:38.432Z</time>
      </trkpt>
      <trkpt lat="47.514741" lon="8.195037">
        <ele>381.021209</ele>
        <time>2021-11-22T11:52:46.326Z</time>
      </trkpt>
      <trkpt lat="47.514758" lon="8.194884">
        <ele>381.206056</ele>
        <time>2021-11-22T11:52:48.476Z</time>
      </trkpt>
      <trkpt lat="47.514782" lon="8.194675">
        <ele>381.458787</ele>
        <time>2021-11-22T11:52:51.779Z</time>
      </trkpt>
      <trkpt lat="47.514831" lon="8.193830">
        <ele>382.469841</ele>
        <time>2021-11-22T11:53:03.987Z</time>
      </trkpt>
      <trkpt lat="47.514811" lon="8.193495">
        <ele>382.870761</ele>
        <time>2021-11-22T11:53:09.291Z</time>
      </trkpt>
      <trkpt lat="47.514781" lon="8.193252">
        <ele>383.165247</ele>
        <time>2021-11-22T11:53:12.868Z</time>
      </trkpt>
      <trkpt lat="47.514531" lon="8.191640">
        <ele>384.989659</ele>
        <time>2021-11-22T11:53:35.651Z</time>
      </trkpt>
      <trkpt lat="47.514510" lon="8.191384">
        <ele>385.272351</ele>
        <time>2021-11-22T11:53:39.518Z</time>
      </trkpt>
      <trkpt lat="47.514501" lon="8.191184">
        <ele>385.492079</ele>
        <time>2021-11-22T11:53:42.818Z</time>
      </trkpt>
      <trkpt lat="47.514488" lon="8.190683">
        <ele>386.041684</ele>
        <time>2021-11-22T11:53:50.071Z</time>
      </trkpt>
      <trkpt lat="47.514498" lon="8.190507">
        <ele>386.238760</ele>
        <time>2021-11-22T11:53:52.451Z</time>
      </trkpt>
      <trkpt lat="47.514507" lon="8.190335">
        <ele>386.494542</ele>
        <time>2021-11-22T11:53:55.084Z</time>
      </trkpt>
      <trkpt lat="47.514598" lon="8.189522">
        <ele>387.716384</ele>
        <time>2021-11-22T11:54:07.638Z</time>
      </trkpt>
      <trkpt lat="47.514691" lon="8.189289">
        <ele>388.117658</ele>
        <time>2021-11-22T11:54:11.522Z</time>
      </trkpt>
      <trkpt lat="47.514763" lon="8.189216">
        <ele>388.309221</ele>
        <time>2021-11-22T11:54:13.694Z</time>
      </trkpt>
      <trkpt lat="47.514808" lon="8.189201">
        <ele>388.410478</ele>
        <time>2021-11-22T11:54:14.954Z</time>
      </trkpt>
      <trkpt lat="47.515385" lon="8.189286">
        <ele>389.683374</ele>
        <time>2021-11-22T11:54:28.632Z</time>
      </trkpt>
      <trkpt lat="47.515418" lon="8.189292">
        <ele>389.756360</ele>
        <time>2021-11-22T11:54:29.624Z</time>
      </trkpt>
      <trkpt lat="47.515505" lon="8.189300">
        <ele>389.947713</ele>
        <time>2021-11-22T11:54:32.138Z</time>
      </trkpt>
      <trkpt lat="47.515617" lon="8.189298">
        <ele>390.201990</ele>
        <time>2021-11-22T11:54:34.967Z</time>
      </trkpt>
      <trkpt lat="47.515726" lon="8.189285">
        <ele>390.544348</ele>
        <time>2021-11-22T11:54:37.513Z</time>
      </trkpt>
      <trkpt lat="47.515946" lon="8.189248">
        <ele>391.237542</ele>
        <time>2021-11-22T11:54:43.786Z</time>
      </trkpt>
      <trkpt lat="47.516213" lon="8.189152">
        <ele>392.097747</ele>
        <time>2021-11-22T11:54:51.432Z</time>
      </trkpt>
      <trkpt lat="47.516390" lon="8.189083">
        <ele>392.670775</ele>
        <time>2021-11-22T11:54:56.273Z</time>
      </trkpt>
      <trkpt lat="47.516551" lon="8.189020">
        <ele>393.192131</ele>
        <time>2021-11-22T11:55:00.635Z</time>
      </trkpt>
      <trkpt lat="47.516623" lon="8.188992">
        <ele>393.425191</ele>
        <time>2021-11-22T11:55:02.635Z</time>
      </trkpt>
      <trkpt lat="47.516826" lon="8.188896">
        <ele>394.092362</ele>
        <time>2021-11-22T11:55:08.543Z</time>
      </trkpt>
      <trkpt lat="47.516944" lon="8.188840">
        <ele>394.480303</ele>
        <time>2021-11-22T11:55:11.863Z</time>
      </trkpt>
      <trkpt lat="47.517117" lon="8.188760">
        <ele>395.047724</ele>
        <time>2021-11-22T11:55:16.985Z</time>
      </trkpt>
      <trkpt lat="47.517285" lon="8.188659">
        <ele>395.615392</ele>
        <time>2021-11-22T11:55:22.073Z</time>
      </trkpt>
      <trkpt lat="47.517536" lon="8.188495">
        <ele>396.552071</ele>
        <time>2021-11-22T11:55:30.156Z</time>
      </trkpt>
      <trkpt lat="47.517762" lon="8.188338">
        <ele>397.424415</ele>
        <time>2021-11-22T11:55:37.715Z</time>
      </trkpt>
      <trkpt lat="47.518144" lon="8.188042">
        <ele>398.931031</ele>
        <time>2021-11-22T11:55:50.851Z</time>
      </trkpt>
      <trkpt lat="47.518797" lon="8.187487">
        <ele>401.562094</ele>
        <time>2021-11-22T11:56:12.168Z</time>
      </trkpt>
      <trkpt lat="47.518919" lon="8.187383">
        <ele>402.054019</ele>
        <time>2021-11-22T11:56:15.964Z</time>
      </trkpt>
      <trkpt lat="47.519082" lon="8.187247">
        <ele>402.701708</ele>
        <time>2021-11-22T11:56:20.642Z</time>
      </trkpt>
      <trkpt lat="47.519270" lon="8.187089">
        <ele>403.449633</ele>
        <time>2021-11-22T11:56:26.817Z</time>
      </trkpt>
      <trkpt lat="47.519650" lon="8.186763">
        <ele>404.969112</ele>
        <time>2021-11-22T11:56:39.362Z</time>
      </trkpt>
      <trkpt lat="47.519919" lon="8.186523">
        <ele>406.055709</ele>
        <time>2021-11-22T11:56:48.494Z</time>
      </trkpt>
      <trkpt lat="47.520283" lon="8.186229">
        <ele>407.490277</ele>
        <time>2021-11-22T11:57:00.327Z</time>
      </trkpt>
      <trkpt lat="47.520432" lon="8.186093">
        <ele>408.095869</ele>
        <time>2021-11-22T11:57:05.445Z</time>
      </trkpt>
      <trkpt lat="47.520524" lon="8.186006">
        <ele>408.530385</ele>
        <time>2021-11-22T11:57:08.620Z</time>
      </trkpt>
      <trkpt lat="47.520676" lon="8.185836">
        <ele>409.423266</ele>
        <time>2021-11-22T11:57:14.239Z</time>
      </trkpt>
      <trkpt lat="47.521014" lon="8.185264">
        <ele>411.829242</ele>
        <time>2021-11-22T11:57:30.480Z</time>
      </trkpt>
      <trkpt lat="47.521136" lon="8.184787">
        <ele>413.443854</ele>
        <time>2021-11-22T11:57:42.340Z</time>
      </trkpt>
      <trkpt lat="47.521251" lon="8.183982">
        <ele>416.048474</ele>
        <time>2021-11-22T11:58:02.288Z</time>
      </trkpt>
      <trkpt lat="47.521367" lon="8.183213">
        <ele>418.908264</ele>
        <time>2021-11-22T11:58:22.191Z</time>
      </trkpt>
      <trkpt lat="47.521447" lon="8.182661">
        <ele>421.058654</ele>
        <time>2021-11-22T11:58:36.407Z</time>
      </trkpt>
      <trkpt lat="47.521560" lon="8.182094">
        <ele>423.310382</ele>
        <time>2021-11-22T11:58:51.168Z</time>
      </trkpt>
      <trkpt lat="47.521670" lon="8.181716">
        <ele>424.878131</ele>
        <time>2021-11-22T11:59:02.757Z</time>
      </trkpt>
      <trkpt lat="47.521736" lon="8.181541">
        <ele>425.641589</ele>
        <time>2021-11-22T11:59:08.000Z</time>
      </trkpt>
      <trkpt lat="47.521964" lon="8.181072">
        <ele>427.677882</ele>
        <time>2021-11-22T11:59:22.578Z</time>
      </trkpt>
      <trkpt lat="47.522489" lon="8.180212">
        <ele>431.330418</ele>
        <time>2021-11-22T11:59:48.512Z</time>
      </trkpt>
      <trkpt lat="47.522561" lon="8.180084">
        <ele>431.855271</ele>
        <time>2021-11-22T11:59:53.063Z</time>
      </trkpt>
      <trkpt lat="47.522604" lon="8.180007">
        <ele>432.170072</ele>
        <time>2021-11-22T11:59:55.124Z</time>
      </trkpt>
      <trkpt lat="47.522744" lon="8.179763">
        <ele>433.178831</ele>
        <time>2021-11-22T12:00:01.323Z</time>
      </trkpt>
      <trkpt lat="47.522960" lon="8.179132">
        <ele>435.431450</ele>
        <time>2021-11-22T12:00:16.092Z</time>
      </trkpt>
      <trkpt lat="47.523042" lon="8.178308">
        <ele>438.546471</ele>
        <time>2021-11-22T12:00:34.174Z</time>
      </trkpt>
      <trkpt lat="47.523061" lon="8.177323">
        <ele>442.231845</ele>
        <time>2021-11-22T12:00:58.403Z</time>
      </trkpt>
      <trkpt lat="47.523093" lon="8.176377">
        <ele>446.074123</ele>
        <time>2021-11-22T12:01:24.621Z</time>
      </trkpt>
      <trkpt lat="47.523138" lon="8.175042">
        <ele>453.889193</ele>
        <time>2021-11-22T12:02:08.620Z</time>
      </trkpt>
      <trkpt lat="47.523512" lon="8.172934">
        <ele>467.006834</ele>
        <time>2021-11-22T12:03:27.089Z</time>
      </trkpt>
      <trkpt lat="47.523811" lon="8.171359">
        <ele>477.188129</ele>
        <time>2021-11-22T12:04:24.370Z</time>
      </trkpt>
      <trkpt lat="47.523894" lon="8.170892">
        <ele>479.640528</ele>
        <time>2021-11-22T12:04:40.270Z</time>
      </trkpt>
      <trkpt lat="47.524251" lon="8.168070">
        <ele>493.816453</ele>
        <time>2021-11-22T12:06:03.024Z</time>
      </trkpt>
      <trkpt lat="47.524502" lon="8.166796">
        <ele>500.107914</ele>
        <time>2021-11-22T12:06:40.838Z</time>
      </trkpt>
      <trkpt lat="47.524572" lon="8.166545">
        <ele>501.395312</ele>
        <time>2021-11-22T12:06:48.939Z</time>
      </trkpt>
      <trkpt lat="47.524622" lon="8.166379">
        <ele>502.257002</ele>
        <time>2021-11-22T12:06:54.078Z</time>
      </trkpt>
      <trkpt lat="47.524789" lon="8.165884">
        <ele>505.124345</ele>
        <time>2021-11-22T12:07:10.478Z</time>
      </trkpt>
      <trkpt lat="47.525278" lon="8.164811">
        <ele>512.223984</ele>
        <time>2021-11-22T12:07:52.005Z</time>
      </trkpt>
      <trkpt lat="47.525520" lon="8.164388">
        <ele>515.264573</ele>
        <time>2021-11-22T12:08:11.221Z</time>
      </trkpt>
      <trkpt lat="47.526029" lon="8.163712">
        <ele>520.749065</ele>
        <time>2021-11-22T12:08:43.773Z</time>
      </trkpt>
      <trkpt lat="47.526202" lon="8.163510">
        <ele>522.495888</ele>
        <time>2021-11-22T12:08:54.828Z</time>
      </trkpt>
      <trkpt lat="47.526614" lon="8.163062">
        <ele>526.548724</ele>
        <time>2021-11-22T12:09:18.162Z</time>
      </trkpt>
      <trkpt lat="47.526845" lon="8.162813">
        <ele>528.814159</ele>
        <time>2021-11-22T12:09:30.852Z</time>
      </trkpt>
      <trkpt lat="47.527073" lon="8.162555">
        <ele>531.089331</ele>
        <time>2021-11-22T12:09:44.868Z</time>
      </trkpt>
      <trkpt lat="47.527259" lon="8.162351">
        <ele>532.831621</ele>
        <time>2021-11-22T12:09:55.888Z</time>
      </trkpt>
      <trkpt lat="47.527699" lon="8.161810">
        <ele>536.789064</ele>
        <time>2021-11-22T12:10:19.528Z</time>
      </trkpt>
      <trkpt lat="47.527813" lon="8.161522">
        <ele>538.348974</ele>
        <time>2021-11-22T12:10:28.834Z</time>
      </trkpt>
      <trkpt lat="47.527850" lon="8.161247">
        <ele>539.659214</ele>
        <time>2021-11-22T12:10:36.901Z</time>
      </trkpt>
      <trkpt lat="47.527845" lon="8.161149">
        <ele>540.118439</ele>
        <time>2021-11-22T12:10:40.567Z</time>
      </trkpt>
      <trkpt lat="47.527842" lon="8.161073">
        <ele>540.474166</ele>
        <time>2021-11-22T12:10:42.160Z</time>
      </trkpt>
      <trkpt lat="47.527767" lon="8.160384">
        <ele>543.735189</ele>
        <time>2021-11-22T12:11:00.278Z</time>
      </trkpt>
      <trkpt lat="47.527761" lon="8.160295">
        <ele>544.153123</ele>
        <time>2021-11-22T12:11:02.113Z</time>
      </trkpt>
      <trkpt lat="47.527764" lon="8.160196">
        <ele>544.616181</ele>
        <time>2021-11-22T12:11:05.944Z</time>
      </trkpt>
      <trkpt lat="47.527794" lon="8.159980">
        <ele>545.194612</ele>
        <time>2021-11-22T12:11:11.867Z</time>
      </trkpt>
      <trkpt lat="47.527823" lon="8.159869">
        <ele>545.500776</ele>
        <time>2021-11-22T12:11:17.063Z</time>
      </trkpt>
      <trkpt lat="47.527866" lon="8.159756">
        <ele>545.834438</ele>
        <time>2021-11-22T12:11:19.892Z</time>
      </trkpt>
      <trkpt lat="47.528044" lon="8.159481">
        <ele>546.814369</ele>
        <time>2021-11-22T12:11:32.082Z</time>
      </trkpt>
      <trkpt lat="47.528235" lon="8.159313">
        <ele>547.660670</ele>
        <time>2021-11-22T12:11:41.034Z</time>
      </trkpt>
      <trkpt lat="47.528358" lon="8.159233">
        <ele>548.172453</ele>
        <time>2021-11-22T12:11:45.161Z</time>
      </trkpt>
      <trkpt lat="47.528551" lon="8.159101">
        <ele>548.982332</ele>
        <time>2021-11-22T12:11:52.159Z</time>
      </trkpt>
      <trkpt lat="47.528696" lon="8.159009">
        <ele>549.583289</ele>
        <time>2021-11-22T12:11:56.478Z</time>
      </trkpt>
      <trkpt lat="47.528773" lon="8.158954">
        <ele>549.908967</ele>
        <time>2021-11-22T12:11:57.606Z</time>
      </trkpt>
      <trkpt lat="47.528873" lon="8.158872">
        <ele>550.344428</ele>
        <time>2021-11-22T12:12:01.004Z</time>
      </trkpt>
      <trkpt lat="47.528962" lon="8.158795">
        <ele>550.737101</ele>
        <time>2021-11-22T12:12:02.020Z</time>
      </trkpt>
      <trkpt lat="47.529013" lon="8.158747">
        <ele>550.967307</ele>
        <time>2021-11-22T12:12:05.439Z</time>
      </trkpt>
      <trkpt lat="47.529039" lon="8.158720">
        <ele>551.088281</ele>
        <time>2021-11-22T12:12:05.759Z</time>
      </trkpt>
      <trkpt lat="47.529091" lon="8.158660">
        <ele>551.339408</ele>
        <time>2021-11-22T12:12:06.413Z</time>
      </trkpt>
      <trkpt lat="47.529235" lon="8.158441">
        <ele>550.478715</ele>
        <time>2021-11-22T12:12:08.517Z</time>
      </trkpt>
      <trkpt lat="47.529315" lon="8.158315">
        <ele>549.765164</ele>
        <time>2021-11-22T12:12:10.187Z</time>
      </trkpt>
      <trkpt lat="47.529437" lon="8.158073">
        <ele>548.519182</ele>
        <time>2021-11-22T12:12:12.189Z</time>
      </trkpt>
      <trkpt lat="47.529679" lon="8.157567">
        <ele>545.961004</ele>
        <time>2021-11-22T12:12:16.126Z</time>
      </trkpt>
      <trkpt lat="47.529810" lon="8.157300">
        <ele>544.599369</ele>
        <time>2021-11-22T12:12:18.216Z</time>
      </trkpt>
      <trkpt lat="47.529856" lon="8.157192">
        <ele>544.072564</ele>
        <time>2021-11-22T12:12:18.934Z</time>
      </trkpt>
      <trkpt lat="47.530071" lon="8.156701">
        <ele>541.658229</ele>
        <time>2021-11-22T12:12:22.350Z</time>
      </trkpt>
      <trkpt lat="47.530199" lon="8.156282">
        <ele>539.345071</ele>
        <time>2021-11-22T12:12:25.003Z</time>
      </trkpt>
      <trkpt lat="47.530239" lon="8.155804">
        <ele>536.244859</ele>
        <time>2021-11-22T12:12:27.807Z</time>
      </trkpt>
      <trkpt lat="47.530234" lon="8.155720">
        <ele>535.702092</ele>
        <time>2021-11-22T12:12:28.278Z</time>
      </trkpt>
      <trkpt lat="47.530211" lon="8.155580">
        <ele>534.774684</ele>
        <time>2021-11-22T12:12:29.097Z</time>
      </trkpt>
      <trkpt lat="47.530058" lon="8.154979">
        <ele>530.640486</ele>
        <time>2021-11-22T12:12:32.826Z</time>
      </trkpt>
      <trkpt lat="47.529728" lon="8.154087">
        <ele>524.093705</ele>
        <time>2021-11-22T12:12:38.825Z</time>
      </trkpt>
      <trkpt lat="47.529587" lon="8.153510">
        <ele>521.273923</ele>
        <time>2021-11-22T12:12:42.534Z</time>
      </trkpt>
      <trkpt lat="47.529529" lon="8.153239">
        <ele>520.087523</ele>
        <time>2021-11-22T12:12:44.298Z</time>
      </trkpt>
      <trkpt lat="47.529405" lon="8.152475">
        <ele>516.808349</ele>
        <time>2021-11-22T12:12:49.187Z</time>
      </trkpt>
      <trkpt lat="47.529292" lon="8.151912">
        <ele>514.357203</ele>
        <time>2021-11-22T12:12:52.842Z</time>
      </trkpt>
      <trkpt lat="47.529120" lon="8.151400">
        <ele>512.085884</ele>
        <time>2021-11-22T12:12:56.396Z</time>
      </trkpt>
      <trkpt lat="47.529014" lon="8.151078">
        <ele>511.229468</ele>
        <time>2021-11-22T12:12:58.673Z</time>
      </trkpt>
      <trkpt lat="47.528964" lon="8.150888">
        <ele>510.741958</ele>
        <time>2021-11-22T12:12:59.980Z</time>
      </trkpt>
      <trkpt lat="47.528852" lon="8.149954">
        <ele>508.474112</ele>
        <time>2021-11-22T12:13:06.371Z</time>
      </trkpt>
      <trkpt lat="47.528834" lon="8.149583">
        <ele>507.584877</ele>
        <time>2021-11-22T12:13:08.951Z</time>
      </trkpt>
      <trkpt lat="47.528815" lon="8.149196">
        <ele>506.657235</ele>
        <time>2021-11-22T12:13:11.702Z</time>
      </trkpt>
      <trkpt lat="47.528722" lon="8.148418">
        <ele>505.214417</ele>
        <time>2021-11-22T12:13:17.560Z</time>
      </trkpt>
      <trkpt lat="47.528534" lon="8.147807">
        <ele>504.257909</ele>
        <time>2021-11-22T12:13:22.981Z</time>
      </trkpt>
      <trkpt lat="47.528477" lon="8.147642">
        <ele>503.993882</ele>
        <time>2021-11-22T12:13:24.581Z</time>
      </trkpt>
      <trkpt lat="47.528291" lon="8.147059">
        <ele>503.075330</ele>
        <time>2021-11-22T12:13:29.816Z</time>
      </trkpt>
      <trkpt lat="47.528185" lon="8.146699">
        <ele>502.515851</ele>
        <time>2021-11-22T12:13:33.049Z</time>
      </trkpt>
      <trkpt lat="47.528149" lon="8.146523">
        <ele>502.253878</ele>
        <time>2021-11-22T12:13:34.328Z</time>
      </trkpt>
      <trkpt lat="47.528029" lon="8.145634">
        <ele>497.181024</ele>
        <time>2021-11-22T12:13:40.094Z</time>
      </trkpt>
      <trkpt lat="47.528031" lon="8.145045">
        <ele>493.496471</ele>
        <time>2021-11-22T12:13:43.521Z</time>
      </trkpt>
      <trkpt lat="47.528059" lon="8.144815">
        <ele>492.034503</ele>
        <time>2021-11-22T12:13:44.867Z</time>
      </trkpt>
      <trkpt lat="47.528102" lon="8.144463">
        <ele>489.796814</ele>
        <time>2021-11-22T12:13:46.930Z</time>
      </trkpt>
      <trkpt lat="47.528165" lon="8.144175">
        <ele>487.903042</ele>
        <time>2021-11-22T12:13:48.663Z</time>
      </trkpt>
      <trkpt lat="47.528319" lon="8.143633">
        <ele>483.420631</ele>
        <time>2021-11-22T12:13:51.998Z</time>
      </trkpt>
      <trkpt lat="47.528529" lon="8.143139">
        <ele>477.301203</ele>
        <time>2021-11-22T12:13:55.265Z</time>
      </trkpt>
      <trkpt lat="47.529056" lon="8.142203">
        <ele>464.525557</ele>
        <time>2021-11-22T12:14:02.040Z</time>
      </trkpt>
      <trkpt lat="47.529206" lon="8.141942">
        <ele>460.932641</ele>
        <time>2021-11-22T12:14:03.949Z</time>
      </trkpt>
      <trkpt lat="47.529330" lon="8.141745">
        <ele>458.109378</ele>
        <time>2021-11-22T12:14:05.452Z</time>
      </trkpt>
      <trkpt lat="47.529595" lon="8.141302">
        <ele>453.789219</ele>
        <time>2021-11-22T12:14:08.804Z</time>
      </trkpt>
      <trkpt lat="47.529775" lon="8.140977">
        <ele>450.869325</ele>
        <time>2021-11-22T12:14:11.206Z</time>
      </trkpt>
      <trkpt lat="47.530071" lon="8.140473">
        <ele>446.229304</ele>
        <time>2021-11-22T12:14:15.197Z</time>
      </trkpt>
      <trkpt lat="47.530742" lon="8.139379">
        <ele>437.352228</ele>
        <time>2021-11-22T12:14:23.859Z</time>
      </trkpt>
      <trkpt lat="47.531156" lon="8.138865">
        <ele>434.348816</ele>
        <time>2021-11-22T12:14:29.559Z</time>
      </trkpt>
      <trkpt lat="47.531239" lon="8.138781">
        <ele>433.789926</ele>
        <time>2021-11-22T12:14:30.385Z</time>
      </trkpt>
      <trkpt lat="47.531416" lon="8.138625">
        <ele>432.644821</ele>
        <time>2021-11-22T12:14:35.662Z</time>
      </trkpt>
      <trkpt lat="47.531449" lon="8.138596">
        <ele>432.431490</ele>
        <time>2021-11-22T12:14:36.741Z</time>
      </trkpt>
      <trkpt lat="47.531896" lon="8.138317">
        <ele>429.734686</ele>
        <time>2021-11-22T12:14:41.085Z</time>
      </trkpt>
      <trkpt lat="47.532062" lon="8.138249">
        <ele>428.796241</ele>
        <time>2021-11-22T12:14:45.215Z</time>
      </trkpt>
      <trkpt lat="47.532251" lon="8.138188">
        <ele>427.819036</ele>
        <time>2021-11-22T12:14:46.882Z</time>
      </trkpt>
      <trkpt lat="47.532921" lon="8.138051">
        <ele>424.402199</ele>
        <time>2021-11-22T12:14:53.185Z</time>
      </trkpt>
      <trkpt lat="47.533257" lon="8.137990">
        <ele>422.692077</ele>
        <time>2021-11-22T12:14:56.471Z</time>
      </trkpt>
      <trkpt lat="47.533600" lon="8.137926">
        <ele>420.945600</ele>
        <time>2021-11-22T12:14:59.750Z</time>
      </trkpt>
      <trkpt lat="47.533889" lon="8.137879">
        <ele>419.474719</ele>
        <time>2021-11-22T12:15:02.483Z</time>
      </trkpt>
      <trkpt lat="47.534074" lon="8.137846">
        <ele>418.528648</ele>
        <time>2021-11-22T12:15:04.240Z</time>
      </trkpt>
      <trkpt lat="47.534107" lon="8.137840">
        <ele>418.359842</ele>
        <time>2021-11-22T12:15:04.572Z</time>
      </trkpt>
      <trkpt lat="47.534213" lon="8.137821">
        <ele>417.817731</ele>
        <time>2021-11-22T12:15:05.546Z</time>
      </trkpt>
      <trkpt lat="47.534814" lon="8.137722">
        <ele>414.747514</ele>
        <time>2021-11-22T12:15:11.176Z</time>
      </trkpt>
      <trkpt lat="47.535048" lon="8.137685">
        <ele>413.552696</ele>
        <time>2021-11-22T12:15:13.365Z</time>
      </trkpt>
      <trkpt lat="47.535119" lon="8.137674">
        <ele>413.190247</ele>
        <time>2021-11-22T12:15:14.027Z</time>
      </trkpt>
      <trkpt lat="47.535263" lon="8.137663">
        <ele>412.458157</ele>
        <time>2021-11-22T12:15:15.406Z</time>
      </trkpt>
      <trkpt lat="47.535322" lon="8.137658">
        <ele>412.158112</ele>
        <time>2021-11-22T12:15:15.958Z</time>
      </trkpt>
      <trkpt lat="47.535430" lon="8.137649">
        <ele>411.608906</ele>
        <time>2021-11-22T12:15:16.994Z</time>
      </trkpt>
      <trkpt lat="47.535502" lon="8.137652">
        <ele>411.243202</ele>
        <time>2021-11-22T12:15:17.668Z</time>
      </trkpt>
      <trkpt lat="47.535749" lon="8.137651">
        <ele>410.162714</ele>
        <time>2021-11-22T12:15:20.033Z</time>
      </trkpt>
      <trkpt lat="47.536065" lon="8.137655">
        <ele>408.915988</ele>
        <time>2021-11-22T12:15:23.124Z</time>
      </trkpt>
      <trkpt lat="47.536180" lon="8.137660">
        <ele>408.462096</ele>
        <time>2021-11-22T12:15:24.227Z</time>
      </trkpt>
      <trkpt lat="47.536180" lon="8.137660">
        <ele>408.462096</ele>
        <time>2021-11-22T12:15:24.233Z</time>
      </trkpt>
      <trkpt lat="47.536373" lon="8.137663">
        <ele>407.700632</ele>
        <time>2021-11-22T12:15:26.111Z</time>
      </trkpt>
      <trkpt lat="47.537303" lon="8.137605">
        <ele>404.028352</ele>
        <time>2021-11-22T12:15:35.241Z</time>
      </trkpt>
      <trkpt lat="47.537561" lon="8.137544">
        <ele>403.249564</ele>
        <time>2021-11-22T12:15:38.005Z</time>
      </trkpt>
      <trkpt lat="47.537646" lon="8.137515">
        <ele>403.034066</ele>
        <time>2021-11-22T12:15:38.852Z</time>
      </trkpt>
      <trkpt lat="47.537954" lon="8.137399">
        <ele>402.248916</ele>
        <time>2021-11-22T12:15:42.279Z</time>
      </trkpt>
      <trkpt lat="47.538245" lon="8.137269">
        <ele>401.497993</ele>
        <time>2021-11-22T12:15:45.601Z</time>
      </trkpt>
      <trkpt lat="47.538326" lon="8.137234">
        <ele>401.289535</ele>
        <time>2021-11-22T12:15:46.479Z</time>
      </trkpt>
      <trkpt lat="47.539177" lon="8.136833">
        <ele>399.067473</ele>
        <time>2021-11-22T12:15:56.150Z</time>
      </trkpt>
      <trkpt lat="47.539418" lon="8.136710">
        <ele>398.369040</ele>
        <time>2021-11-22T12:15:58.919Z</time>
      </trkpt>
      <trkpt lat="47.539754" lon="8.136528">
        <ele>397.388785</ele>
        <time>2021-11-22T12:16:02.696Z</time>
      </trkpt>
      <trkpt lat="47.540238" lon="8.136236">
        <ele>395.956862</ele>
        <time>2021-11-22T12:16:08.097Z</time>
      </trkpt>
      <trkpt lat="47.540569" lon="8.135993">
        <ele>394.944657</ele>
        <time>2021-11-22T12:16:11.906Z</time>
      </trkpt>
      <trkpt lat="47.540731" lon="8.135878">
        <ele>394.452444</ele>
        <time>2021-11-22T12:16:13.814Z</time>
      </trkpt>
      <trkpt lat="47.540869" lon="8.135758">
        <ele>393.964526</ele>
        <time>2021-11-22T12:16:15.337Z</time>
      </trkpt>
      <trkpt lat="47.541466" lon="8.135315">
        <ele>391.818291</ele>
        <time>2021-11-22T12:16:22.132Z</time>
      </trkpt>
      <trkpt lat="47.541516" lon="8.135303">
        <ele>391.655480</ele>
        <time>2021-11-22T12:16:22.590Z</time>
      </trkpt>
      <trkpt lat="47.541574" lon="8.135288">
        <ele>391.466231</ele>
        <time>2021-11-22T12:16:23.168Z</time>
      </trkpt>
      <trkpt lat="47.541750" lon="8.135267">
        <ele>390.898681</ele>
        <time>2021-11-22T12:16:24.987Z</time>
      </trkpt>
      <trkpt lat="47.541919" lon="8.135253">
        <ele>390.354614</ele>
        <time>2021-11-22T12:16:26.619Z</time>
      </trkpt>
      <trkpt lat="47.542003" lon="8.135244">
        <ele>390.083907</ele>
        <time>2021-11-22T12:16:27.503Z</time>
      </trkpt>
      <trkpt lat="47.542148" lon="8.135197">
        <ele>389.606806</ele>
        <time>2021-11-22T12:16:29.032Z</time>
      </trkpt>
      <trkpt lat="47.542698" lon="8.134836">
        <ele>387.877182</ele>
        <time>2021-11-22T12:16:35.254Z</time>
      </trkpt>
      <trkpt lat="47.542844" lon="8.134643">
        <ele>387.400031</ele>
        <time>2021-11-22T12:16:37.301Z</time>
      </trkpt>
      <trkpt lat="47.542894" lon="8.134525">
        <ele>387.170701</ele>
        <time>2021-11-22T12:16:38.242Z</time>
      </trkpt>
      <trkpt lat="47.542926" lon="8.134419">
        <ele>386.979566</ele>
        <time>2021-11-22T12:16:39.192Z</time>
      </trkpt>
      <trkpt lat="47.543005" lon="8.134187">
        <ele>386.551846</ele>
        <time>2021-11-22T12:16:41.081Z</time>
      </trkpt>
      <trkpt lat="47.543075" lon="8.134036">
        <ele>386.250326</ele>
        <time>2021-11-22T12:16:42.359Z</time>
      </trkpt>
      <trkpt lat="47.543149" lon="8.133918">
        <ele>385.985208</ele>
        <time>2021-11-22T12:16:43.604Z</time>
      </trkpt>
      <trkpt lat="47.543220" lon="8.133852">
        <ele>385.780815</ele>
        <time>2021-11-22T12:16:44.462Z</time>
      </trkpt>
      <trkpt lat="47.543321" lon="8.133795">
        <ele>385.517264</ele>
        <time>2021-11-22T12:16:45.561Z</time>
      </trkpt>
      <trkpt lat="47.543505" lon="8.133721">
        <ele>385.052348</ele>
        <time>2021-11-22T12:16:47.774Z</time>
      </trkpt>
      <trkpt lat="47.543619" lon="8.133664">
        <ele>384.758957</ele>
        <time>2021-11-22T12:16:49.060Z</time>
      </trkpt>
      <trkpt lat="47.543708" lon="8.133619">
        <ele>384.529642</ele>
        <time>2021-11-22T12:16:50.001Z</time>
      </trkpt>
      <trkpt lat="47.543845" lon="8.133524">
        <ele>384.160786</ele>
        <time>2021-11-22T12:16:51.870Z</time>
      </trkpt>
      <trkpt lat="47.544105" lon="8.133316">
        <ele>383.426450</ele>
        <time>2021-11-22T12:16:54.980Z</time>
      </trkpt>
      <trkpt lat="47.544222" lon="8.133222">
        <ele>383.095425</ele>
        <time>2021-11-22T12:16:56.440Z</time>
      </trkpt>
      <trkpt lat="47.544453" lon="8.133038">
        <ele>382.443132</ele>
        <time>2021-11-22T12:16:59.369Z</time>
      </trkpt>
      <trkpt lat="47.544650" lon="8.132899">
        <ele>381.900446</ele>
        <time>2021-11-22T12:17:01.599Z</time>
      </trkpt>
      <trkpt lat="47.544810" lon="8.132765">
        <ele>381.443328</ele>
        <time>2021-11-22T12:17:03.640Z</time>
      </trkpt>
      <trkpt lat="47.545059" lon="8.132589">
        <ele>380.757172</ele>
        <time>2021-11-22T12:17:06.531Z</time>
      </trkpt>
      <trkpt lat="47.545184" lon="8.132503">
        <ele>380.414399</ele>
        <time>2021-11-22T12:17:07.946Z</time>
      </trkpt>
      <trkpt lat="47.545331" lon="8.132442">
        <ele>380.034728</ele>
        <time>2021-11-22T12:17:09.506Z</time>
      </trkpt>
      <trkpt lat="47.545734" lon="8.132329">
        <ele>378.847326</ele>
        <time>2021-11-22T12:17:13.736Z</time>
      </trkpt>
      <trkpt lat="47.545962" lon="8.132304">
        <ele>378.131095</ele>
        <time>2021-11-22T12:17:16.046Z</time>
      </trkpt>
      <trkpt lat="47.546023" lon="8.132300">
        <ele>377.939807</ele>
        <time>2021-11-22T12:17:16.649Z</time>
      </trkpt>
      <trkpt lat="47.546602" lon="8.132235">
        <ele>376.120717</ele>
        <time>2021-11-22T12:17:22.536Z</time>
      </trkpt>
      <trkpt lat="47.546938" lon="8.132181">
        <ele>375.061922</ele>
        <time>2021-11-22T12:17:25.909Z</time>
      </trkpt>
      <trkpt lat="47.547951" lon="8.132055">
        <ele>372.600843</ele>
        <time>2021-11-22T12:17:36.397Z</time>
      </trkpt>
      <trkpt lat="47.548544" lon="8.131974">
        <ele>371.363973</ele>
        <time>2021-11-22T12:17:42.961Z</time>
      </trkpt>
      <trkpt lat="47.549752" lon="8.131786">
        <ele>369.653196</ele>
        <time>2021-11-22T12:17:57.610Z</time>
      </trkpt>
      <trkpt lat="47.550488" lon="8.131671">
        <ele>368.978430</ele>
        <time>2021-11-22T12:18:07.198Z</time>
      </trkpt>
      <trkpt lat="47.550614" lon="8.131652">
        <ele>368.862957</ele>
        <time>2021-11-22T12:18:09.053Z</time>
      </trkpt>
      <trkpt lat="47.550712" lon="8.131637">
        <ele>368.773130</ele>
        <time>2021-11-22T12:18:10.189Z</time>
      </trkpt>
      <trkpt lat="47.551029" lon="8.131586">
        <ele>368.389244</ele>
        <time>2021-11-22T12:18:14.213Z</time>
      </trkpt>
      <trkpt lat="47.551383" lon="8.131531">
        <ele>367.882858</ele>
        <time>2021-11-22T12:18:18.355Z</time>
      </trkpt>
      <trkpt lat="47.551749" lon="8.131479">
        <ele>367.359773</ele>
        <time>2021-11-22T12:18:22.632Z</time>
      </trkpt>
      <trkpt lat="47.551784" lon="8.131474">
        <ele>367.309749</ele>
        <time>2021-11-22T12:18:22.978Z</time>
      </trkpt>
      <trkpt lat="47.551873" lon="8.131469">
        <ele>367.183040</ele>
        <time>2021-11-22T12:18:23.997Z</time>
      </trkpt>
      <trkpt lat="47.552293" lon="8.131579">
        <ele>366.576256</ele>
        <time>2021-11-22T12:18:29.022Z</time>
      </trkpt>
      <trkpt lat="47.552326" lon="8.131597">
        <ele>366.526228</ele>
        <time>2021-11-22T12:18:29.335Z</time>
      </trkpt>
      <trkpt lat="47.552402" lon="8.131645">
        <ele>366.408692</ele>
        <time>2021-11-22T12:18:30.337Z</time>
      </trkpt>
      <trkpt lat="47.552493" lon="8.131722">
        <ele>366.259605</ele>
        <time>2021-11-22T12:18:31.494Z</time>
      </trkpt>
      <trkpt lat="47.552602" lon="8.131831">
        <ele>366.068336</ele>
        <time>2021-11-22T12:18:33.005Z</time>
      </trkpt>
      <trkpt lat="47.553483" lon="8.132756">
        <ele>364.159885</ele>
        <time>2021-11-22T12:18:45.061Z</time>
      </trkpt>
      <trkpt lat="47.553541" lon="8.132821">
        <ele>364.031352</ele>
        <time>2021-11-22T12:18:45.757Z</time>
      </trkpt>
      <trkpt lat="47.553641" lon="8.132928">
        <ele>363.813338</ele>
        <time>2021-11-22T12:18:47.288Z</time>
      </trkpt>
      <trkpt lat="47.553708" lon="8.133003">
        <ele>363.664922</ele>
        <time>2021-11-22T12:18:48.366Z</time>
      </trkpt>
      <trkpt lat="47.553759" lon="8.133056">
        <ele>363.554821</ele>
        <time>2021-11-22T12:18:49.098Z</time>
      </trkpt>
      <trkpt lat="47.553847" lon="8.133128">
        <ele>363.377147</ele>
        <time>2021-11-22T12:18:50.184Z</time>
      </trkpt>
      <trkpt lat="47.554071" lon="8.133239">
        <ele>362.959681</ele>
        <time>2021-11-22T12:18:52.942Z</time>
      </trkpt>
      <trkpt lat="47.554467" lon="8.133300">
        <ele>362.185623</ele>
        <time>2021-11-22T12:18:57.492Z</time>
      </trkpt>
      <trkpt lat="47.554619" lon="8.133314">
        <ele>361.887521</ele>
        <time>2021-11-22T12:18:59.096Z</time>
      </trkpt>
      <trkpt lat="47.554855" lon="8.133333">
        <ele>361.424888</ele>
        <time>2021-11-22T12:19:01.734Z</time>
      </trkpt>
      <trkpt lat="47.555303" lon="8.133375">
        <ele>360.546209</ele>
        <time>2021-11-22T12:19:06.667Z</time>
      </trkpt>
      <trkpt lat="47.555444" lon="8.133390">
        <ele>360.269503</ele>
        <time>2021-11-22T12:19:08.173Z</time>
      </trkpt>
      <trkpt lat="47.555690" lon="8.133401">
        <ele>359.787758</ele>
        <time>2021-11-22T12:19:10.928Z</time>
      </trkpt>
      <trkpt lat="47.555896" lon="8.133399">
        <ele>359.383481</ele>
        <time>2021-11-22T12:19:13.170Z</time>
      </trkpt>
      <trkpt lat="47.556093" lon="8.133383">
        <ele>358.924659</ele>
        <time>2021-11-22T12:19:15.299Z</time>
      </trkpt>
      <trkpt lat="47.556204" lon="8.133369">
        <ele>358.665589</ele>
        <time>2021-11-22T12:19:16.468Z</time>
      </trkpt>
      <trkpt lat="47.556513" lon="8.133340">
        <ele>357.945553</ele>
        <time>2021-11-22T12:19:19.778Z</time>
      </trkpt>
      <trkpt lat="47.557021" lon="8.133293">
        <ele>356.761870</ele>
        <time>2021-11-22T12:19:25.144Z</time>
      </trkpt>
      <trkpt lat="47.557237" lon="8.133273">
        <ele>356.258571</ele>
        <time>2021-11-22T12:19:27.435Z</time>
      </trkpt>
      <trkpt lat="47.557846" lon="8.133209">
        <ele>354.939541</ele>
        <time>2021-11-22T12:19:34.052Z</time>
      </trkpt>
      <trkpt lat="47.558277" lon="8.133165">
        <ele>354.209687</ele>
        <time>2021-11-22T12:19:38.667Z</time>
      </trkpt>
      <trkpt lat="47.558609" lon="8.133121">
        <ele>353.646570</ele>
        <time>2021-11-22T12:19:42.323Z</time>
      </trkpt>
      <trkpt lat="47.559286" lon="8.133042">
        <ele>352.499310</ele>
        <time>2021-11-22T12:19:50.290Z</time>
      </trkpt>
      <trkpt lat="47.559423" lon="8.133034">
        <ele>352.267683</ele>
        <time>2021-11-22T12:19:51.919Z</time>
      </trkpt>
      <trkpt lat="47.559553" lon="8.133012">
        <ele>352.113646</ele>
        <time>2021-11-22T12:19:56.370Z</time>
      </trkpt>
      <trkpt lat="47.559972" lon="8.132981">
        <ele>351.794356</ele>
        <time>2021-11-22T12:20:10.832Z</time>
      </trkpt>
      <trkpt lat="47.560046" lon="8.132973">
        <ele>351.737887</ele>
        <time>2021-11-22T12:20:13.259Z</time>
      </trkpt>
      <trkpt lat="47.560143" lon="8.132963">
        <ele>351.663884</ele>
        <time>2021-11-22T12:20:14.519Z</time>
      </trkpt>
      <trkpt lat="47.560243" lon="8.132948">
        <ele>351.587387</ele>
        <time>2021-11-22T12:20:15.755Z</time>
      </trkpt>
      <trkpt lat="47.560335" lon="8.132935">
        <ele>351.517050</ele>
        <time>2021-11-22T12:20:17.271Z</time>
      </trkpt>
      <trkpt lat="47.560777" lon="8.132722">
        <ele>351.163312</ele>
        <time>2021-11-22T12:20:23.143Z</time>
      </trkpt>
      <trkpt lat="47.560827" lon="8.132679">
        <ele>351.119315</ele>
        <time>2021-11-22T12:20:23.966Z</time>
      </trkpt>
      <trkpt lat="47.560889" lon="8.132614">
        <ele>351.061513</ele>
        <time>2021-11-22T12:20:24.893Z</time>
      </trkpt>
      <trkpt lat="47.561056" lon="8.132422">
        <ele>350.900647</ele>
        <time>2021-11-22T12:20:27.690Z</time>
      </trkpt>
      <trkpt lat="47.561185" lon="8.132211">
        <ele>350.741421</ele>
        <time>2021-11-22T12:20:30.176Z</time>
      </trkpt>
      <trkpt lat="47.561796" lon="8.130897">
        <ele>349.686468</ele>
        <time>2021-11-22T12:20:43.864Z</time>
      </trkpt>
      <trkpt lat="47.562119" lon="8.130197">
        <ele>349.125855</ele>
        <time>2021-11-22T12:20:50.439Z</time>
      </trkpt>
      <trkpt lat="47.562169" lon="8.130101">
        <ele>349.045684</ele>
        <time>2021-11-22T12:20:51.440Z</time>
      </trkpt>
      <trkpt lat="47.562200" lon="8.130042">
        <ele>348.979781</ele>
        <time>2021-11-22T12:20:52.069Z</time>
      </trkpt>
      <trkpt lat="47.562419" lon="8.129559">
        <ele>348.441677</ele>
        <time>2021-11-22T12:20:56.680Z</time>
      </trkpt>
      <trkpt lat="47.562839" lon="8.128684">
        <ele>347.448723</ele>
        <time>2021-11-22T12:21:04.962Z</time>
      </trkpt>
      <trkpt lat="47.562984" lon="8.128403">
        <ele>347.121610</ele>
        <time>2021-11-22T12:21:07.764Z</time>
      </trkpt>
      <trkpt lat="47.563096" lon="8.128178">
        <ele>346.863065</ele>
        <time>2021-11-22T12:21:10.217Z</time>
      </trkpt>
      <trkpt lat="47.563232" lon="8.127932">
        <ele>346.567981</ele>
        <time>2021-11-22T12:21:12.680Z</time>
      </trkpt>
      <trkpt lat="47.563398" lon="8.127697">
        <ele>346.168219</ele>
        <time>2021-11-22T12:21:15.293Z</time>
      </trkpt>
      <trkpt lat="47.563589" lon="8.127466">
        <ele>345.738918</ele>
        <time>2021-11-22T12:21:19.271Z</time>
      </trkpt>
      <trkpt lat="47.563627" lon="8.127420">
        <ele>345.653476</ele>
        <time>2021-11-22T12:21:19.709Z</time>
      </trkpt>
      <trkpt lat="47.563751" lon="8.127247">
        <ele>345.356915</ele>
        <time>2021-11-22T12:21:21.531Z</time>
      </trkpt>
      <trkpt lat="47.563829" lon="8.127101">
        <ele>345.138101</ele>
        <time>2021-11-22T12:21:24.173Z</time>
      </trkpt>
      <trkpt lat="47.563898" lon="8.126936">
        <ele>344.910009</ele>
        <time>2021-11-22T12:21:27.816Z</time>
      </trkpt>
      <trkpt lat="47.563932" lon="8.126822">
        <ele>344.763555</ele>
        <time>2021-11-22T12:21:30.374Z</time>
      </trkpt>
      <trkpt lat="47.563935" lon="8.126813">
        <ele>344.751760</ele>
        <time>2021-11-22T12:21:30.561Z</time>
      </trkpt>
      <trkpt lat="47.563988" lon="8.126616">
        <ele>344.502561</ele>
        <time>2021-11-22T12:21:36.775Z</time>
      </trkpt>
      <trkpt lat="47.564016" lon="8.126515">
        <ele>344.374258</ele>
        <time>2021-11-22T12:21:38.681Z</time>
      </trkpt>
      <trkpt lat="47.564050" lon="8.126343">
        <ele>344.163661</ele>
        <time>2021-11-22T12:21:42.435Z</time>
      </trkpt>
      <trkpt lat="47.564078" lon="8.126253">
        <ele>344.047210</ele>
        <time>2021-11-22T12:21:44.923Z</time>
      </trkpt>
      <trkpt lat="47.564142" lon="8.126069">
        <ele>343.803973</ele>
        <time>2021-11-22T12:21:49.438Z</time>
      </trkpt>
      <trkpt lat="47.564204" lon="8.125933">
        <ele>343.611118</ele>
        <time>2021-11-22T12:21:50.542Z</time>
      </trkpt>
      <trkpt lat="47.564281" lon="8.125780">
        <ele>343.363037</ele>
        <time>2021-11-22T12:21:52.124Z</time>
      </trkpt>
      <trkpt lat="47.564404" lon="8.125557">
        <ele>342.874737</ele>
        <time>2021-11-22T12:21:54.171Z</time>
      </trkpt>
      <trkpt lat="47.564445" lon="8.125480">
        <ele>342.708445</ele>
        <time>2021-11-22T12:21:54.814Z</time>
      </trkpt>
      <trkpt lat="47.564862" lon="8.124663">
        <ele>340.971725</ele>
        <time>2021-11-22T12:22:02.181Z</time>
      </trkpt>
      <trkpt lat="47.565033" lon="8.124341">
        <ele>340.277036</ele>
        <time>2021-11-22T12:22:05.119Z</time>
      </trkpt>
      <trkpt lat="47.565098" lon="8.124202">
        <ele>339.990326</ele>
        <time>2021-11-22T12:22:06.240Z</time>
      </trkpt>
      <trkpt lat="47.565268" lon="8.123888">
        <ele>339.307820</ele>
        <time>2021-11-22T12:22:09.019Z</time>
      </trkpt>
      <trkpt lat="47.565326" lon="8.123776">
        <ele>339.068469</ele>
        <time>2021-11-22T12:22:09.938Z</time>
      </trkpt>
      <trkpt lat="47.565434" lon="8.123568">
        <ele>338.741875</ele>
        <time>2021-11-22T12:22:11.841Z</time>
      </trkpt>
      <trkpt lat="47.565629" lon="8.123189">
        <ele>338.254815</ele>
        <time>2021-11-22T12:22:15.345Z</time>
      </trkpt>
      <trkpt lat="47.565954" lon="8.122541">
        <ele>337.429715</ele>
        <time>2021-11-22T12:22:21.685Z</time>
      </trkpt>
      <trkpt lat="47.566102" lon="8.122133">
        <ele>336.956343</ele>
        <time>2021-11-22T12:22:25.553Z</time>
      </trkpt>
      <trkpt lat="47.566119" lon="8.122027">
        <ele>336.845002</ele>
        <time>2021-11-22T12:22:26.398Z</time>
      </trkpt>
      <trkpt lat="47.566151" lon="8.121930">
        <ele>336.734664</ele>
        <time>2021-11-22T12:22:27.492Z</time>
      </trkpt>
      <trkpt lat="47.566318" lon="8.120964">
        <ele>335.877039</ele>
        <time>2021-11-22T12:22:35.696Z</time>
      </trkpt>
      <trkpt lat="47.566366" lon="8.120637">
        <ele>335.649642</ele>
        <time>2021-11-22T12:22:38.519Z</time>
      </trkpt>
      <trkpt lat="47.566398" lon="8.120421">
        <ele>335.499372</ele>
        <time>2021-11-22T12:22:40.629Z</time>
      </trkpt>
      <trkpt lat="47.566431" lon="8.120180">
        <ele>335.332272</ele>
        <time>2021-11-22T12:22:42.628Z</time>
      </trkpt>
      <trkpt lat="47.566474" lon="8.119870">
        <ele>335.117219</ele>
        <time>2021-11-22T12:22:45.489Z</time>
      </trkpt>
      <trkpt lat="47.566566" lon="8.119245">
        <ele>334.682538</ele>
        <time>2021-11-22T12:22:50.811Z</time>
      </trkpt>
      <trkpt lat="47.566580" lon="8.119152">
        <ele>334.617791</ele>
        <time>2021-11-22T12:22:51.482Z</time>
      </trkpt>
      <trkpt lat="47.566644" lon="8.118715">
        <ele>334.306728</ele>
        <time>2021-11-22T12:22:55.094Z</time>
      </trkpt>
      <trkpt lat="47.566733" lon="8.118099">
        <ele>333.835894</ele>
        <time>2021-11-22T12:22:59.758Z</time>
      </trkpt>
      <trkpt lat="47.566811" lon="8.117556">
        <ele>333.420962</ele>
        <time>2021-11-22T12:23:03.930Z</time>
      </trkpt>
      <trkpt lat="47.566944" lon="8.116530">
        <ele>332.640109</ele>
        <time>2021-11-22T12:23:12.973Z</time>
      </trkpt>
      <trkpt lat="47.566983" lon="8.116203">
        <ele>332.392692</ele>
        <time>2021-11-22T12:23:15.915Z</time>
      </trkpt>
      <trkpt lat="47.567009" lon="8.116010">
        <ele>332.310219</ele>
        <time>2021-11-22T12:23:18.590Z</time>
      </trkpt>
      <trkpt lat="47.567157" lon="8.115310">
        <ele>332.002820</ele>
        <time>2021-11-22T12:23:24.849Z</time>
      </trkpt>
      <trkpt lat="47.567411" lon="8.114753">
        <ele>331.721102</ele>
        <time>2021-11-22T12:23:30.511Z</time>
      </trkpt>
      <trkpt lat="47.567654" lon="8.114290">
        <ele>331.475298</ele>
        <time>2021-11-22T12:23:35.830Z</time>
      </trkpt>
      <trkpt lat="47.567881" lon="8.113862">
        <ele>331.171638</ele>
        <time>2021-11-22T12:23:40.830Z</time>
      </trkpt>
      <trkpt lat="47.568167" lon="8.113323">
        <ele>330.146832</ele>
        <time>2021-11-22T12:23:46.778Z</time>
      </trkpt>
      <trkpt lat="47.568835" lon="8.112063">
        <ele>327.751976</ele>
        <time>2021-11-22T12:23:58.114Z</time>
      </trkpt>
      <trkpt lat="47.569083" lon="8.111567">
        <ele>326.611157</ele>
        <time>2021-11-22T12:24:02.302Z</time>
      </trkpt>
      <trkpt lat="47.569107" lon="8.111522">
        <ele>326.485048</ele>
        <time>2021-11-22T12:24:02.630Z</time>
      </trkpt>
      <trkpt lat="47.569423" lon="8.110628">
        <ele>324.266214</ele>
        <time>2021-11-22T12:24:09.446Z</time>
      </trkpt>
      <trkpt lat="47.569495" lon="8.110499">
        <ele>323.898148</ele>
        <time>2021-11-22T12:24:10.442Z</time>
      </trkpt>
      <trkpt lat="47.569574" lon="8.110385">
        <ele>323.538873</ele>
        <time>2021-11-22T12:24:11.507Z</time>
      </trkpt>
      <trkpt lat="47.569664" lon="8.110262">
        <ele>323.139967</ele>
        <time>2021-11-22T12:24:13.856Z</time>
      </trkpt>
      <trkpt lat="47.569787" lon="8.110094">
        <ele>322.594946</ele>
        <time>2021-11-22T12:24:15.412Z</time>
      </trkpt>
      <trkpt lat="47.569974" lon="8.109825">
        <ele>321.745813</ele>
        <time>2021-11-22T12:24:18.303Z</time>
      </trkpt>
      <trkpt lat="47.570263" lon="8.109376">
        <ele>321.880722</ele>
        <time>2021-11-22T12:24:22.884Z</time>
      </trkpt>
      <trkpt lat="47.570283" lon="8.109343">
        <ele>321.922421</ele>
        <time>2021-11-22T12:24:23.183Z</time>
      </trkpt>
      <trkpt lat="47.570582" lon="8.108889">
        <ele>322.518810</ele>
        <time>2021-11-22T12:24:28.768Z</time>
      </trkpt>
      <trkpt lat="47.570830" lon="8.108502">
        <ele>323.020541</ele>
        <time>2021-11-22T12:24:39.093Z</time>
      </trkpt>
      <trkpt lat="47.571253" lon="8.107823">
        <ele>323.889291</ele>
        <time>2021-11-22T12:24:58.455Z</time>
      </trkpt>
      <trkpt lat="47.571440" lon="8.107260">
        <ele>324.192736</ele>
        <time>2021-11-22T12:25:11.294Z</time>
      </trkpt>
      <trkpt lat="47.571458" lon="8.107087">
        <ele>324.270235</ele>
        <time>2021-11-22T12:25:15.418Z</time>
      </trkpt>
      <trkpt lat="47.571460" lon="8.106995">
        <ele>324.310988</ele>
        <time>2021-11-22T12:25:17.050Z</time>
      </trkpt>
      <trkpt lat="47.571461" lon="8.106820">
        <ele>324.388469</ele>
        <time>2021-11-22T12:25:18.636Z</time>
      </trkpt>
      <trkpt lat="47.571440" lon="8.106588">
        <ele>324.492104</ele>
        <time>2021-11-22T12:25:21.464Z</time>
      </trkpt>
      <trkpt lat="47.571298" lon="8.105561">
        <ele>324.956245</ele>
        <time>2021-11-22T12:25:29.773Z</time>
      </trkpt>
      <trkpt lat="47.571251" lon="8.105188">
        <ele>325.105795</ele>
        <time>2021-11-22T12:25:32.682Z</time>
      </trkpt>
      <trkpt lat="47.571234" lon="8.105037">
        <ele>324.972397</ele>
        <time>2021-11-22T12:25:34.313Z</time>
      </trkpt>
      <trkpt lat="47.571214" lon="8.104836">
        <ele>324.795354</ele>
        <time>2021-11-22T12:25:35.962Z</time>
      </trkpt>
      <trkpt lat="47.571252" lon="8.104668">
        <ele>324.640953</ele>
        <time>2021-11-22T12:25:37.464Z</time>
      </trkpt>
      <trkpt lat="47.571285" lon="8.104547">
        <ele>324.527227</ele>
        <time>2021-11-22T12:25:38.385Z</time>
      </trkpt>
      <trkpt lat="47.571319" lon="8.104520">
        <ele>324.477408</ele>
        <time>2021-11-22T12:25:38.802Z</time>
      </trkpt>
      <trkpt lat="47.571345" lon="8.104476">
        <ele>324.426441</ele>
        <time>2021-11-22T12:25:39.190Z</time>
      </trkpt>
      <trkpt lat="47.571359" lon="8.104422">
        <ele>324.376031</ele>
        <time>2021-11-22T12:25:39.564Z</time>
      </trkpt>
      <trkpt lat="47.571359" lon="8.104365">
        <ele>324.326363</ele>
        <time>2021-11-22T12:25:40.001Z</time>
      </trkpt>
      <trkpt lat="47.571346" lon="8.104311">
        <ele>324.276402</ele>
        <time>2021-11-22T12:25:40.385Z</time>
      </trkpt>
      <trkpt lat="47.571354" lon="8.104222">
        <ele>324.198164</ele>
        <time>2021-11-22T12:25:41.413Z</time>
      </trkpt>
      <trkpt lat="47.571310" lon="8.104135">
        <ele>324.103418</ele>
        <time>2021-11-22T12:25:42.154Z</time>
      </trkpt>
      <trkpt lat="47.571041" lon="8.104109">
        <ele>323.755250</ele>
        <time>2021-11-22T12:25:45.027Z</time>
      </trkpt>
      <trkpt lat="47.570893" lon="8.104006">
        <ele>323.544075</ele>
        <time>2021-11-22T12:25:46.769Z</time>
      </trkpt>
      <trkpt lat="47.570788" lon="8.103933">
        <ele>323.394283</ele>
        <time>2021-11-22T12:25:48.005Z</time>
      </trkpt>
      <trkpt lat="47.570667" lon="8.103884">
        <ele>323.232276</ele>
        <time>2021-11-22T12:25:49.706Z</time>
      </trkpt>
      <trkpt lat="47.570391" lon="8.103841">
        <ele>322.873840</ele>
        <time>2021-11-22T12:25:58.560Z</time>
      </trkpt>
      <trkpt lat="47.570159" lon="8.103813">
        <ele>323.162142</ele>
        <time>2021-11-22T12:26:02.641Z</time>
      </trkpt>
      <trkpt lat="47.569557" lon="8.103677">
        <ele>324.464406</ele>
        <time>2021-11-22T12:26:18.983Z</time>
      </trkpt>
      <trkpt lat="47.567683" lon="8.103272">
        <ele>328.974695</ele>
        <time>2021-11-22T12:27:07.254Z</time>
      </trkpt>
      <trkpt lat="47.566684" lon="8.102974">
        <ele>331.643674</ele>
        <time>2021-11-22T12:27:33.403Z</time>
      </trkpt>
      <trkpt lat="47.565727" lon="8.102512">
        <ele>333.845701</ele>
        <time>2021-11-22T12:27:58.675Z</time>
      </trkpt>
      <trkpt lat="47.564165" lon="8.101615">
        <ele>337.415900</ele>
        <time>2021-11-22T12:28:33.865Z</time>
      </trkpt>
      <trkpt lat="47.563202" lon="8.101042">
        <ele>339.840320</ele>
        <time>2021-11-22T12:28:59.678Z</time>
      </trkpt>
      <trkpt lat="47.563031" lon="8.100935">
        <ele>340.444852</ele>
        <time>2021-11-22T12:29:06.562Z</time>
      </trkpt>
      <trkpt lat="47.562207" lon="8.100413">
        <ele>343.363420</ele>
        <time>2021-11-22T12:29:37.002Z</time>
      </trkpt>
      <trkpt lat="47.561466" lon="8.099697">
        <ele>345.055870</ele>
        <time>2021-11-22T12:30:07.902Z</time>
      </trkpt>
      <trkpt lat="47.560787" lon="8.098864">
        <ele>345.212525</ele>
        <time>2021-11-22T12:30:27.572Z</time>
      </trkpt>
      <trkpt lat="47.560171" lon="8.097877">
        <ele>343.485734</ele>
        <time>2021-11-22T12:30:41.152Z</time>
      </trkpt>
      <trkpt lat="47.559606" lon="8.096837">
        <ele>339.122623</ele>
        <time>2021-11-22T12:30:53.164Z</time>
      </trkpt>
      <trkpt lat="47.558983" lon="8.095482">
        <ele>333.836022</ele>
        <time>2021-11-22T12:31:07.692Z</time>
      </trkpt>
      <trkpt lat="47.558857" lon="8.095293">
        <ele>332.989739</ele>
        <time>2021-11-22T12:31:10.184Z</time>
      </trkpt>
      <trkpt lat="47.558776" lon="8.095210">
        <ele>332.524885</ele>
        <time>2021-11-22T12:31:11.433Z</time>
      </trkpt>
      <trkpt lat="47.558531" lon="8.094661">
        <ele>330.428283</ele>
        <time>2021-11-22T12:31:15.714Z</time>
      </trkpt>
      <trkpt lat="47.557677" lon="8.092776">
        <ele>324.051952</ele>
        <time>2021-11-22T12:31:31.139Z</time>
      </trkpt>
      <trkpt lat="47.556850" lon="8.091457">
        <ele>318.877026</ele>
        <time>2021-11-22T12:31:42.763Z</time>
      </trkpt>
      <trkpt lat="47.556692" lon="8.091113">
        <ele>317.512374</ele>
        <time>2021-11-22T12:31:45.367Z</time>
      </trkpt>
      <trkpt lat="47.556527" lon="8.090721">
        <ele>315.997236</ele>
        <time>2021-11-22T12:31:48.248Z</time>
      </trkpt>
      <trkpt lat="47.556259" lon="8.090058">
        <ele>313.462691</ele>
        <time>2021-11-22T12:31:53.160Z</time>
      </trkpt>
      <trkpt lat="47.556193" lon="8.089926">
        <ele>312.923921</ele>
        <time>2021-11-22T12:31:54.291Z</time>
      </trkpt>
      <trkpt lat="47.556110" lon="8.089809">
        <ele>312.367217</ele>
        <time>2021-11-22T12:31:55.369Z</time>
      </trkpt>
      <trkpt lat="47.556137" lon="8.089730">
        <ele>312.294117</ele>
        <time>2021-11-22T12:31:55.922Z</time>
      </trkpt>
      <trkpt lat="47.556151" lon="8.089459">
        <ele>312.097409</ele>
        <time>2021-11-22T12:31:57.765Z</time>
      </trkpt>
      <trkpt lat="47.556111" lon="8.089266">
        <ele>311.951288</ele>
        <time>2021-11-22T12:31:59.054Z</time>
      </trkpt>
      <trkpt lat="47.556065" lon="8.089084">
        <ele>311.810633</ele>
        <time>2021-11-22T12:32:00.364Z</time>
      </trkpt>
      <trkpt lat="47.555997" lon="8.088801">
        <ele>311.593218</ele>
        <time>2021-11-22T12:32:02.673Z</time>
      </trkpt>
      <trkpt lat="47.555991" lon="8.088778">
        <ele>311.575372</ele>
        <time>2021-11-22T12:32:02.912Z</time>
      </trkpt>
      <trkpt lat="47.555939" lon="8.088552">
        <ele>311.402560</ele>
        <time>2021-11-22T12:32:04.741Z</time>
      </trkpt>
      <trkpt lat="47.555887" lon="8.088299">
        <ele>311.211149</ele>
        <time>2021-11-22T12:32:07.252Z</time>
      </trkpt>
      <trkpt lat="47.555829" lon="8.087941">
        <ele>310.944687</ele>
        <time>2021-11-22T12:32:11.069Z</time>
      </trkpt>
      <trkpt lat="47.555809" lon="8.087783">
        <ele>310.828341</ele>
        <time>2021-11-22T12:32:12.680Z</time>
      </trkpt>
      <trkpt lat="47.555780" lon="8.087557">
        <ele>310.661843</ele>
        <time>2021-11-22T12:32:14.857Z</time>
      </trkpt>
      <trkpt lat="47.555737" lon="8.087083">
        <ele>310.821736</ele>
        <time>2021-11-22T12:32:22.484Z</time>
      </trkpt>
      <trkpt lat="47.555733" lon="8.086819">
        <ele>311.501505</ele>
        <time>2021-11-22T12:32:27.506Z</time>
      </trkpt>
      <trkpt lat="47.555764" lon="8.085769">
        <ele>314.207032</ele>
        <time>2021-11-22T12:32:49.341Z</time>
      </trkpt>
      <trkpt lat="47.555899" lon="8.084472">
        <ele>317.686876</ele>
        <time>2021-11-22T12:33:18.752Z</time>
      </trkpt>
      <trkpt lat="47.555956" lon="8.084115">
        <ele>318.953424</ele>
        <time>2021-11-22T12:33:27.507Z</time>
      </trkpt>
      <trkpt lat="47.556083" lon="8.083354">
        <ele>321.659873</ele>
        <time>2021-11-22T12:33:45.705Z</time>
      </trkpt>
      <trkpt lat="47.556470" lon="8.081563">
        <ele>327.728404</ele>
        <time>2021-11-22T12:34:32.454Z</time>
      </trkpt>
      <trkpt lat="47.556853" lon="8.080477">
        <ele>330.880611</ele>
        <time>2021-11-22T12:34:58.553Z</time>
      </trkpt>
      <trkpt lat="47.557099" lon="8.079786">
        <ele>332.890371</ele>
        <time>2021-11-22T12:35:12.832Z</time>
      </trkpt>
      <trkpt lat="47.557247" lon="8.079438">
        <ele>333.356935</ele>
        <time>2021-11-22T12:35:19.207Z</time>
      </trkpt>
      <trkpt lat="47.557256" lon="8.079416">
        <ele>333.358235</ele>
        <time>2021-11-22T12:35:19.551Z</time>
      </trkpt>
      <trkpt lat="47.557793" lon="8.078299">
        <ele>333.427510</ele>
        <time>2021-11-22T12:35:35.886Z</time>
      </trkpt>
      <trkpt lat="47.558613" lon="8.076826">
        <ele>332.505242</ele>
        <time>2021-11-22T12:35:50.441Z</time>
      </trkpt>
      <trkpt lat="47.559046" lon="8.076086">
        <ele>331.415710</ele>
        <time>2021-11-22T12:35:57.821Z</time>
      </trkpt>
      <trkpt lat="47.559426" lon="8.075372">
        <ele>330.415201</ele>
        <time>2021-11-22T12:36:04.818Z</time>
      </trkpt>
      <trkpt lat="47.559811" lon="8.074398">
        <ele>329.284713</ele>
        <time>2021-11-22T12:36:13.712Z</time>
      </trkpt>
      <trkpt lat="47.560318" lon="8.072316">
        <ele>326.755460</ele>
        <time>2021-11-22T12:36:30.984Z</time>
      </trkpt>
      <trkpt lat="47.560524" lon="8.071179">
        <ele>325.102484</ele>
        <time>2021-11-22T12:36:39.550Z</time>
      </trkpt>
      <trkpt lat="47.560553" lon="8.071099">
        <ele>324.974976</ele>
        <time>2021-11-22T12:36:40.161Z</time>
      </trkpt>
      <trkpt lat="47.560584" lon="8.070919">
        <ele>324.714142</ele>
        <time>2021-11-22T12:36:41.471Z</time>
      </trkpt>
      <trkpt lat="47.560739" lon="8.070551">
        <ele>324.105053</ele>
        <time>2021-11-22T12:36:44.558Z</time>
      </trkpt>
      <trkpt lat="47.560864" lon="8.070015">
        <ele>323.397594</ele>
        <time>2021-11-22T12:36:48.580Z</time>
      </trkpt>
      <trkpt lat="47.560904" lon="8.069780">
        <ele>323.095350</ele>
        <time>2021-11-22T12:36:50.325Z</time>
      </trkpt>
      <trkpt lat="47.560998" lon="8.069237">
        <ele>322.396256</ele>
        <time>2021-11-22T12:36:54.405Z</time>
      </trkpt>
      <trkpt lat="47.561130" lon="8.068650">
        <ele>321.624643</ele>
        <time>2021-11-22T12:36:59.075Z</time>
      </trkpt>
      <trkpt lat="47.561187" lon="8.068256">
        <ele>321.122129</ele>
        <time>2021-11-22T12:37:02.350Z</time>
      </trkpt>
      <trkpt lat="47.561229" lon="8.067903">
        <ele>320.768093</ele>
        <time>2021-11-22T12:37:05.388Z</time>
      </trkpt>
      <trkpt lat="47.561265" lon="8.067435">
        <ele>320.706393</ele>
        <time>2021-11-22T12:37:09.370Z</time>
      </trkpt>
      <trkpt lat="47.561276" lon="8.067022">
        <ele>320.652253</ele>
        <time>2021-11-22T12:37:13.287Z</time>
      </trkpt>
      <trkpt lat="47.561253" lon="8.066385">
        <ele>320.568694</ele>
        <time>2021-11-22T12:37:19.887Z</time>
      </trkpt>
      <trkpt lat="47.561108" lon="8.065242">
        <ele>320.393585</ele>
        <time>2021-11-22T12:37:32.183Z</time>
      </trkpt>
      <trkpt lat="47.561017" lon="8.064820">
        <ele>320.237771</ele>
        <time>2021-11-22T12:37:36.894Z</time>
      </trkpt>
      <trkpt lat="47.560891" lon="8.064288">
        <ele>320.039472</ele>
        <time>2021-11-22T12:37:41.954Z</time>
      </trkpt>
      <trkpt lat="47.560887" lon="8.064271">
        <ele>320.033140</ele>
        <time>2021-11-22T12:37:42.079Z</time>
      </trkpt>
      <trkpt lat="47.560806" lon="8.064037">
        <ele>319.940644</ele>
        <time>2021-11-22T12:37:44.371Z</time>
      </trkpt>
      <trkpt lat="47.560719" lon="8.063873">
        <ele>319.867275</ele>
        <time>2021-11-22T12:37:46.172Z</time>
      </trkpt>
      <trkpt lat="47.560392" lon="8.063300">
        <ele>319.603340</ele>
        <time>2021-11-22T12:37:52.446Z</time>
      </trkpt>
      <trkpt lat="47.560335" lon="8.063169">
        <ele>319.548519</ele>
        <time>2021-11-22T12:37:53.807Z</time>
      </trkpt>
      <trkpt lat="47.560443" lon="8.063042">
        <ele>319.468357</ele>
        <time>2021-11-22T12:37:55.492Z</time>
      </trkpt>
      <trkpt lat="47.560545" lon="8.062928">
        <ele>319.366674</ele>
        <time>2021-11-22T12:37:57.034Z</time>
      </trkpt>
      <trkpt lat="47.560580" lon="8.062890">
        <ele>319.332141</ele>
        <time>2021-11-22T12:37:57.574Z</time>
      </trkpt>
      <trkpt lat="47.560673" lon="8.062786">
        <ele>319.239411</ele>
        <time>2021-11-22T12:37:59.662Z</time>
      </trkpt>
      <trkpt lat="47.560765" lon="8.062729">
        <ele>319.160046</ele>
        <time>2021-11-22T12:38:01.375Z</time>
      </trkpt>
      <trkpt lat="47.560570" lon="8.061926">
        <ele>318.701692</ele>
        <time>2021-11-22T12:38:08.731Z</time>
      </trkpt>
      <trkpt lat="47.560335" lon="8.060984">
        <ele>318.162291</ele>
        <time>2021-11-22T12:38:17.061Z</time>
      </trkpt>
      <trkpt lat="47.560293" lon="8.060828">
        <ele>318.072083</ele>
        <time>2021-11-22T12:38:18.491Z</time>
      </trkpt>
      <trkpt lat="47.560262" lon="8.060729">
        <ele>318.038620</ele>
        <time>2021-11-22T12:38:19.446Z</time>
      </trkpt>
      <trkpt lat="47.560130" lon="8.060196">
        <ele>317.895513</ele>
        <time>2021-11-22T12:38:24.645Z</time>
      </trkpt>
      <trkpt lat="47.560069" lon="8.059943">
        <ele>317.827794</ele>
        <time>2021-11-22T12:38:27.057Z</time>
      </trkpt>
      <trkpt lat="47.560040" lon="8.059827">
        <ele>317.796614</ele>
        <time>2021-11-22T12:38:28.274Z</time>
      </trkpt>
      <trkpt lat="47.560019" lon="8.059741">
        <ele>317.773561</ele>
        <time>2021-11-22T12:38:29.165Z</time>
      </trkpt>
      <trkpt lat="47.559979" lon="8.059591">
        <ele>317.732908</ele>
        <time>2021-11-22T12:38:30.626Z</time>
      </trkpt>
      <trkpt lat="47.559859" lon="8.059093">
        <ele>317.599620</ele>
        <time>2021-11-22T12:38:35.648Z</time>
      </trkpt>
      <trkpt lat="47.559725" lon="8.058554">
        <ele>317.454835</ele>
        <time>2021-11-22T12:38:41.058Z</time>
      </trkpt>
      <trkpt lat="47.559654" lon="8.058257">
        <ele>317.381228</ele>
        <time>2021-11-22T12:38:44.010Z</time>
      </trkpt>
      <trkpt lat="47.559579" lon="8.057955">
        <ele>317.334731</ele>
        <time>2021-11-22T12:38:46.914Z</time>
      </trkpt>
      <trkpt lat="47.559548" lon="8.057827">
        <ele>317.315081</ele>
        <time>2021-11-22T12:38:48.209Z</time>
      </trkpt>
      <trkpt lat="47.559447" lon="8.057490">
        <ele>317.261802</ele>
        <time>2021-11-22T12:38:51.638Z</time>
      </trkpt>
      <trkpt lat="47.559294" lon="8.057130">
        <ele>317.200329</ele>
        <time>2021-11-22T12:38:55.776Z</time>
      </trkpt>
      <trkpt lat="47.559116" lon="8.056760">
        <ele>317.134672</ele>
        <time>2021-11-22T12:39:00.214Z</time>
      </trkpt>
      <trkpt lat="47.558662" lon="8.056061">
        <ele>317.005456</ele>
        <time>2021-11-22T12:39:09.552Z</time>
      </trkpt>
      <trkpt lat="47.558447" lon="8.055831">
        <ele>317.014709</ele>
        <time>2021-11-22T12:39:13.083Z</time>
      </trkpt>
      <trkpt lat="47.558239" lon="8.055639">
        <ele>317.023260</ele>
        <time>2021-11-22T12:39:16.765Z</time>
      </trkpt>
      <trkpt lat="47.558012" lon="8.055477">
        <ele>317.032051</ele>
        <time>2021-11-22T12:39:20.409Z</time>
      </trkpt>
      <trkpt lat="47.557918" lon="8.055409">
        <ele>317.035701</ele>
        <time>2021-11-22T12:39:22.207Z</time>
      </trkpt>
      <trkpt lat="47.557710" lon="8.055283">
        <ele>317.043543</ele>
        <time>2021-11-22T12:39:25.573Z</time>
      </trkpt>
      <trkpt lat="47.557500" lon="8.055133">
        <ele>317.051677</ele>
        <time>2021-11-22T12:39:29.397Z</time>
      </trkpt>
      <trkpt lat="47.557273" lon="8.054941">
        <ele>317.060798</ele>
        <time>2021-11-22T12:39:33.637Z</time>
      </trkpt>
      <trkpt lat="47.557097" lon="8.054768">
        <ele>317.064312</ele>
        <time>2021-11-22T12:39:36.602Z</time>
      </trkpt>
      <trkpt lat="47.557019" lon="8.054678">
        <ele>317.058810</ele>
        <time>2021-11-22T12:39:38.407Z</time>
      </trkpt>
      <trkpt lat="47.556494" lon="8.054073">
        <ele>317.021796</ele>
        <time>2021-11-22T12:39:47.258Z</time>
      </trkpt>
      <trkpt lat="47.556239" lon="8.053780">
        <ele>317.003838</ele>
        <time>2021-11-22T12:39:51.665Z</time>
      </trkpt>
      <trkpt lat="47.556032" lon="8.053510">
        <ele>316.988490</ele>
        <time>2021-11-22T12:39:55.888Z</time>
      </trkpt>
      <trkpt lat="47.555890" lon="8.053286">
        <ele>316.976947</ele>
        <time>2021-11-22T12:39:59.525Z</time>
      </trkpt>
      <trkpt lat="47.555773" lon="8.053070">
        <ele>316.967080</ele>
        <time>2021-11-22T12:40:02.467Z</time>
      </trkpt>
      <trkpt lat="47.555603" lon="8.052757">
        <ele>317.173924</ele>
        <time>2021-11-22T12:40:06.688Z</time>
      </trkpt>
      <trkpt lat="47.555259" lon="8.052135">
        <ele>317.587939</ele>
        <time>2021-11-22T12:40:15.386Z</time>
      </trkpt>
      <trkpt lat="47.554988" lon="8.051475">
        <ele>317.985677</ele>
        <time>2021-11-22T12:40:24.376Z</time>
      </trkpt>
      <trkpt lat="47.554715" lon="8.050527">
        <ele>318.781789</ele>
        <time>2021-11-22T12:40:39.166Z</time>
      </trkpt>
      <trkpt lat="47.554412" lon="8.049127">
        <ele>320.669915</ele>
        <time>2021-11-22T12:41:01.727Z</time>
      </trkpt>
      <trkpt lat="47.554309" lon="8.048719">
        <ele>321.229346</ele>
        <time>2021-11-22T12:41:08.744Z</time>
      </trkpt>
      <trkpt lat="47.553996" lon="8.047557">
        <ele>322.270346</ele>
        <time>2021-11-22T12:41:27.974Z</time>
      </trkpt>
      <trkpt lat="47.553619" lon="8.046372">
        <ele>323.067174</ele>
        <time>2021-11-22T12:41:44.411Z</time>
      </trkpt>
      <trkpt lat="47.552844" lon="8.044355">
        <ele>321.925205</ele>
        <time>2021-11-22T12:42:04.341Z</time>
      </trkpt>
      <trkpt lat="47.551627" lon="8.041127">
        <ele>317.090221</ele>
        <time>2021-11-22T12:42:31.094Z</time>
      </trkpt>
      <trkpt lat="47.551167" lon="8.039905">
        <ele>315.815726</ele>
        <time>2021-11-22T12:42:41.724Z</time>
      </trkpt>
      <trkpt lat="47.551001" lon="8.039426">
        <ele>315.325264</ele>
        <time>2021-11-22T12:42:46.080Z</time>
      </trkpt>
      <trkpt lat="47.550515" lon="8.038174">
        <ele>315.145482</ele>
        <time>2021-11-22T12:42:59.783Z</time>
      </trkpt>
      <trkpt lat="47.550424" lon="8.037956">
        <ele>315.240070</ele>
        <time>2021-11-22T12:43:02.753Z</time>
      </trkpt>
      <trkpt lat="47.550111" lon="8.037123">
        <ele>315.591888</ele>
        <time>2021-11-22T12:43:15.120Z</time>
      </trkpt>
      <trkpt lat="47.549832" lon="8.036349">
        <ele>315.928525</ele>
        <time>2021-11-22T12:43:26.403Z</time>
      </trkpt>
      <trkpt lat="47.549753" lon="8.036077">
        <ele>316.050068</ele>
        <time>2021-11-22T12:43:30.175Z</time>
      </trkpt>
      <trkpt lat="47.549699" lon="8.035900">
        <ele>316.129797</ele>
        <time>2021-11-22T12:43:32.508Z</time>
      </trkpt>
      <trkpt lat="47.549632" lon="8.035633">
        <ele>316.246719</ele>
        <time>2021-11-22T12:43:35.826Z</time>
      </trkpt>
      <trkpt lat="47.549554" lon="8.035288">
        <ele>316.396062</ele>
        <time>2021-11-22T12:43:40.117Z</time>
      </trkpt>
      <trkpt lat="47.549494" lon="8.034935">
        <ele>316.545479</ele>
        <time>2021-11-22T12:43:44.576Z</time>
      </trkpt>
      <trkpt lat="47.549442" lon="8.034584">
        <ele>316.692981</ele>
        <time>2021-11-22T12:43:47.980Z</time>
      </trkpt>
      <trkpt lat="47.549395" lon="8.034029">
        <ele>316.893102</ele>
        <time>2021-11-22T12:43:54.041Z</time>
      </trkpt>
      <trkpt lat="47.549394" lon="8.034003">
        <ele>316.892273</ele>
        <time>2021-11-22T12:43:55.517Z</time>
      </trkpt>
      <trkpt lat="47.549386" lon="8.033799">
        <ele>316.885774</ele>
        <time>2021-11-22T12:43:57.049Z</time>
      </trkpt>
      <trkpt lat="47.549374" lon="8.033423">
        <ele>316.873801</ele>
        <time>2021-11-22T12:44:01.565Z</time>
      </trkpt>
      <trkpt lat="47.549363" lon="8.032869">
        <ele>316.856173</ele>
        <time>2021-11-22T12:44:06.725Z</time>
      </trkpt>
      <trkpt lat="47.549368" lon="8.032544">
        <ele>316.845833</ele>
        <time>2021-11-22T12:44:09.322Z</time>
      </trkpt>
      <trkpt lat="47.549372" lon="8.031883">
        <ele>316.824809</ele>
        <time>2021-11-22T12:44:16.341Z</time>
      </trkpt>
      <trkpt lat="47.549378" lon="8.030790">
        <ele>316.966634</ele>
        <time>2021-11-22T12:44:27.001Z</time>
      </trkpt>
      <trkpt lat="47.549380" lon="8.030702">
        <ele>316.988053</ele>
        <time>2021-11-22T12:44:27.841Z</time>
      </trkpt>
      <trkpt lat="47.549418" lon="8.028906">
        <ele>317.425161</ele>
        <time>2021-11-22T12:44:48.548Z</time>
      </trkpt>
      <trkpt lat="47.549431" lon="8.028306">
        <ele>317.648995</ele>
        <time>2021-11-22T12:44:55.293Z</time>
      </trkpt>
      <trkpt lat="47.549445" lon="8.027599">
        <ele>317.940066</ele>
        <time>2021-11-22T12:45:03.470Z</time>
      </trkpt>
      <trkpt lat="47.549454" lon="8.027138">
        <ele>318.129856</ele>
        <time>2021-11-22T12:45:08.996Z</time>
      </trkpt>
      <trkpt lat="47.549436" lon="8.026046">
        <ele>318.563346</ele>
        <time>2021-11-22T12:45:22.280Z</time>
      </trkpt>
      <trkpt lat="47.549322" lon="8.024323">
        <ele>318.800605</ele>
        <time>2021-11-22T12:45:40.884Z</time>
      </trkpt>
      <trkpt lat="47.549268" lon="8.023385">
        <ele>318.891593</ele>
        <time>2021-11-22T12:45:50.331Z</time>
      </trkpt>
      <trkpt lat="47.549201" lon="8.022146">
        <ele>318.348102</ele>
        <time>2021-11-22T12:46:01.548Z</time>
      </trkpt>
      <trkpt lat="47.549191" lon="8.021436">
        <ele>318.037586</ele>
        <time>2021-11-22T12:46:07.515Z</time>
      </trkpt>
      <trkpt lat="47.549186" lon="8.021006">
        <ele>317.849540</ele>
        <time>2021-11-22T12:46:11.100Z</time>
      </trkpt>
      <trkpt lat="47.549208" lon="8.019997">
        <ele>316.968159</ele>
        <time>2021-11-22T12:46:19.333Z</time>
      </trkpt>
      <trkpt lat="47.549261" lon="8.017878">
        <ele>314.897184</ele>
        <time>2021-11-22T12:46:35.455Z</time>
      </trkpt>
      <trkpt lat="47.549256" lon="8.017769">
        <ele>314.802451</ele>
        <time>2021-11-22T12:46:36.319Z</time>
      </trkpt>
      <trkpt lat="47.549291" lon="8.017761">
        <ele>314.756956</ele>
        <time>2021-11-22T12:46:36.716Z</time>
      </trkpt>
      <trkpt lat="47.549324" lon="8.017738">
        <ele>314.710104</ele>
        <time>2021-11-22T12:46:37.106Z</time>
      </trkpt>
      <trkpt lat="47.549351" lon="8.017702">
        <ele>314.663440</ele>
        <time>2021-11-22T12:46:37.508Z</time>
      </trkpt>
      <trkpt lat="47.549370" lon="8.017656">
        <ele>314.616677</ele>
        <time>2021-11-22T12:46:37.967Z</time>
      </trkpt>
      <trkpt lat="47.549379" lon="8.017603">
        <ele>314.569289</ele>
        <time>2021-11-22T12:46:38.373Z</time>
      </trkpt>
      <trkpt lat="47.549377" lon="8.017547">
        <ele>314.520663</ele>
        <time>2021-11-22T12:46:38.931Z</time>
      </trkpt>
      <trkpt lat="47.549310" lon="8.017418">
        <ele>314.379523</ele>
        <time>2021-11-22T12:46:40.277Z</time>
      </trkpt>
      <trkpt lat="47.549274" lon="8.017401">
        <ele>314.330982</ele>
        <time>2021-11-22T12:46:40.759Z</time>
      </trkpt>
      <trkpt lat="47.549281" lon="8.017304">
        <ele>314.246394</ele>
        <time>2021-11-22T12:46:41.474Z</time>
      </trkpt>
      <trkpt lat="47.549431" lon="8.015998">
        <ele>313.097679</ele>
        <time>2021-11-22T12:46:52.219Z</time>
      </trkpt>
      <trkpt lat="47.549589" lon="8.015316">
        <ele>312.449082</ele>
        <time>2021-11-22T12:46:58.063Z</time>
      </trkpt>
      <trkpt lat="47.549795" lon="8.014667">
        <ele>311.783255</ele>
        <time>2021-11-22T12:47:03.878Z</time>
      </trkpt>
      <trkpt lat="47.549871" lon="8.014427">
        <ele>311.537137</ele>
        <time>2021-11-22T12:47:06.014Z</time>
      </trkpt>
      <trkpt lat="47.550001" lon="8.014034">
        <ele>311.130819</ele>
        <time>2021-11-22T12:47:09.402Z</time>
      </trkpt>
      <trkpt lat="47.550565" lon="8.012461">
        <ele>309.784096</ele>
        <time>2021-11-22T12:47:23.009Z</time>
      </trkpt>
      <trkpt lat="47.550764" lon="8.011985">
        <ele>309.451561</ele>
        <time>2021-11-22T12:47:27.509Z</time>
      </trkpt>
      <trkpt lat="47.551187" lon="8.011080">
        <ele>308.797786</ele>
        <time>2021-11-22T12:47:37.627Z</time>
      </trkpt>
      <trkpt lat="47.551275" lon="8.010934">
        <ele>308.812676</ele>
        <time>2021-11-22T12:47:39.437Z</time>
      </trkpt>
      <trkpt lat="47.551902" lon="8.009884">
        <ele>309.665216</ele>
        <time>2021-11-22T12:47:56.391Z</time>
      </trkpt>
      <trkpt lat="47.552604" lon="8.008677">
        <ele>310.392717</ele>
        <time>2021-11-22T12:48:18.871Z</time>
      </trkpt>
      <trkpt lat="47.552640" lon="8.008615">
        <ele>310.397524</ele>
        <time>2021-11-22T12:48:20.457Z</time>
      </trkpt>
      <trkpt lat="47.552935" lon="8.007851">
        <ele>310.449260</ele>
        <time>2021-11-22T12:48:30.055Z</time>
      </trkpt>
      <trkpt lat="47.553173" lon="8.006642">
        <ele>310.523282</ele>
        <time>2021-11-22T12:48:40.858Z</time>
      </trkpt>
      <trkpt lat="47.553211" lon="8.006270">
        <ele>310.351453</ele>
        <time>2021-11-22T12:48:44.072Z</time>
      </trkpt>
      <trkpt lat="47.553220" lon="8.006182">
        <ele>310.310287</ele>
        <time>2021-11-22T12:48:44.663Z</time>
      </trkpt>
      <trkpt lat="47.553251" lon="8.005657">
        <ele>310.066535</ele>
        <time>2021-11-22T12:48:48.911Z</time>
      </trkpt>
      <trkpt lat="47.553256" lon="8.004837">
        <ele>309.687251</ele>
        <time>2021-11-22T12:48:55.835Z</time>
      </trkpt>
      <trkpt lat="47.553266" lon="8.003502">
        <ele>309.515273</ele>
        <time>2021-11-22T12:49:08.422Z</time>
      </trkpt>
      <trkpt lat="47.553270" lon="8.002465">
        <ele>310.001938</ele>
        <time>2021-11-22T12:49:21.094Z</time>
      </trkpt>
      <trkpt lat="47.553271" lon="8.002109">
        <ele>310.169008</ele>
        <time>2021-11-22T12:49:26.072Z</time>
      </trkpt>
      <trkpt lat="47.553273" lon="8.001687">
        <ele>310.367054</ele>
        <time>2021-11-22T12:49:31.752Z</time>
      </trkpt>
      <trkpt lat="47.553275" lon="7.999860">
        <ele>310.726256</ele>
        <time>2021-11-22T12:49:53.938Z</time>
      </trkpt>
      <trkpt lat="47.553278" lon="7.999508">
        <ele>310.770935</ele>
        <time>2021-11-22T12:49:57.485Z</time>
      </trkpt>
      <trkpt lat="47.553287" lon="7.998380">
        <ele>310.571270</ele>
        <time>2021-11-22T12:50:07.252Z</time>
      </trkpt>
      <trkpt lat="47.553287" lon="7.997190">
        <ele>309.212395</ele>
        <time>2021-11-22T12:50:16.551Z</time>
      </trkpt>
      <trkpt lat="47.553279" lon="7.996528">
        <ele>308.456328</ele>
        <time>2021-11-22T12:50:21.567Z</time>
      </trkpt>
      <trkpt lat="47.553268" lon="7.996252">
        <ele>308.140611</ele>
        <time>2021-11-22T12:50:23.639Z</time>
      </trkpt>
      <trkpt lat="47.553246" lon="7.995617">
        <ele>307.421577</ele>
        <time>2021-11-22T12:50:27.821Z</time>
      </trkpt>
      <trkpt lat="47.553164" lon="7.993925">
        <ele>305.516776</ele>
        <time>2021-11-22T12:50:41.340Z</time>
      </trkpt>
      <trkpt lat="47.553156" lon="7.993696">
        <ele>305.259293</ele>
        <time>2021-11-22T12:50:42.742Z</time>
      </trkpt>
      <trkpt lat="47.553137" lon="7.993190">
        <ele>304.816202</ele>
        <time>2021-11-22T12:50:47.354Z</time>
      </trkpt>
      <trkpt lat="47.553130" lon="7.993014">
        <ele>304.780332</ele>
        <time>2021-11-22T12:50:51.539Z</time>
      </trkpt>
      <trkpt lat="47.553107" lon="7.992226">
        <ele>304.619856</ele>
        <time>2021-11-22T12:50:58.254Z</time>
      </trkpt>
      <trkpt lat="47.553091" lon="7.991915">
        <ele>304.556397</ele>
        <time>2021-11-22T12:51:02.486Z</time>
      </trkpt>
      <trkpt lat="47.553050" lon="7.990744">
        <ele>304.317826</ele>
        <time>2021-11-22T12:51:15.309Z</time>
      </trkpt>
      <trkpt lat="47.553126" lon="7.990240">
        <ele>303.429541</ele>
        <time>2021-11-22T12:51:19.221Z</time>
      </trkpt>
      <trkpt lat="47.553146" lon="7.990113">
        <ele>303.169771</ele>
        <time>2021-11-22T12:51:20.150Z</time>
      </trkpt>
      <trkpt lat="47.553163" lon="7.990004">
        <ele>302.946930</ele>
        <time>2021-11-22T12:51:20.935Z</time>
      </trkpt>
      <trkpt lat="47.553214" lon="7.989758">
        <ele>302.434321</ele>
        <time>2021-11-22T12:51:22.714Z</time>
      </trkpt>
      <trkpt lat="47.553253" lon="7.989578">
        <ele>302.057752</ele>
        <time>2021-11-22T12:51:24.003Z</time>
      </trkpt>
      <trkpt lat="47.553352" lon="7.989142">
        <ele>301.141443</ele>
        <time>2021-11-22T12:51:27.099Z</time>
      </trkpt>
      <trkpt lat="47.553424" lon="7.988762">
        <ele>300.355254</ele>
        <time>2021-11-22T12:51:29.745Z</time>
      </trkpt>
      <trkpt lat="47.553410" lon="7.988607">
        <ele>300.043755</ele>
        <time>2021-11-22T12:51:30.776Z</time>
      </trkpt>
      <trkpt lat="47.553343" lon="7.988401">
        <ele>299.588259</ele>
        <time>2021-11-22T12:51:32.298Z</time>
      </trkpt>
      <trkpt lat="47.553232" lon="7.988247">
        <ele>299.139456</ele>
        <time>2021-11-22T12:51:33.770Z</time>
      </trkpt>
      <trkpt lat="47.552867" lon="7.987810">
        <ele>297.669427</ele>
        <time>2021-11-22T12:51:38.338Z</time>
      </trkpt>
      <trkpt lat="47.552713" lon="7.987638">
        <ele>297.061177</ele>
        <time>2021-11-22T12:51:40.176Z</time>
      </trkpt>
      <trkpt lat="47.552504" lon="7.987369">
        <ele>296.188020</ele>
        <time>2021-11-22T12:51:42.886Z</time>
      </trkpt>
      <trkpt lat="47.552436" lon="7.987273">
        <ele>295.891781</ele>
        <time>2021-11-22T12:51:43.830Z</time>
      </trkpt>
      <trkpt lat="47.552224" lon="7.986975">
        <ele>294.970109</ele>
        <time>2021-11-22T12:51:46.814Z</time>
      </trkpt>
      <trkpt lat="47.552152" lon="7.986883">
        <ele>294.670241</ele>
        <time>2021-11-22T12:51:47.795Z</time>
      </trkpt>
      <trkpt lat="47.551971" lon="7.986555">
        <ele>293.768360</ele>
        <time>2021-11-22T12:51:50.793Z</time>
      </trkpt>
      <trkpt lat="47.551917" lon="7.986288">
        <ele>293.366035</ele>
        <time>2021-11-22T12:51:52.874Z</time>
      </trkpt>
      <trkpt lat="47.551915" lon="7.986209">
        <ele>293.418796</ele>
        <time>2021-11-22T12:51:53.434Z</time>
      </trkpt>
      <trkpt lat="47.551898" lon="7.985654">
        <ele>293.789578</ele>
        <time>2021-11-22T12:51:58.941Z</time>
      </trkpt>
      <trkpt lat="47.551939" lon="7.985151">
        <ele>294.127713</ele>
        <time>2021-11-22T12:52:05.097Z</time>
      </trkpt>
      <trkpt lat="47.551934" lon="7.984260">
        <ele>294.722377</ele>
        <time>2021-11-22T12:52:18.679Z</time>
      </trkpt>
      <trkpt lat="47.551993" lon="7.984014">
        <ele>294.896612</ele>
        <time>2021-11-22T12:52:22.284Z</time>
      </trkpt>
      <trkpt lat="47.552007" lon="7.983931">
        <ele>294.953709</ele>
        <time>2021-11-22T12:52:23.858Z</time>
      </trkpt>
      <trkpt lat="47.552005" lon="7.983849">
        <ele>295.008470</ele>
        <time>2021-11-22T12:52:25.940Z</time>
      </trkpt>
      <trkpt lat="47.551911" lon="7.983632">
        <ele>295.322767</ele>
        <time>2021-11-22T12:52:30.133Z</time>
      </trkpt>
      <trkpt lat="47.551892" lon="7.983447">
        <ele>295.665454</ele>
        <time>2021-11-22T12:52:33.477Z</time>
      </trkpt>
      <trkpt lat="47.551861" lon="7.981113">
        <ele>299.940496</ele>
        <time>2021-11-22T12:53:16.767Z</time>
      </trkpt>
      <trkpt lat="47.551865" lon="7.980584">
        <ele>300.074166</ele>
        <time>2021-11-22T12:53:23.407Z</time>
      </trkpt>
      <trkpt lat="47.551873" lon="7.980135">
        <ele>300.158060</ele>
        <time>2021-11-22T12:53:28.164Z</time>
      </trkpt>
      <trkpt lat="47.551933" lon="7.979363">
        <ele>300.303207</ele>
        <time>2021-11-22T12:53:36.522Z</time>
      </trkpt>
      <trkpt lat="47.551923" lon="7.979308">
        <ele>300.313846</ele>
        <time>2021-11-22T12:53:36.890Z</time>
      </trkpt>
      <trkpt lat="47.551901" lon="7.979190">
        <ele>300.336712</ele>
        <time>2021-11-22T12:53:37.861Z</time>
      </trkpt>
      <trkpt lat="47.551829" lon="7.976305">
        <ele>299.895665</ele>
        <time>2021-11-22T12:54:02.910Z</time>
      </trkpt>
      <trkpt lat="47.551793" lon="7.974325">
        <ele>299.905841</ele>
        <time>2021-11-22T12:54:25.023Z</time>
      </trkpt>
      <trkpt lat="47.551755" lon="7.972603">
        <ele>299.859345</ele>
        <time>2021-11-22T12:54:42.321Z</time>
      </trkpt>
      <trkpt lat="47.551725" lon="7.970823">
        <ele>299.245421</ele>
        <time>2021-11-22T12:54:57.550Z</time>
      </trkpt>
      <trkpt lat="47.551734" lon="7.970034">
        <ele>299.070029</ele>
        <time>2021-11-22T12:55:04.510Z</time>
      </trkpt>
      <trkpt lat="47.551750" lon="7.968659">
        <ele>298.917114</ele>
        <time>2021-11-22T12:55:17.700Z</time>
      </trkpt>
      <trkpt lat="47.551825" lon="7.968445">
        <ele>298.890301</ele>
        <time>2021-11-22T12:55:19.952Z</time>
      </trkpt>
      <trkpt lat="47.551847" lon="7.968315">
        <ele>298.875398</ele>
        <time>2021-11-22T12:55:21.423Z</time>
      </trkpt>
      <trkpt lat="47.551839" lon="7.968208">
        <ele>298.863428</ele>
        <time>2021-11-22T12:55:22.625Z</time>
      </trkpt>
      <trkpt lat="47.551767" lon="7.967910">
        <ele>298.828232</ele>
        <time>2021-11-22T12:55:25.858Z</time>
      </trkpt>
      <trkpt lat="47.551902" lon="7.964650">
        <ele>299.485364</ele>
        <time>2021-11-22T12:56:02.253Z</time>
      </trkpt>
      <trkpt lat="47.551911" lon="7.964138">
        <ele>299.469250</ele>
        <time>2021-11-22T12:56:07.506Z</time>
      </trkpt>
      <trkpt lat="47.551918" lon="7.963725">
        <ele>299.456251</ele>
        <time>2021-11-22T12:56:11.652Z</time>
      </trkpt>
      <trkpt lat="47.551906" lon="7.962453">
        <ele>299.399104</ele>
        <time>2021-11-22T12:56:23.581Z</time>
      </trkpt>
      <trkpt lat="47.551859" lon="7.961133">
        <ele>298.961297</ele>
        <time>2021-11-22T12:56:35.168Z</time>
      </trkpt>
      <trkpt lat="47.551894" lon="7.960729">
        <ele>298.826389</ele>
        <time>2021-11-22T12:56:38.919Z</time>
      </trkpt>
      <trkpt lat="47.551882" lon="7.960631">
        <ele>298.793400</ele>
        <time>2021-11-22T12:56:39.688Z</time>
      </trkpt>
      <trkpt lat="47.551865" lon="7.960528">
        <ele>298.758280</ele>
        <time>2021-11-22T12:56:40.633Z</time>
      </trkpt>
      <trkpt lat="47.551677" lon="7.960100">
        <ele>298.589143</ele>
        <time>2021-11-22T12:56:45.156Z</time>
      </trkpt>
      <trkpt lat="47.551300" lon="7.958844">
        <ele>298.419935</ele>
        <time>2021-11-22T12:56:58.069Z</time>
      </trkpt>
      <trkpt lat="47.551222" lon="7.958638">
        <ele>298.397445</ele>
        <time>2021-11-22T12:57:00.235Z</time>
      </trkpt>
      <trkpt lat="47.550869" lon="7.957700">
        <ele>298.295187</ele>
        <time>2021-11-22T12:57:11.471Z</time>
      </trkpt>
      <trkpt lat="47.550745" lon="7.957569">
        <ele>298.289611</ele>
        <time>2021-11-22T12:57:13.711Z</time>
      </trkpt>
      <trkpt lat="47.550735" lon="7.957541">
        <ele>298.292660</ele>
        <time>2021-11-22T12:57:14.153Z</time>
      </trkpt>
      <trkpt lat="47.550613" lon="7.957254">
        <ele>298.325307</ele>
        <time>2021-11-22T12:57:17.490Z</time>
      </trkpt>
      <trkpt lat="47.550549" lon="7.957126">
        <ele>298.340640</ele>
        <time>2021-11-22T12:57:19.039Z</time>
      </trkpt>
      <trkpt lat="47.550445" lon="7.956918">
        <ele>298.365555</ele>
        <time>2021-11-22T12:57:21.711Z</time>
      </trkpt>
      <trkpt lat="47.550380" lon="7.956806">
        <ele>298.379773</ele>
        <time>2021-11-22T12:57:23.195Z</time>
      </trkpt>
      <trkpt lat="47.550205" lon="7.956552">
        <ele>298.414709</ele>
        <time>2021-11-22T12:57:26.908Z</time>
      </trkpt>
      <trkpt lat="47.549444" lon="7.955496">
        <ele>298.565257</ele>
        <time>2021-11-22T12:57:43.276Z</time>
      </trkpt>
      <trkpt lat="47.549157" lon="7.955099">
        <ele>298.625360</ele>
        <time>2021-11-22T12:57:49.077Z</time>
      </trkpt>
      <trkpt lat="47.549042" lon="7.954942">
        <ele>298.649298</ele>
        <time>2021-11-22T12:57:51.429Z</time>
      </trkpt>
      <trkpt lat="47.548833" lon="7.954652">
        <ele>298.693130</ele>
        <time>2021-11-22T12:57:55.786Z</time>
      </trkpt>
      <trkpt lat="47.548542" lon="7.954269">
        <ele>298.752712</ele>
        <time>2021-11-22T12:58:01.803Z</time>
      </trkpt>
      <trkpt lat="47.548342" lon="7.954009">
        <ele>298.793442</ele>
        <time>2021-11-22T12:58:05.985Z</time>
      </trkpt>
      <trkpt lat="47.548251" lon="7.953895">
        <ele>298.811683</ele>
        <time>2021-11-22T12:58:07.914Z</time>
      </trkpt>
      <trkpt lat="47.548115" lon="7.953729">
        <ele>298.877641</ele>
        <time>2021-11-22T12:58:10.782Z</time>
      </trkpt>
      <trkpt lat="47.547994" lon="7.953584">
        <ele>298.938293</ele>
        <time>2021-11-22T12:58:13.344Z</time>
      </trkpt>
      <trkpt lat="47.547871" lon="7.953437">
        <ele>298.999882</ele>
        <time>2021-11-22T12:58:15.935Z</time>
      </trkpt>
      <trkpt lat="47.547797" lon="7.953355">
        <ele>299.035896</ele>
        <time>2021-11-22T12:58:17.439Z</time>
      </trkpt>
      <trkpt lat="47.547624" lon="7.953160">
        <ele>299.120615</ele>
        <time>2021-11-22T12:58:20.932Z</time>
      </trkpt>
      <trkpt lat="47.547550" lon="7.953078">
        <ele>299.156629</ele>
        <time>2021-11-22T12:58:22.456Z</time>
      </trkpt>
      <trkpt lat="47.547458" lon="7.952975">
        <ele>299.201571</ele>
        <time>2021-11-22T12:58:24.469Z</time>
      </trkpt>
      <trkpt lat="47.547400" lon="7.952910">
        <ele>299.229914</ele>
        <time>2021-11-22T12:58:25.751Z</time>
      </trkpt>
      <trkpt lat="47.547090" lon="7.952543">
        <ele>299.384565</ele>
        <time>2021-11-22T12:58:32.200Z</time>
      </trkpt>
      <trkpt lat="47.546935" lon="7.952372">
        <ele>299.459882</ele>
        <time>2021-11-22T12:58:35.092Z</time>
      </trkpt>
      <trkpt lat="47.546776" lon="7.952185">
        <ele>299.521251</ele>
        <time>2021-11-22T12:58:38.416Z</time>
      </trkpt>
      <trkpt lat="47.546695" lon="7.952091">
        <ele>299.532390</ele>
        <time>2021-11-22T12:58:40.223Z</time>
      </trkpt>
      <trkpt lat="47.546634" lon="7.952024">
        <ele>299.540610</ele>
        <time>2021-11-22T12:58:41.666Z</time>
      </trkpt>
      <trkpt lat="47.546421" lon="7.951793">
        <ele>299.569186</ele>
        <time>2021-11-22T12:58:46.077Z</time>
      </trkpt>
      <trkpt lat="47.546231" lon="7.951558">
        <ele>299.595981</ele>
        <time>2021-11-22T12:58:50.630Z</time>
      </trkpt>
      <trkpt lat="47.546212" lon="7.951535">
        <ele>299.598637</ele>
        <time>2021-11-22T12:58:50.876Z</time>
      </trkpt>
      <trkpt lat="47.546135" lon="7.951406">
        <ele>299.611220</ele>
        <time>2021-11-22T12:58:52.685Z</time>
      </trkpt>
      <trkpt lat="47.545886" lon="7.951110">
        <ele>299.645781</ele>
        <time>2021-11-22T12:58:57.505Z</time>
      </trkpt>
      <trkpt lat="47.545824" lon="7.951061">
        <ele>299.653388</ele>
        <time>2021-11-22T12:58:58.647Z</time>
      </trkpt>
      <trkpt lat="47.545759" lon="7.950982">
        <ele>299.662489</ele>
        <time>2021-11-22T12:59:00.052Z</time>
      </trkpt>
      <trkpt lat="47.545727" lon="7.950947">
        <ele>299.666795</ele>
        <time>2021-11-22T12:59:00.853Z</time>
      </trkpt>
      <trkpt lat="47.545625" lon="7.950829">
        <ele>299.680805</ele>
        <time>2021-11-22T12:59:02.409Z</time>
      </trkpt>
      <trkpt lat="47.545567" lon="7.950765">
        <ele>299.688634</ele>
        <time>2021-11-22T12:59:03.442Z</time>
      </trkpt>
      <trkpt lat="47.545494" lon="7.950684">
        <ele>299.698508</ele>
        <time>2021-11-22T12:59:04.810Z</time>
      </trkpt>
      <trkpt lat="47.545434" lon="7.950668">
        <ele>299.705107</ele>
        <time>2021-11-22T12:59:05.895Z</time>
      </trkpt>
      <trkpt lat="47.545166" lon="7.950366">
        <ele>299.576750</ele>
        <time>2021-11-22T12:59:10.236Z</time>
      </trkpt>
      <trkpt lat="47.544901" lon="7.950044">
        <ele>299.425251</ele>
        <time>2021-11-22T12:59:14.369Z</time>
      </trkpt>
      <trkpt lat="47.544521" lon="7.949558">
        <ele>299.203343</ele>
        <time>2021-11-22T12:59:20.558Z</time>
      </trkpt>
      <trkpt lat="47.544239" lon="7.949202">
        <ele>299.039570</ele>
        <time>2021-11-22T12:59:25.466Z</time>
      </trkpt>
      <trkpt lat="47.543864" lon="7.948694">
        <ele>299.284611</ele>
        <time>2021-11-22T12:59:33.430Z</time>
      </trkpt>
      <trkpt lat="47.543760" lon="7.948548">
        <ele>299.521350</ele>
        <time>2021-11-22T12:59:35.672Z</time>
      </trkpt>
      <trkpt lat="47.543579" lon="7.948287">
        <ele>299.938700</ele>
        <time>2021-11-22T12:59:41.389Z</time>
      </trkpt>
      <trkpt lat="47.543532" lon="7.948214">
        <ele>300.051217</ele>
        <time>2021-11-22T12:59:42.515Z</time>
      </trkpt>
      <trkpt lat="47.543435" lon="7.948000">
        <ele>300.338719</ele>
        <time>2021-11-22T12:59:45.577Z</time>
      </trkpt>
      <trkpt lat="47.543407" lon="7.947938">
        <ele>300.421919</ele>
        <time>2021-11-22T12:59:47.435Z</time>
      </trkpt>
      <trkpt lat="47.543280" lon="7.947656">
        <ele>300.800022</ele>
        <time>2021-11-22T12:59:51.921Z</time>
      </trkpt>
      <trkpt lat="47.543142" lon="7.947250">
        <ele>301.307022</ele>
        <time>2021-11-22T12:59:59.385Z</time>
      </trkpt>
      <trkpt lat="47.543086" lon="7.947052">
        <ele>301.546463</ele>
        <time>2021-11-22T13:00:02.815Z</time>
      </trkpt>
      <trkpt lat="47.543056" lon="7.946935">
        <ele>301.686056</ele>
        <time>2021-11-22T13:00:05.656Z</time>
      </trkpt>
      <trkpt lat="47.543045" lon="7.946881">
        <ele>301.748968</ele>
        <time>2021-11-22T13:00:06.813Z</time>
      </trkpt>
      <trkpt lat="47.542982" lon="7.946547">
        <ele>302.256136</ele>
        <time>2021-11-22T13:00:12.212Z</time>
      </trkpt>
      <trkpt lat="47.542974" lon="7.946495">
        <ele>302.344285</ele>
        <time>2021-11-22T13:00:13.853Z</time>
      </trkpt>
      <trkpt lat="47.542960" lon="7.946400">
        <ele>302.504999</ele>
        <time>2021-11-22T13:00:15.919Z</time>
      </trkpt>
      <trkpt lat="47.542916" lon="7.945730">
        <ele>303.617598</ele>
        <time>2021-11-22T13:00:28.584Z</time>
      </trkpt>
      <trkpt lat="47.542913" lon="7.945267">
        <ele>304.382877</ele>
        <time>2021-11-22T13:00:37.080Z</time>
      </trkpt>
      <trkpt lat="47.543007" lon="7.943867">
        <ele>306.320309</ele>
        <time>2021-11-22T13:00:58.247Z</time>
      </trkpt>
      <trkpt lat="47.543161" lon="7.942213">
        <ele>306.521268</ele>
        <time>2021-11-22T13:01:16.653Z</time>
      </trkpt>
      <trkpt lat="47.543435" lon="7.940670">
        <ele>305.740928</ele>
        <time>2021-11-22T13:01:29.601Z</time>
      </trkpt>
      <trkpt lat="47.543826" lon="7.939433">
        <ele>304.349675</ele>
        <time>2021-11-22T13:01:40.002Z</time>
      </trkpt>
      <trkpt lat="47.544472" lon="7.937932">
        <ele>302.278435</ele>
        <time>2021-11-22T13:01:53.326Z</time>
      </trkpt>
      <trkpt lat="47.544705" lon="7.937395">
        <ele>301.504840</ele>
        <time>2021-11-22T13:01:58.166Z</time>
      </trkpt>
      <trkpt lat="47.544903" lon="7.936917">
        <ele>300.825219</ele>
        <time>2021-11-22T13:02:02.426Z</time>
      </trkpt>
      <trkpt lat="47.545074" lon="7.936484">
        <ele>300.332431</ele>
        <time>2021-11-22T13:02:06.257Z</time>
      </trkpt>
      <trkpt lat="47.545457" lon="7.935110">
        <ele>298.991703</ele>
        <time>2021-11-22T13:02:17.625Z</time>
      </trkpt>
      <trkpt lat="47.545674" lon="7.933625">
        <ele>298.528479</ele>
        <time>2021-11-22T13:02:30.705Z</time>
      </trkpt>
      <trkpt lat="47.545702" lon="7.933290">
        <ele>298.653597</ele>
        <time>2021-11-22T13:02:34.286Z</time>
      </trkpt>
      <trkpt lat="47.545724" lon="7.932758">
        <ele>298.851156</ele>
        <time>2021-11-22T13:02:40.552Z</time>
      </trkpt>
      <trkpt lat="47.545721" lon="7.931992">
        <ele>299.135083</ele>
        <time>2021-11-22T13:02:50.592Z</time>
      </trkpt>
      <trkpt lat="47.545696" lon="7.931497">
        <ele>299.484144</ele>
        <time>2021-11-22T13:02:57.797Z</time>
      </trkpt>
      <trkpt lat="47.545661" lon="7.930955">
        <ele>300.182136</ele>
        <time>2021-11-22T13:03:06.492Z</time>
      </trkpt>
      <trkpt lat="47.545563" lon="7.929641">
        <ele>301.876879</ele>
        <time>2021-11-22T13:03:28.832Z</time>
      </trkpt>
      <trkpt lat="47.545475" lon="7.928419">
        <ele>302.198095</ele>
        <time>2021-11-22T13:03:45.135Z</time>
      </trkpt>
      <trkpt lat="47.545421" lon="7.927686">
        <ele>301.631984</ele>
        <time>2021-11-22T13:03:51.238Z</time>
      </trkpt>
      <trkpt lat="47.545406" lon="7.927306">
        <ele>301.339736</ele>
        <time>2021-11-22T13:03:54.142Z</time>
      </trkpt>
      <trkpt lat="47.545407" lon="7.927001">
        <ele>301.105566</ele>
        <time>2021-11-22T13:03:56.429Z</time>
      </trkpt>
      <trkpt lat="47.545409" lon="7.926773">
        <ele>300.930501</ele>
        <time>2021-11-22T13:03:58.058Z</time>
      </trkpt>
      <trkpt lat="47.545417" lon="7.925848">
        <ele>299.295669</ele>
        <time>2021-11-22T13:04:04.393Z</time>
      </trkpt>
      <trkpt lat="47.545446" lon="7.925350">
        <ele>298.028856</ele>
        <time>2021-11-22T13:04:07.685Z</time>
      </trkpt>
      <trkpt lat="47.545466" lon="7.924880">
        <ele>296.835330</ele>
        <time>2021-11-22T13:04:10.738Z</time>
      </trkpt>
      <trkpt lat="47.545481" lon="7.924396">
        <ele>295.607395</ele>
        <time>2021-11-22T13:04:13.822Z</time>
      </trkpt>
      <trkpt lat="47.545521" lon="7.923709">
        <ele>293.864204</ele>
        <time>2021-11-22T13:04:18.360Z</time>
      </trkpt>
      <trkpt lat="47.545536" lon="7.923407">
        <ele>293.469262</ele>
        <time>2021-11-22T13:04:20.725Z</time>
      </trkpt>
      <trkpt lat="47.545553" lon="7.923142">
        <ele>293.122084</ele>
        <time>2021-11-22T13:04:22.452Z</time>
      </trkpt>
      <trkpt lat="47.545587" lon="7.922895">
        <ele>292.793310</ele>
        <time>2021-11-22T13:04:24.802Z</time>
      </trkpt>
      <trkpt lat="47.545641" lon="7.922610">
        <ele>292.407239</ele>
        <time>2021-11-22T13:04:26.808Z</time>
      </trkpt>
      <trkpt lat="47.545690" lon="7.922369">
        <ele>292.078971</ele>
        <time>2021-11-22T13:04:29.435Z</time>
      </trkpt>
      <trkpt lat="47.545699" lon="7.922325">
        <ele>292.019008</ele>
        <time>2021-11-22T13:04:29.696Z</time>
      </trkpt>
      <trkpt lat="47.545714" lon="7.922249">
        <ele>291.915737</ele>
        <time>2021-11-22T13:04:30.325Z</time>
      </trkpt>
      <trkpt lat="47.545776" lon="7.921956">
        <ele>291.515262</ele>
        <time>2021-11-22T13:04:33.277Z</time>
      </trkpt>
      <trkpt lat="47.545778" lon="7.921947">
        <ele>291.502905</ele>
        <time>2021-11-22T13:04:33.389Z</time>
      </trkpt>
      <trkpt lat="47.545810" lon="7.921755">
        <ele>291.244974</ele>
        <time>2021-11-22T13:04:34.740Z</time>
      </trkpt>
      <trkpt lat="47.545810" lon="7.921755">
        <ele>291.244974</ele>
        <time>2021-11-22T13:04:34.779Z</time>
      </trkpt>
      <trkpt lat="47.545881" lon="7.921096">
        <ele>290.389255</ele>
        <time>2021-11-22T13:04:40.104Z</time>
      </trkpt>
      <trkpt lat="47.545913" lon="7.920765">
        <ele>290.290091</ele>
        <time>2021-11-22T13:04:42.931Z</time>
      </trkpt>
      <trkpt lat="47.545973" lon="7.920313">
        <ele>290.153478</ele>
        <time>2021-11-22T13:04:48.095Z</time>
      </trkpt>
      <trkpt lat="47.546128" lon="7.919617">
        <ele>289.936128</ele>
        <time>2021-11-22T13:04:54.615Z</time>
      </trkpt>
      <trkpt lat="47.546262" lon="7.919081">
        <ele>289.766620</ele>
        <time>2021-11-22T13:05:00.462Z</time>
      </trkpt>
      <trkpt lat="47.546821" lon="7.916867">
        <ele>288.974864</ele>
        <time>2021-11-22T13:05:21.210Z</time>
      </trkpt>
      <trkpt lat="47.547032" lon="7.916218">
        <ele>288.725185</ele>
        <time>2021-11-22T13:05:27.701Z</time>
      </trkpt>
      <trkpt lat="47.547091" lon="7.916039">
        <ele>288.681629</ele>
        <time>2021-11-22T13:05:29.519Z</time>
      </trkpt>
      <trkpt lat="47.547113" lon="7.915971">
        <ele>288.683732</ele>
        <time>2021-11-22T13:05:30.117Z</time>
      </trkpt>
      <trkpt lat="47.547423" lon="7.915080">
        <ele>288.711683</ele>
        <time>2021-11-22T13:05:39.761Z</time>
      </trkpt>
      <trkpt lat="47.547994" lon="7.913433">
        <ele>288.963473</ele>
        <time>2021-11-22T13:05:59.481Z</time>
      </trkpt>
      <trkpt lat="47.548027" lon="7.913334">
        <ele>289.032983</ele>
        <time>2021-11-22T13:06:00.840Z</time>
      </trkpt>
      <trkpt lat="47.548412" lon="7.912168">
        <ele>289.850143</ele>
        <time>2021-11-22T13:06:17.243Z</time>
      </trkpt>
      <trkpt lat="47.549012" lon="7.910340">
        <ele>291.347600</ele>
        <time>2021-11-22T13:06:44.190Z</time>
      </trkpt>
      <trkpt lat="47.549102" lon="7.910058">
        <ele>291.605238</ele>
        <time>2021-11-22T13:06:48.305Z</time>
      </trkpt>
      <trkpt lat="47.549195" lon="7.909756">
        <ele>291.879404</ele>
        <time>2021-11-22T13:06:52.607Z</time>
      </trkpt>
      <trkpt lat="47.549283" lon="7.909464">
        <ele>292.143524</ele>
        <time>2021-11-22T13:06:56.758Z</time>
      </trkpt>
      <trkpt lat="47.549368" lon="7.909181">
        <ele>292.399360</ele>
        <time>2021-11-22T13:07:00.775Z</time>
      </trkpt>
      <trkpt lat="47.549520" lon="7.908678">
        <ele>293.010002</ele>
        <time>2021-11-22T13:07:07.890Z</time>
      </trkpt>
      <trkpt lat="47.549539" lon="7.908625">
        <ele>293.094282</ele>
        <time>2021-11-22T13:07:08.635Z</time>
      </trkpt>
      <trkpt lat="47.550497" lon="7.905558">
        <ele>298.683863</ele>
        <time>2021-11-22T13:08:03.540Z</time>
      </trkpt>
      <trkpt lat="47.550283" lon="7.905413">
        <ele>299.455336</ele>
        <time>2021-11-22T13:08:11.707Z</time>
      </trkpt>
      <trkpt lat="47.550067" lon="7.905245">
        <ele>300.255125</ele>
        <time>2021-11-22T13:08:20.393Z</time>
      </trkpt>
      <trkpt lat="47.549867" lon="7.905155">
        <ele>300.940391</ele>
        <time>2021-11-22T13:08:28.021Z</time>
      </trkpt>
      <trkpt lat="47.549868" lon="7.905010">
        <ele>301.261262</ele>
        <time>2021-11-22T13:08:31.426Z</time>
      </trkpt>
      <trkpt lat="47.550025" lon="7.904774">
        <ele>301.994503</ele>
        <time>2021-11-22T13:08:39.578Z</time>
      </trkpt>
      <trkpt lat="47.550302" lon="7.904164">
        <ele>303.810719</ele>
        <time>2021-11-22T13:08:57.877Z</time>
      </trkpt>
      <trkpt lat="47.550498" lon="7.903445">
        <ele>305.767320</ele>
        <time>2021-11-22T13:09:17.448Z</time>
      </trkpt>
      <trkpt lat="47.550688" lon="7.902451">
        <ele>308.374062</ele>
        <time>2021-11-22T13:09:39.997Z</time>
      </trkpt>
      <trkpt lat="47.550757" lon="7.901591">
        <ele>310.715471</ele>
        <time>2021-11-22T13:09:59.793Z</time>
      </trkpt>
      <trkpt lat="47.550769" lon="7.901362">
        <ele>311.352916</ele>
        <time>2021-11-22T13:10:05.701Z</time>
      </trkpt>
      <trkpt lat="47.550801" lon="7.900244">
        <ele>314.458435</ele>
        <time>2021-11-22T13:10:30.098Z</time>
      </trkpt>
      <trkpt lat="47.550819" lon="7.898109">
        <ele>319.761703</ele>
        <time>2021-11-22T13:11:17.139Z</time>
      </trkpt>
      <trkpt lat="47.550648" lon="7.896481">
        <ele>323.003067</ele>
        <time>2021-11-22T13:11:44.794Z</time>
      </trkpt>
      <trkpt lat="47.550639" lon="7.896345">
        <ele>323.122598</ele>
        <time>2021-11-22T13:11:47.169Z</time>
      </trkpt>
      <trkpt lat="47.550660" lon="7.896255">
        <ele>323.205894</ele>
        <time>2021-11-22T13:11:47.970Z</time>
      </trkpt>
      <trkpt lat="47.550838" lon="7.895509">
        <ele>323.898001</ele>
        <time>2021-11-22T13:11:58.137Z</time>
      </trkpt>
      <trkpt lat="47.550878" lon="7.895158">
        <ele>324.209369</ele>
        <time>2021-11-22T13:12:02.200Z</time>
      </trkpt>
      <trkpt lat="47.550908" lon="7.894308">
        <ele>324.953884</ele>
        <time>2021-11-22T13:12:12.672Z</time>
      </trkpt>
      <trkpt lat="47.550892" lon="7.893176">
        <ele>327.184828</ele>
        <time>2021-11-22T13:12:27.389Z</time>
      </trkpt>
      <trkpt lat="47.550904" lon="7.891725">
        <ele>330.063115</ele>
        <time>2021-11-22T13:12:57.151Z</time>
      </trkpt>
      <trkpt lat="47.550915" lon="7.890600">
        <ele>334.426258</ele>
        <time>2021-11-22T13:13:25.992Z</time>
      </trkpt>
      <trkpt lat="47.550833" lon="7.889069">
        <ele>340.650304</ele>
        <time>2021-11-22T13:14:08.476Z</time>
      </trkpt>
      <trkpt lat="47.550831" lon="7.888611">
        <ele>342.504480</ele>
        <time>2021-11-22T13:14:21.171Z</time>
      </trkpt>
      <trkpt lat="47.550789" lon="7.887816">
        <ele>345.731811</ele>
        <time>2021-11-22T13:14:41.969Z</time>
      </trkpt>
      <trkpt lat="47.550764" lon="7.887385">
        <ele>347.482567</ele>
        <time>2021-11-22T13:14:52.933Z</time>
      </trkpt>
      <trkpt lat="47.550758" lon="7.887295">
        <ele>347.848584</ele>
        <time>2021-11-22T13:14:55.769Z</time>
      </trkpt>
      <trkpt lat="47.550746" lon="7.887166">
        <ele>348.375603</ele>
        <time>2021-11-22T13:14:59.484Z</time>
      </trkpt>
      <trkpt lat="47.550677" lon="7.886476">
        <ele>351.198631</ele>
        <time>2021-11-22T13:15:17.137Z</time>
      </trkpt>
      <trkpt lat="47.550548" lon="7.885799">
        <ele>353.613704</ele>
        <time>2021-11-22T13:15:34.333Z</time>
      </trkpt>
      <trkpt lat="47.550391" lon="7.885109">
        <ele>355.984414</ele>
        <time>2021-11-22T13:15:52.568Z</time>
      </trkpt>
      <trkpt lat="47.550332" lon="7.884727">
        <ele>357.260273</ele>
        <time>2021-11-22T13:16:00.995Z</time>
      </trkpt>
      <trkpt lat="47.550296" lon="7.884167">
        <ele>359.091767</ele>
        <time>2021-11-22T13:16:13.200Z</time>
      </trkpt>
      <trkpt lat="47.550234" lon="7.883221">
        <ele>361.725491</ele>
        <time>2021-11-22T13:16:33.671Z</time>
      </trkpt>
      <trkpt lat="47.549927" lon="7.881490">
        <ele>365.948102</ele>
        <time>2021-11-22T13:17:05.795Z</time>
      </trkpt>
      <trkpt lat="47.549726" lon="7.880786">
        <ele>367.945683</ele>
        <time>2021-11-22T13:17:21.721Z</time>
      </trkpt>
      <trkpt lat="47.549327" lon="7.879547">
        <ele>371.845486</ele>
        <time>2021-11-22T13:17:51.505Z</time>
      </trkpt>
      <trkpt lat="47.549318" lon="7.879398">
        <ele>372.270453</ele>
        <time>2021-11-22T13:17:54.693Z</time>
      </trkpt>
      <trkpt lat="47.549140" lon="7.879391">
        <ele>373.019890</ele>
        <time>2021-11-22T13:18:01.563Z</time>
      </trkpt>
      <trkpt lat="47.548718" lon="7.879258">
        <ele>374.629421</ele>
        <time>2021-11-22T13:18:15.234Z</time>
      </trkpt>
      <trkpt lat="47.548422" lon="7.878959">
        <ele>375.468678</ele>
        <time>2021-11-22T13:18:25.881Z</time>
      </trkpt>
      <trkpt lat="47.548234" lon="7.878638">
        <ele>376.140683</ele>
        <time>2021-11-22T13:18:34.313Z</time>
      </trkpt>
      <trkpt lat="47.547992" lon="7.877974">
        <ele>377.333888</ele>
        <time>2021-11-22T13:18:47.410Z</time>
      </trkpt>
      <trkpt lat="47.547574" lon="7.876801">
        <ele>377.707791</ele>
        <time>2021-11-22T13:19:01.173Z</time>
      </trkpt>
      <trkpt lat="47.547126" lon="7.875801">
        <ele>375.745284</ele>
        <time>2021-11-22T13:19:09.956Z</time>
      </trkpt>
      <trkpt lat="47.546309" lon="7.874154">
        <ele>369.837814</ele>
        <time>2021-11-22T13:19:23.146Z</time>
      </trkpt>
      <trkpt lat="47.546135" lon="7.873859">
        <ele>368.296099</ele>
        <time>2021-11-22T13:19:25.527Z</time>
      </trkpt>
      <trkpt lat="47.546077" lon="7.873763">
        <ele>367.789072</ele>
        <time>2021-11-22T13:19:26.338Z</time>
      </trkpt>
      <trkpt lat="47.545944" lon="7.873564">
        <ele>366.686992</ele>
        <time>2021-11-22T13:19:28.044Z</time>
      </trkpt>
      <trkpt lat="47.545934" lon="7.873549">
        <ele>366.604023</ele>
        <time>2021-11-22T13:19:28.158Z</time>
      </trkpt>
      <trkpt lat="47.545746" lon="7.873302">
        <ele>365.139013</ele>
        <time>2021-11-22T13:19:30.460Z</time>
      </trkpt>
      <trkpt lat="47.545515" lon="7.873015">
        <ele>363.740343</ele>
        <time>2021-11-22T13:19:33.157Z</time>
      </trkpt>
      <trkpt lat="47.545478" lon="7.872968">
        <ele>363.740343</ele>
        <time>2021-11-22T13:19:33.608Z</time>
      </trkpt>
      <trkpt lat="47.545375" lon="7.872836">
        <ele>363.740343</ele>
        <time>2021-11-22T13:19:34.798Z</time>
      </trkpt>
      <trkpt lat="47.545131" lon="7.872664">
        <ele>363.740343</ele>
        <time>2021-11-22T13:19:37.293Z</time>
      </trkpt>
      <trkpt lat="47.544883" lon="7.872555">
        <ele>363.740343</ele>
        <time>2021-11-22T13:19:39.631Z</time>
      </trkpt>
      <trkpt lat="47.544390" lon="7.872423">
        <ele>363.740343</ele>
        <time>2021-11-22T13:19:44.246Z</time>
      </trkpt>
      <trkpt lat="47.543605" lon="7.872284">
        <ele>363.740343</ele>
        <time>2021-11-22T13:19:51.971Z</time>
      </trkpt>
    </trkseg>
  </trk>
</gpx>